<?xml version="1.0" encoding="UTF-8" standalone="no" ?>
<gpx xmlns="http://www.topografix.com/GPX/1/1" xmlns:xsi="http://www.w3.org/2001/XMLSchema-instance" xsi:schemaLocation="http://www.topografix.com/GPX/1/1 http://www.topografix.com/GPX/1/1/gpx.xsd" version="1.1" creator="VisuGPX - https://www.visugpx.com">
  <metadata>
    <name>Valberg : Tour du Raton</name>
    <desc><![CDATA[Piste VTT bleue avec 2 options (suggérée et pas) + 2 crevaisons.]]></desc>
  </metadata>
  <trk>
    <name><![CDATA[2019-07-31 18:39:51]]></name>
    <trkseg>
      <trkpt lat="44.09069" lon="6.93023">
        <ele>1643.51</ele>
        <time>2019-07-31T12:02:57Z</time>
      </trkpt>
      <trkpt lat="44.0905" lon="6.93063">
        <ele>1646.88</ele>
        <time>2019-07-31T12:03:08Z</time>
      </trkpt>
      <trkpt lat="44.09039" lon="6.93088">
        <ele>1649.28</ele>
        <time>2019-07-31T12:03:16Z</time>
      </trkpt>
      <trkpt lat="44.09035" lon="6.93096">
        <ele>1654.57</ele>
        <time>2019-07-31T12:03:18Z</time>
      </trkpt>
      <trkpt lat="44.09033" lon="6.93099">
        <ele>1657.93</ele>
        <time>2019-07-31T12:03:19Z</time>
      </trkpt>
      <trkpt lat="44.09031" lon="6.93104">
        <ele>1660.33</ele>
        <time>2019-07-31T12:03:20Z</time>
      </trkpt>
      <trkpt lat="44.09023" lon="6.93116">
        <ele>1664.66</ele>
        <time>2019-07-31T12:03:24Z</time>
      </trkpt>
      <trkpt lat="44.09019" lon="6.93123">
        <ele>1669.95</ele>
        <time>2019-07-31T12:03:26Z</time>
      </trkpt>
      <trkpt lat="44.09016" lon="6.93129">
        <ele>1676.2</ele>
        <time>2019-07-31T12:03:28Z</time>
      </trkpt>
      <trkpt lat="44.09012" lon="6.93139">
        <ele>1681.96</ele>
        <time>2019-07-31T12:03:31Z</time>
      </trkpt>
      <trkpt lat="44.09009" lon="6.93145">
        <ele>1685.33</ele>
        <time>2019-07-31T12:03:33Z</time>
      </trkpt>
      <trkpt lat="44.09005" lon="6.93152">
        <ele>1689.17</ele>
        <time>2019-07-31T12:03:35Z</time>
      </trkpt>
      <trkpt lat="44.09001" lon="6.93159">
        <ele>1692.54</ele>
        <time>2019-07-31T12:03:37Z</time>
      </trkpt>
      <trkpt lat="44.08997" lon="6.93167">
        <ele>1696.38</ele>
        <time>2019-07-31T12:03:39Z</time>
      </trkpt>
      <trkpt lat="44.08993" lon="6.93174">
        <ele>1699.27</ele>
        <time>2019-07-31T12:03:41Z</time>
      </trkpt>
      <trkpt lat="44.08986" lon="6.93185">
        <ele>1704.07</ele>
        <time>2019-07-31T12:03:44Z</time>
      </trkpt>
      <trkpt lat="44.08978" lon="6.93195">
        <ele>1707.44</ele>
        <time>2019-07-31T12:03:47Z</time>
      </trkpt>
      <trkpt lat="44.08969" lon="6.93204">
        <ele>1710.32</ele>
        <time>2019-07-31T12:03:50Z</time>
      </trkpt>
      <trkpt lat="44.08961" lon="6.9321">
        <ele>1713.69</ele>
        <time>2019-07-31T12:03:52Z</time>
      </trkpt>
      <trkpt lat="44.08952" lon="6.93217">
        <ele>1714.65</ele>
        <time>2019-07-31T12:03:54Z</time>
      </trkpt>
      <trkpt lat="44.08935" lon="6.93239">
        <ele>1718.01</ele>
        <time>2019-07-31T12:03:58Z</time>
      </trkpt>
      <trkpt lat="44.08932" lon="6.93243">
        <ele>1718.01</ele>
        <time>2019-07-31T12:03:59Z</time>
      </trkpt>
      <trkpt lat="44.08896" lon="6.93294">
        <ele>1721.38</ele>
        <time>2019-07-31T12:04:08Z</time>
      </trkpt>
      <trkpt lat="44.08886" lon="6.93311">
        <ele>1722.34</ele>
        <time>2019-07-31T12:04:12Z</time>
      </trkpt>
      <trkpt lat="44.08867" lon="6.93339">
        <ele>1725.22</ele>
        <time>2019-07-31T12:04:20Z</time>
      </trkpt>
      <trkpt lat="44.08865" lon="6.93344">
        <ele>1728.11</ele>
        <time>2019-07-31T12:04:26Z</time>
      </trkpt>
      <trkpt lat="44.0887" lon="6.93345">
        <ele>1729.55</ele>
        <time>2019-07-31T12:04:34Z</time>
      </trkpt>
      <trkpt lat="44.0887" lon="6.93345">
        <ele>1730.03</ele>
        <time>2019-07-31T12:04:39Z</time>
      </trkpt>
      <trkpt lat="44.08871" lon="6.93345">
        <ele>1733.39</ele>
        <time>2019-07-31T12:04:42Z</time>
      </trkpt>
      <trkpt lat="44.08871" lon="6.93345">
        <ele>1733.39</ele>
        <time>2019-07-31T12:04:46Z</time>
      </trkpt>
      <trkpt lat="44.08872" lon="6.93345">
        <ele>1735.8</ele>
        <time>2019-07-31T12:04:48Z</time>
      </trkpt>
      <trkpt lat="44.08872" lon="6.93344">
        <ele>1733.88</ele>
        <time>2019-07-31T12:04:51Z</time>
      </trkpt>
      <trkpt lat="44.08876" lon="6.93343">
        <ele>1737.72</ele>
        <time>2019-07-31T12:05:00Z</time>
      </trkpt>
      <trkpt lat="44.08876" lon="6.93343">
        <ele>1737.72</ele>
        <time>2019-07-31T12:05:01Z</time>
      </trkpt>
      <trkpt lat="44.08879" lon="6.9334">
        <ele>1741.08</ele>
        <time>2019-07-31T12:05:22Z</time>
      </trkpt>
      <trkpt lat="44.08884" lon="6.93346">
        <ele>1744.45</ele>
        <time>2019-07-31T12:05:35Z</time>
      </trkpt>
      <trkpt lat="44.08884" lon="6.93346">
        <ele>1745.89</ele>
        <time>2019-07-31T12:05:37Z</time>
      </trkpt>
      <trkpt lat="44.08883" lon="6.93346">
        <ele>1743.97</ele>
        <time>2019-07-31T12:05:45Z</time>
      </trkpt>
      <trkpt lat="44.08869" lon="6.93346">
        <ele>1746.85</ele>
        <time>2019-07-31T12:05:49Z</time>
      </trkpt>
      <trkpt lat="44.08864" lon="6.93345">
        <ele>1747.33</ele>
        <time>2019-07-31T12:05:50Z</time>
      </trkpt>
      <trkpt lat="44.08859" lon="6.93343">
        <ele>1747.33</ele>
        <time>2019-07-31T12:05:51Z</time>
      </trkpt>
      <trkpt lat="44.08832" lon="6.93327">
        <ele>1747.81</ele>
        <time>2019-07-31T12:05:55Z</time>
      </trkpt>
      <trkpt lat="44.08826" lon="6.93322">
        <ele>1748.29</ele>
        <time>2019-07-31T12:05:56Z</time>
      </trkpt>
      <trkpt lat="44.088" lon="6.9329">
        <ele>1748.29</ele>
        <time>2019-07-31T12:06:01Z</time>
      </trkpt>
      <trkpt lat="44.0875" lon="6.93199">
        <ele>1748.29</ele>
        <time>2019-07-31T12:06:15Z</time>
      </trkpt>
      <trkpt lat="44.08738" lon="6.93177">
        <ele>1746.37</ele>
        <time>2019-07-31T12:06:22Z</time>
      </trkpt>
      <trkpt lat="44.08734" lon="6.9317">
        <ele>1747.81</ele>
        <time>2019-07-31T12:06:26Z</time>
      </trkpt>
      <trkpt lat="44.08731" lon="6.93167">
        <ele>1745.89</ele>
        <time>2019-07-31T12:06:35Z</time>
      </trkpt>
      <trkpt lat="44.08729" lon="6.93169">
        <ele>1747.33</ele>
        <time>2019-07-31T12:06:59Z</time>
      </trkpt>
      <trkpt lat="44.0873" lon="6.93165">
        <ele>1745.89</ele>
        <time>2019-07-31T12:07:18Z</time>
      </trkpt>
      <trkpt lat="44.0873" lon="6.93164">
        <ele>1745.89</ele>
        <time>2019-07-31T12:07:19Z</time>
      </trkpt>
      <trkpt lat="44.08729" lon="6.93162">
        <ele>1745.41</ele>
        <time>2019-07-31T12:07:20Z</time>
      </trkpt>
      <trkpt lat="44.08729" lon="6.9316">
        <ele>1747.33</ele>
        <time>2019-07-31T12:07:21Z</time>
      </trkpt>
      <trkpt lat="44.08727" lon="6.93158">
        <ele>1747.33</ele>
        <time>2019-07-31T12:07:22Z</time>
      </trkpt>
      <trkpt lat="44.08726" lon="6.93155">
        <ele>1747.33</ele>
        <time>2019-07-31T12:07:23Z</time>
      </trkpt>
      <trkpt lat="44.08724" lon="6.93152">
        <ele>1747.33</ele>
        <time>2019-07-31T12:07:24Z</time>
      </trkpt>
      <trkpt lat="44.08722" lon="6.93148">
        <ele>1747.33</ele>
        <time>2019-07-31T12:07:25Z</time>
      </trkpt>
      <trkpt lat="44.0872" lon="6.93143">
        <ele>1747.33</ele>
        <time>2019-07-31T12:07:26Z</time>
      </trkpt>
      <trkpt lat="44.0871" lon="6.93122">
        <ele>1747.33</ele>
        <time>2019-07-31T12:07:30Z</time>
      </trkpt>
      <trkpt lat="44.08708" lon="6.93116">
        <ele>1747.81</ele>
        <time>2019-07-31T12:07:31Z</time>
      </trkpt>
      <trkpt lat="44.08705" lon="6.9311">
        <ele>1747.81</ele>
        <time>2019-07-31T12:07:32Z</time>
      </trkpt>
      <trkpt lat="44.08703" lon="6.93103">
        <ele>1747.81</ele>
        <time>2019-07-31T12:07:33Z</time>
      </trkpt>
      <trkpt lat="44.087" lon="6.93096">
        <ele>1747.81</ele>
        <time>2019-07-31T12:07:34Z</time>
      </trkpt>
      <trkpt lat="44.08697" lon="6.93089">
        <ele>1748.29</ele>
        <time>2019-07-31T12:07:35Z</time>
      </trkpt>
      <trkpt lat="44.0865" lon="6.92991">
        <ele>1749.26</ele>
        <time>2019-07-31T12:07:49Z</time>
      </trkpt>
      <trkpt lat="44.08594" lon="6.9289">
        <ele>1749.74</ele>
        <time>2019-07-31T12:08:05Z</time>
      </trkpt>
      <trkpt lat="44.08562" lon="6.92787">
        <ele>1749.74</ele>
        <time>2019-07-31T12:08:20Z</time>
      </trkpt>
      <trkpt lat="44.08568" lon="6.92689">
        <ele>1751.66</ele>
        <time>2019-07-31T12:08:35Z</time>
      </trkpt>
      <trkpt lat="44.08566" lon="6.92673">
        <ele>1751.66</ele>
        <time>2019-07-31T12:08:38Z</time>
      </trkpt>
      <trkpt lat="44.08562" lon="6.92669">
        <ele>1751.66</ele>
        <time>2019-07-31T12:08:39Z</time>
      </trkpt>
      <trkpt lat="44.08559" lon="6.92666">
        <ele>1751.66</ele>
        <time>2019-07-31T12:08:40Z</time>
      </trkpt>
      <trkpt lat="44.08555" lon="6.92666">
        <ele>1750.22</ele>
        <time>2019-07-31T12:08:41Z</time>
      </trkpt>
      <trkpt lat="44.08551" lon="6.92667">
        <ele>1750.22</ele>
        <time>2019-07-31T12:08:42Z</time>
      </trkpt>
      <trkpt lat="44.08546" lon="6.92669">
        <ele>1750.22</ele>
        <time>2019-07-31T12:08:43Z</time>
      </trkpt>
      <trkpt lat="44.08542" lon="6.92673">
        <ele>1752.14</ele>
        <time>2019-07-31T12:08:44Z</time>
      </trkpt>
      <trkpt lat="44.08538" lon="6.92679">
        <ele>1752.14</ele>
        <time>2019-07-31T12:08:45Z</time>
      </trkpt>
      <trkpt lat="44.08534" lon="6.92685">
        <ele>1752.62</ele>
        <time>2019-07-31T12:08:46Z</time>
      </trkpt>
      <trkpt lat="44.08532" lon="6.92693">
        <ele>1753.1</ele>
        <time>2019-07-31T12:08:47Z</time>
      </trkpt>
      <trkpt lat="44.08529" lon="6.927">
        <ele>1753.1</ele>
        <time>2019-07-31T12:08:48Z</time>
      </trkpt>
      <trkpt lat="44.08527" lon="6.92708">
        <ele>1753.1</ele>
        <time>2019-07-31T12:08:49Z</time>
      </trkpt>
      <trkpt lat="44.08513" lon="6.92764">
        <ele>1750.7</ele>
        <time>2019-07-31T12:08:57Z</time>
      </trkpt>
      <trkpt lat="44.08503" lon="6.92839">
        <ele>1752.62</ele>
        <time>2019-07-31T12:09:10Z</time>
      </trkpt>
      <trkpt lat="44.085" lon="6.92869">
        <ele>1753.1</ele>
        <time>2019-07-31T12:09:14Z</time>
      </trkpt>
      <trkpt lat="44.08498" lon="6.92947">
        <ele>1753.1</ele>
        <time>2019-07-31T12:09:23Z</time>
      </trkpt>
      <trkpt lat="44.08487" lon="6.93056">
        <ele>1751.66</ele>
        <time>2019-07-31T12:09:34Z</time>
      </trkpt>
      <trkpt lat="44.08485" lon="6.93066">
        <ele>1751.66</ele>
        <time>2019-07-31T12:09:35Z</time>
      </trkpt>
      <trkpt lat="44.08465" lon="6.93167">
        <ele>1754.06</ele>
        <time>2019-07-31T12:09:47Z</time>
      </trkpt>
      <trkpt lat="44.08457" lon="6.93251">
        <ele>1756.95</ele>
        <time>2019-07-31T12:09:57Z</time>
      </trkpt>
      <trkpt lat="44.08457" lon="6.93268">
        <ele>1757.91</ele>
        <time>2019-07-31T12:09:59Z</time>
      </trkpt>
      <trkpt lat="44.08455" lon="6.93283">
        <ele>1758.87</ele>
        <time>2019-07-31T12:10:01Z</time>
      </trkpt>
      <trkpt lat="44.08455" lon="6.93291">
        <ele>1758.87</ele>
        <time>2019-07-31T12:10:02Z</time>
      </trkpt>
      <trkpt lat="44.0845" lon="6.9333">
        <ele>1760.31</ele>
        <time>2019-07-31T12:10:07Z</time>
      </trkpt>
      <trkpt lat="44.0843" lon="6.93395">
        <ele>1761.27</ele>
        <time>2019-07-31T12:10:16Z</time>
      </trkpt>
      <trkpt lat="44.08406" lon="6.93448">
        <ele>1759.83</ele>
        <time>2019-07-31T12:10:23Z</time>
      </trkpt>
      <trkpt lat="44.0839" lon="6.93483">
        <ele>1757.91</ele>
        <time>2019-07-31T12:10:27Z</time>
      </trkpt>
      <trkpt lat="44.08386" lon="6.93491">
        <ele>1757.91</ele>
        <time>2019-07-31T12:10:28Z</time>
      </trkpt>
      <trkpt lat="44.08381" lon="6.93498">
        <ele>1757.43</ele>
        <time>2019-07-31T12:10:29Z</time>
      </trkpt>
      <trkpt lat="44.08375" lon="6.93505">
        <ele>1756.95</ele>
        <time>2019-07-31T12:10:30Z</time>
      </trkpt>
      <trkpt lat="44.0837" lon="6.9351">
        <ele>1757.43</ele>
        <time>2019-07-31T12:10:31Z</time>
      </trkpt>
      <trkpt lat="44.08328" lon="6.93539">
        <ele>1758.39</ele>
        <time>2019-07-31T12:10:42Z</time>
      </trkpt>
      <trkpt lat="44.08312" lon="6.93535">
        <ele>1759.83</ele>
        <time>2019-07-31T12:10:54Z</time>
      </trkpt>
      <trkpt lat="44.08312" lon="6.93537">
        <ele>1759.83</ele>
        <time>2019-07-31T12:11:21Z</time>
      </trkpt>
      <trkpt lat="44.08299" lon="6.93525">
        <ele>1761.27</ele>
        <time>2019-07-31T12:11:39Z</time>
      </trkpt>
      <trkpt lat="44.08274" lon="6.93499">
        <ele>1764.64</ele>
        <time>2019-07-31T12:11:51Z</time>
      </trkpt>
      <trkpt lat="44.08241" lon="6.93492">
        <ele>1768</ele>
        <time>2019-07-31T12:12:04Z</time>
      </trkpt>
      <trkpt lat="44.08207" lon="6.9351">
        <ele>1771.37</ele>
        <time>2019-07-31T12:12:12Z</time>
      </trkpt>
      <trkpt lat="44.08202" lon="6.93512">
        <ele>1771.37</ele>
        <time>2019-07-31T12:12:13Z</time>
      </trkpt>
      <trkpt lat="44.08161" lon="6.93528">
        <ele>1774.73</ele>
        <time>2019-07-31T12:12:21Z</time>
      </trkpt>
      <trkpt lat="44.08157" lon="6.9353">
        <ele>1774.73</ele>
        <time>2019-07-31T12:12:22Z</time>
      </trkpt>
      <trkpt lat="44.08128" lon="6.93549">
        <ele>1777.61</ele>
        <time>2019-07-31T12:12:28Z</time>
      </trkpt>
      <trkpt lat="44.0809" lon="6.93576">
        <ele>1781.46</ele>
        <time>2019-07-31T12:12:36Z</time>
      </trkpt>
      <trkpt lat="44.08043" lon="6.93601">
        <ele>1784.82</ele>
        <time>2019-07-31T12:12:50Z</time>
      </trkpt>
      <trkpt lat="44.08021" lon="6.93606">
        <ele>1785.31</ele>
        <time>2019-07-31T12:13:00Z</time>
      </trkpt>
      <trkpt lat="44.08021" lon="6.93605">
        <ele>1785.79</ele>
        <time>2019-07-31T12:13:15Z</time>
      </trkpt>
      <trkpt lat="44.08025" lon="6.93605">
        <ele>1784.34</ele>
        <time>2019-07-31T12:13:24Z</time>
      </trkpt>
      <trkpt lat="44.08025" lon="6.93603">
        <ele>1784.34</ele>
        <time>2019-07-31T12:13:28Z</time>
      </trkpt>
      <trkpt lat="44.08025" lon="6.93601">
        <ele>1783.86</ele>
        <time>2019-07-31T12:13:29Z</time>
      </trkpt>
      <trkpt lat="44.08025" lon="6.93598">
        <ele>1783.86</ele>
        <time>2019-07-31T12:13:30Z</time>
      </trkpt>
      <trkpt lat="44.08024" lon="6.93595">
        <ele>1783.86</ele>
        <time>2019-07-31T12:13:31Z</time>
      </trkpt>
      <trkpt lat="44.08022" lon="6.93592">
        <ele>1783.86</ele>
        <time>2019-07-31T12:13:32Z</time>
      </trkpt>
      <trkpt lat="44.08019" lon="6.93589">
        <ele>1783.86</ele>
        <time>2019-07-31T12:13:33Z</time>
      </trkpt>
      <trkpt lat="44.08011" lon="6.93576">
        <ele>1785.31</ele>
        <time>2019-07-31T12:13:37Z</time>
      </trkpt>
      <trkpt lat="44.08006" lon="6.93561">
        <ele>1785.79</ele>
        <time>2019-07-31T12:13:40Z</time>
      </trkpt>
      <trkpt lat="44.07999" lon="6.93551">
        <ele>1786.27</ele>
        <time>2019-07-31T12:13:42Z</time>
      </trkpt>
      <trkpt lat="44.07995" lon="6.93545">
        <ele>1786.27</ele>
        <time>2019-07-31T12:13:43Z</time>
      </trkpt>
      <trkpt lat="44.0799" lon="6.93541">
        <ele>1786.27</ele>
        <time>2019-07-31T12:13:44Z</time>
      </trkpt>
      <trkpt lat="44.07985" lon="6.93536">
        <ele>1786.27</ele>
        <time>2019-07-31T12:13:45Z</time>
      </trkpt>
      <trkpt lat="44.07979" lon="6.93532">
        <ele>1786.27</ele>
        <time>2019-07-31T12:13:46Z</time>
      </trkpt>
      <trkpt lat="44.07973" lon="6.93529">
        <ele>1786.27</ele>
        <time>2019-07-31T12:13:47Z</time>
      </trkpt>
      <trkpt lat="44.07967" lon="6.93526">
        <ele>1786.27</ele>
        <time>2019-07-31T12:13:48Z</time>
      </trkpt>
      <trkpt lat="44.07951" lon="6.93519">
        <ele>1786.27</ele>
        <time>2019-07-31T12:13:51Z</time>
      </trkpt>
      <trkpt lat="44.07946" lon="6.93518">
        <ele>1786.75</ele>
        <time>2019-07-31T12:13:52Z</time>
      </trkpt>
      <trkpt lat="44.07928" lon="6.93517">
        <ele>1788.19</ele>
        <time>2019-07-31T12:13:55Z</time>
      </trkpt>
      <trkpt lat="44.07922" lon="6.93517">
        <ele>1788.19</ele>
        <time>2019-07-31T12:13:56Z</time>
      </trkpt>
      <trkpt lat="44.07906" lon="6.9352">
        <ele>1791.07</ele>
        <time>2019-07-31T12:13:59Z</time>
      </trkpt>
      <trkpt lat="44.07902" lon="6.93522">
        <ele>1792.03</ele>
        <time>2019-07-31T12:14:00Z</time>
      </trkpt>
      <trkpt lat="44.07883" lon="6.9353">
        <ele>1794.92</ele>
        <time>2019-07-31T12:14:04Z</time>
      </trkpt>
      <trkpt lat="44.07865" lon="6.93537">
        <ele>1798.76</ele>
        <time>2019-07-31T12:14:08Z</time>
      </trkpt>
      <trkpt lat="44.0786" lon="6.93539">
        <ele>1798.76</ele>
        <time>2019-07-31T12:14:09Z</time>
      </trkpt>
      <trkpt lat="44.07849" lon="6.93543">
        <ele>1800.69</ele>
        <time>2019-07-31T12:14:12Z</time>
      </trkpt>
      <trkpt lat="44.07825" lon="6.93545">
        <ele>1803.57</ele>
        <time>2019-07-31T12:14:20Z</time>
      </trkpt>
      <trkpt lat="44.07787" lon="6.93559">
        <ele>1807.42</ele>
        <time>2019-07-31T12:14:33Z</time>
      </trkpt>
      <trkpt lat="44.07759" lon="6.93573">
        <ele>1809.34</ele>
        <time>2019-07-31T12:14:43Z</time>
      </trkpt>
      <trkpt lat="44.07719" lon="6.93615">
        <ele>1812.22</ele>
        <time>2019-07-31T12:14:59Z</time>
      </trkpt>
      <trkpt lat="44.07671" lon="6.93636">
        <ele>1815.11</ele>
        <time>2019-07-31T12:15:16Z</time>
      </trkpt>
      <trkpt lat="44.07606" lon="6.93653">
        <ele>1816.55</ele>
        <time>2019-07-31T12:15:37Z</time>
      </trkpt>
      <trkpt lat="44.07572" lon="6.93672">
        <ele>1817.03</ele>
        <time>2019-07-31T12:15:48Z</time>
      </trkpt>
      <trkpt lat="44.07517" lon="6.93692">
        <ele>1817.03</ele>
        <time>2019-07-31T12:16:01Z</time>
      </trkpt>
      <trkpt lat="44.07512" lon="6.93694">
        <ele>1817.03</ele>
        <time>2019-07-31T12:16:02Z</time>
      </trkpt>
      <trkpt lat="44.07507" lon="6.93695">
        <ele>1817.99</ele>
        <time>2019-07-31T12:16:03Z</time>
      </trkpt>
      <trkpt lat="44.07494" lon="6.93695">
        <ele>1817.99</ele>
        <time>2019-07-31T12:16:06Z</time>
      </trkpt>
      <trkpt lat="44.07485" lon="6.93696">
        <ele>1818.47</ele>
        <time>2019-07-31T12:16:08Z</time>
      </trkpt>
      <trkpt lat="44.07476" lon="6.93697">
        <ele>1818.47</ele>
        <time>2019-07-31T12:16:10Z</time>
      </trkpt>
      <trkpt lat="44.07471" lon="6.93696">
        <ele>1818.95</ele>
        <time>2019-07-31T12:16:11Z</time>
      </trkpt>
      <trkpt lat="44.07466" lon="6.93695">
        <ele>1818.95</ele>
        <time>2019-07-31T12:16:12Z</time>
      </trkpt>
      <trkpt lat="44.07416" lon="6.93687">
        <ele>1820.87</ele>
        <time>2019-07-31T12:16:24Z</time>
      </trkpt>
      <trkpt lat="44.07377" lon="6.93671">
        <ele>1824.24</ele>
        <time>2019-07-31T12:16:36Z</time>
      </trkpt>
      <trkpt lat="44.07371" lon="6.93667">
        <ele>1824.72</ele>
        <time>2019-07-31T12:16:38Z</time>
      </trkpt>
      <trkpt lat="44.0735" lon="6.93651">
        <ele>1828.08</ele>
        <time>2019-07-31T12:16:46Z</time>
      </trkpt>
      <trkpt lat="44.07328" lon="6.9363">
        <ele>1831.45</ele>
        <time>2019-07-31T12:16:54Z</time>
      </trkpt>
      <trkpt lat="44.07322" lon="6.93623">
        <ele>1832.41</ele>
        <time>2019-07-31T12:16:56Z</time>
      </trkpt>
      <trkpt lat="44.07319" lon="6.93619">
        <ele>1832.41</ele>
        <time>2019-07-31T12:16:57Z</time>
      </trkpt>
      <trkpt lat="44.07309" lon="6.93605">
        <ele>1834.33</ele>
        <time>2019-07-31T12:17:00Z</time>
      </trkpt>
      <trkpt lat="44.07288" lon="6.93577">
        <ele>1837.22</ele>
        <time>2019-07-31T12:17:07Z</time>
      </trkpt>
      <trkpt lat="44.07265" lon="6.9353">
        <ele>1841.06</ele>
        <time>2019-07-31T12:17:20Z</time>
      </trkpt>
      <trkpt lat="44.07261" lon="6.9351">
        <ele>1842.5</ele>
        <time>2019-07-31T12:17:25Z</time>
      </trkpt>
      <trkpt lat="44.07252" lon="6.93482">
        <ele>1845.39</ele>
        <time>2019-07-31T12:17:33Z</time>
      </trkpt>
      <trkpt lat="44.07248" lon="6.93472">
        <ele>1846.35</ele>
        <time>2019-07-31T12:17:35Z</time>
      </trkpt>
      <trkpt lat="44.07239" lon="6.93452">
        <ele>1848.27</ele>
        <time>2019-07-31T12:17:39Z</time>
      </trkpt>
      <trkpt lat="44.07236" lon="6.93448">
        <ele>1848.27</ele>
        <time>2019-07-31T12:17:40Z</time>
      </trkpt>
      <trkpt lat="44.07219" lon="6.93424">
        <ele>1850.68</ele>
        <time>2019-07-31T12:17:45Z</time>
      </trkpt>
      <trkpt lat="44.07207" lon="6.93407">
        <ele>1853.56</ele>
        <time>2019-07-31T12:17:49Z</time>
      </trkpt>
      <trkpt lat="44.07188" lon="6.9338">
        <ele>1856.44</ele>
        <time>2019-07-31T12:17:55Z</time>
      </trkpt>
      <trkpt lat="44.07168" lon="6.93352">
        <ele>1857.4</ele>
        <time>2019-07-31T12:18:07Z</time>
      </trkpt>
      <trkpt lat="44.07163" lon="6.93351">
        <ele>1858.37</ele>
        <time>2019-07-31T12:18:11Z</time>
      </trkpt>
      <trkpt lat="44.07162" lon="6.9335">
        <ele>1858.37</ele>
        <time>2019-07-31T12:18:12Z</time>
      </trkpt>
      <trkpt lat="44.07159" lon="6.93346">
        <ele>1858.37</ele>
        <time>2019-07-31T12:18:27Z</time>
      </trkpt>
      <trkpt lat="44.07159" lon="6.93347">
        <ele>1858.37</ele>
        <time>2019-07-31T12:18:54Z</time>
      </trkpt>
      <trkpt lat="44.07158" lon="6.93347">
        <ele>1858.37</ele>
        <time>2019-07-31T12:19:18Z</time>
      </trkpt>
      <trkpt lat="44.07157" lon="6.93345">
        <ele>1858.37</ele>
        <time>2019-07-31T12:19:33Z</time>
      </trkpt>
      <trkpt lat="44.07158" lon="6.93348">
        <ele>1856.92</ele>
        <time>2019-07-31T12:19:45Z</time>
      </trkpt>
      <trkpt lat="44.07157" lon="6.93348">
        <ele>1857.89</ele>
        <time>2019-07-31T12:20:02Z</time>
      </trkpt>
      <trkpt lat="44.07159" lon="6.93348">
        <ele>1857.89</ele>
        <time>2019-07-31T12:20:14Z</time>
      </trkpt>
      <trkpt lat="44.07158" lon="6.93349">
        <ele>1856.44</ele>
        <time>2019-07-31T12:20:16Z</time>
      </trkpt>
      <trkpt lat="44.07158" lon="6.93349">
        <ele>1857.89</ele>
        <time>2019-07-31T12:20:20Z</time>
      </trkpt>
      <trkpt lat="44.07159" lon="6.93347">
        <ele>1858.85</ele>
        <time>2019-07-31T12:20:35Z</time>
      </trkpt>
      <trkpt lat="44.07158" lon="6.93348">
        <ele>1858.85</ele>
        <time>2019-07-31T12:20:48Z</time>
      </trkpt>
      <trkpt lat="44.07158" lon="6.9335">
        <ele>1859.81</ele>
        <time>2019-07-31T12:20:53Z</time>
      </trkpt>
      <trkpt lat="44.07157" lon="6.9335">
        <ele>1857.89</ele>
        <time>2019-07-31T12:20:55Z</time>
      </trkpt>
      <trkpt lat="44.07157" lon="6.9335">
        <ele>1856.92</ele>
        <time>2019-07-31T12:20:57Z</time>
      </trkpt>
      <trkpt lat="44.07155" lon="6.93352">
        <ele>1856.92</ele>
        <time>2019-07-31T12:21:46Z</time>
      </trkpt>
      <trkpt lat="44.07158" lon="6.93351">
        <ele>1857.4</ele>
        <time>2019-07-31T12:22:35Z</time>
      </trkpt>
      <trkpt lat="44.07156" lon="6.93352">
        <ele>1857.4</ele>
        <time>2019-07-31T12:23:15Z</time>
      </trkpt>
      <trkpt lat="44.07157" lon="6.93352">
        <ele>1857.4</ele>
        <time>2019-07-31T12:24:12Z</time>
      </trkpt>
      <trkpt lat="44.07158" lon="6.9335">
        <ele>1858.85</ele>
        <time>2019-07-31T12:25:00Z</time>
      </trkpt>
      <trkpt lat="44.0716" lon="6.93351">
        <ele>1859.33</ele>
        <time>2019-07-31T12:25:02Z</time>
      </trkpt>
      <trkpt lat="44.07159" lon="6.93354">
        <ele>1855.96</ele>
        <time>2019-07-31T12:25:08Z</time>
      </trkpt>
      <trkpt lat="44.0716" lon="6.93354">
        <ele>1862.69</ele>
        <time>2019-07-31T12:25:09Z</time>
      </trkpt>
      <trkpt lat="44.0716" lon="6.93354">
        <ele>1862.69</ele>
        <time>2019-07-31T12:25:10Z</time>
      </trkpt>
      <trkpt lat="44.0716" lon="6.93352">
        <ele>1859.33</ele>
        <time>2019-07-31T12:25:13Z</time>
      </trkpt>
      <trkpt lat="44.07159" lon="6.93351">
        <ele>1859.33</ele>
        <time>2019-07-31T12:25:14Z</time>
      </trkpt>
      <trkpt lat="44.07159" lon="6.93349">
        <ele>1860.77</ele>
        <time>2019-07-31T12:25:24Z</time>
      </trkpt>
      <trkpt lat="44.0716" lon="6.93348">
        <ele>1860.77</ele>
        <time>2019-07-31T12:25:42Z</time>
      </trkpt>
      <trkpt lat="44.0716" lon="6.9335">
        <ele>1859.81</ele>
        <time>2019-07-31T12:25:48Z</time>
      </trkpt>
      <trkpt lat="44.07159" lon="6.93349">
        <ele>1859.81</ele>
        <time>2019-07-31T12:26:00Z</time>
      </trkpt>
      <trkpt lat="44.07151" lon="6.93328">
        <ele>1859.81</ele>
        <time>2019-07-31T12:26:11Z</time>
      </trkpt>
      <trkpt lat="44.07142" lon="6.93316">
        <ele>1861.25</ele>
        <time>2019-07-31T12:26:18Z</time>
      </trkpt>
      <trkpt lat="44.07141" lon="6.93316">
        <ele>1860.29</ele>
        <time>2019-07-31T12:26:21Z</time>
      </trkpt>
      <trkpt lat="44.07143" lon="6.93315">
        <ele>1861.73</ele>
        <time>2019-07-31T12:26:34Z</time>
      </trkpt>
      <trkpt lat="44.07143" lon="6.93315">
        <ele>1860.29</ele>
        <time>2019-07-31T12:26:36Z</time>
      </trkpt>
      <trkpt lat="44.07144" lon="6.93315">
        <ele>1859.81</ele>
        <time>2019-07-31T12:26:57Z</time>
      </trkpt>
      <trkpt lat="44.07143" lon="6.93315">
        <ele>1859.81</ele>
        <time>2019-07-31T12:27:10Z</time>
      </trkpt>
      <trkpt lat="44.07143" lon="6.93315">
        <ele>1860.77</ele>
        <time>2019-07-31T12:27:25Z</time>
      </trkpt>
      <trkpt lat="44.07142" lon="6.93315">
        <ele>1861.25</ele>
        <time>2019-07-31T12:27:45Z</time>
      </trkpt>
      <trkpt lat="44.07142" lon="6.93315">
        <ele>1860.29</ele>
        <time>2019-07-31T12:27:48Z</time>
      </trkpt>
      <trkpt lat="44.07142" lon="6.93318">
        <ele>1861.25</ele>
        <time>2019-07-31T12:28:03Z</time>
      </trkpt>
      <trkpt lat="44.07143" lon="6.93315">
        <ele>1860.29</ele>
        <time>2019-07-31T12:28:12Z</time>
      </trkpt>
      <trkpt lat="44.07143" lon="6.93315">
        <ele>1861.73</ele>
        <time>2019-07-31T12:28:17Z</time>
      </trkpt>
      <trkpt lat="44.07143" lon="6.93316">
        <ele>1859.81</ele>
        <time>2019-07-31T12:28:29Z</time>
      </trkpt>
      <trkpt lat="44.07143" lon="6.93316">
        <ele>1861.73</ele>
        <time>2019-07-31T12:28:31Z</time>
      </trkpt>
      <trkpt lat="44.07143" lon="6.93316">
        <ele>1861.73</ele>
        <time>2019-07-31T12:28:48Z</time>
      </trkpt>
      <trkpt lat="44.07143" lon="6.93315">
        <ele>1860.29</ele>
        <time>2019-07-31T12:29:02Z</time>
      </trkpt>
      <trkpt lat="44.07143" lon="6.93316">
        <ele>1862.21</ele>
        <time>2019-07-31T12:29:12Z</time>
      </trkpt>
      <trkpt lat="44.07141" lon="6.93316">
        <ele>1860.77</ele>
        <time>2019-07-31T12:29:33Z</time>
      </trkpt>
      <trkpt lat="44.07141" lon="6.93315">
        <ele>1860.77</ele>
        <time>2019-07-31T12:29:38Z</time>
      </trkpt>
      <trkpt lat="44.07137" lon="6.9331">
        <ele>1860.77</ele>
        <time>2019-07-31T12:29:44Z</time>
      </trkpt>
      <trkpt lat="44.0714" lon="6.933">
        <ele>1860.77</ele>
        <time>2019-07-31T12:29:56Z</time>
      </trkpt>
      <trkpt lat="44.07142" lon="6.93296">
        <ele>1862.21</ele>
        <time>2019-07-31T12:30:05Z</time>
      </trkpt>
      <trkpt lat="44.07142" lon="6.93296">
        <ele>1860.77</ele>
        <time>2019-07-31T12:30:08Z</time>
      </trkpt>
      <trkpt lat="44.07143" lon="6.93296">
        <ele>1861.73</ele>
        <time>2019-07-31T12:30:22Z</time>
      </trkpt>
      <trkpt lat="44.0714" lon="6.93295">
        <ele>1861.73</ele>
        <time>2019-07-31T12:30:42Z</time>
      </trkpt>
      <trkpt lat="44.07142" lon="6.93295">
        <ele>1861.73</ele>
        <time>2019-07-31T12:31:21Z</time>
      </trkpt>
      <trkpt lat="44.07145" lon="6.93301">
        <ele>1862.21</ele>
        <time>2019-07-31T12:31:52Z</time>
      </trkpt>
      <trkpt lat="44.07145" lon="6.93304">
        <ele>1860.29</ele>
        <time>2019-07-31T12:31:55Z</time>
      </trkpt>
      <trkpt lat="44.07145" lon="6.93305">
        <ele>1862.69</ele>
        <time>2019-07-31T12:31:56Z</time>
      </trkpt>
      <trkpt lat="44.07135" lon="6.93312">
        <ele>1862.69</ele>
        <time>2019-07-31T12:32:10Z</time>
      </trkpt>
      <trkpt lat="44.07126" lon="6.93316">
        <ele>1863.17</ele>
        <time>2019-07-31T12:32:27Z</time>
      </trkpt>
      <trkpt lat="44.07124" lon="6.93317">
        <ele>1863.17</ele>
        <time>2019-07-31T12:32:55Z</time>
      </trkpt>
      <trkpt lat="44.07125" lon="6.93316">
        <ele>1863.17</ele>
        <time>2019-07-31T12:33:00Z</time>
      </trkpt>
      <trkpt lat="44.07117" lon="6.93315">
        <ele>1863.17</ele>
        <time>2019-07-31T12:33:04Z</time>
      </trkpt>
      <trkpt lat="44.07085" lon="6.93338">
        <ele>1866.06</ele>
        <time>2019-07-31T12:33:15Z</time>
      </trkpt>
      <trkpt lat="44.07064" lon="6.93367">
        <ele>1869.42</ele>
        <time>2019-07-31T12:33:23Z</time>
      </trkpt>
      <trkpt lat="44.07038" lon="6.93406">
        <ele>1872.79</ele>
        <time>2019-07-31T12:33:31Z</time>
      </trkpt>
      <trkpt lat="44.07014" lon="6.93433">
        <ele>1875.19</ele>
        <time>2019-07-31T12:33:36Z</time>
      </trkpt>
      <trkpt lat="44.0701" lon="6.93439">
        <ele>1876.63</ele>
        <time>2019-07-31T12:33:37Z</time>
      </trkpt>
      <trkpt lat="44.07006" lon="6.93445">
        <ele>1877.11</ele>
        <time>2019-07-31T12:33:38Z</time>
      </trkpt>
      <trkpt lat="44.06995" lon="6.93463">
        <ele>1878.55</ele>
        <time>2019-07-31T12:33:41Z</time>
      </trkpt>
      <trkpt lat="44.06991" lon="6.93466">
        <ele>1878.55</ele>
        <time>2019-07-31T12:33:42Z</time>
      </trkpt>
      <trkpt lat="44.06983" lon="6.93473">
        <ele>1878.55</ele>
        <time>2019-07-31T12:33:44Z</time>
      </trkpt>
      <trkpt lat="44.06976" lon="6.9348">
        <ele>1878.55</ele>
        <time>2019-07-31T12:33:46Z</time>
      </trkpt>
      <trkpt lat="44.06973" lon="6.93482">
        <ele>1878.55</ele>
        <time>2019-07-31T12:33:47Z</time>
      </trkpt>
      <trkpt lat="44.06934" lon="6.93494">
        <ele>1880.48</ele>
        <time>2019-07-31T12:34:01Z</time>
      </trkpt>
      <trkpt lat="44.06901" lon="6.93493">
        <ele>1880.96</ele>
        <time>2019-07-31T12:34:11Z</time>
      </trkpt>
      <trkpt lat="44.06897" lon="6.93491">
        <ele>1880.96</ele>
        <time>2019-07-31T12:34:12Z</time>
      </trkpt>
      <trkpt lat="44.06893" lon="6.93489">
        <ele>1879.51</ele>
        <time>2019-07-31T12:34:13Z</time>
      </trkpt>
      <trkpt lat="44.06889" lon="6.93487">
        <ele>1879.51</ele>
        <time>2019-07-31T12:34:14Z</time>
      </trkpt>
      <trkpt lat="44.06884" lon="6.93485">
        <ele>1879.51</ele>
        <time>2019-07-31T12:34:15Z</time>
      </trkpt>
      <trkpt lat="44.0688" lon="6.93483">
        <ele>1879.51</ele>
        <time>2019-07-31T12:34:16Z</time>
      </trkpt>
      <trkpt lat="44.06871" lon="6.93479">
        <ele>1879.03</ele>
        <time>2019-07-31T12:34:18Z</time>
      </trkpt>
      <trkpt lat="44.06862" lon="6.93476">
        <ele>1879.03</ele>
        <time>2019-07-31T12:34:20Z</time>
      </trkpt>
      <trkpt lat="44.06858" lon="6.93474">
        <ele>1879.03</ele>
        <time>2019-07-31T12:34:21Z</time>
      </trkpt>
      <trkpt lat="44.06854" lon="6.93473">
        <ele>1879.03</ele>
        <time>2019-07-31T12:34:22Z</time>
      </trkpt>
      <trkpt lat="44.06849" lon="6.93473">
        <ele>1878.55</ele>
        <time>2019-07-31T12:34:23Z</time>
      </trkpt>
      <trkpt lat="44.06843" lon="6.93472">
        <ele>1878.55</ele>
        <time>2019-07-31T12:34:24Z</time>
      </trkpt>
      <trkpt lat="44.06837" lon="6.9347">
        <ele>1878.55</ele>
        <time>2019-07-31T12:34:25Z</time>
      </trkpt>
      <trkpt lat="44.06815" lon="6.93463">
        <ele>1878.55</ele>
        <time>2019-07-31T12:34:28Z</time>
      </trkpt>
      <trkpt lat="44.06776" lon="6.93438">
        <ele>1880</ele>
        <time>2019-07-31T12:34:34Z</time>
      </trkpt>
      <trkpt lat="44.06764" lon="6.93429">
        <ele>1880.48</ele>
        <time>2019-07-31T12:34:37Z</time>
      </trkpt>
      <trkpt lat="44.0676" lon="6.93425">
        <ele>1880.96</ele>
        <time>2019-07-31T12:34:38Z</time>
      </trkpt>
      <trkpt lat="44.06707" lon="6.93354">
        <ele>1880.48</ele>
        <time>2019-07-31T12:34:51Z</time>
      </trkpt>
      <trkpt lat="44.06702" lon="6.93349">
        <ele>1880.48</ele>
        <time>2019-07-31T12:34:52Z</time>
      </trkpt>
      <trkpt lat="44.06697" lon="6.93344">
        <ele>1880.48</ele>
        <time>2019-07-31T12:34:53Z</time>
      </trkpt>
      <trkpt lat="44.06641" lon="6.93295">
        <ele>1880.48</ele>
        <time>2019-07-31T12:35:05Z</time>
      </trkpt>
      <trkpt lat="44.06629" lon="6.93285">
        <ele>1882.4</ele>
        <time>2019-07-31T12:35:08Z</time>
      </trkpt>
      <trkpt lat="44.06625" lon="6.93283">
        <ele>1882.4</ele>
        <time>2019-07-31T12:35:09Z</time>
      </trkpt>
      <trkpt lat="44.06618" lon="6.93278">
        <ele>1883.84</ele>
        <time>2019-07-31T12:35:11Z</time>
      </trkpt>
      <trkpt lat="44.06614" lon="6.93274">
        <ele>1883.84</ele>
        <time>2019-07-31T12:35:12Z</time>
      </trkpt>
      <trkpt lat="44.06612" lon="6.93269">
        <ele>1883.84</ele>
        <time>2019-07-31T12:35:13Z</time>
      </trkpt>
      <trkpt lat="44.06609" lon="6.93265">
        <ele>1884.32</ele>
        <time>2019-07-31T12:35:14Z</time>
      </trkpt>
      <trkpt lat="44.06607" lon="6.9326">
        <ele>1884.8</ele>
        <time>2019-07-31T12:35:15Z</time>
      </trkpt>
      <trkpt lat="44.06605" lon="6.93256">
        <ele>1884.8</ele>
        <time>2019-07-31T12:35:16Z</time>
      </trkpt>
      <trkpt lat="44.0659" lon="6.93215">
        <ele>1887.69</ele>
        <time>2019-07-31T12:35:26Z</time>
      </trkpt>
      <trkpt lat="44.06563" lon="6.93185">
        <ele>1890.09</ele>
        <time>2019-07-31T12:35:35Z</time>
      </trkpt>
      <trkpt lat="44.06536" lon="6.93172">
        <ele>1892.01</ele>
        <time>2019-07-31T12:35:41Z</time>
      </trkpt>
      <trkpt lat="44.06531" lon="6.93171">
        <ele>1892.01</ele>
        <time>2019-07-31T12:35:42Z</time>
      </trkpt>
      <trkpt lat="44.06517" lon="6.9316">
        <ele>1894.42</ele>
        <time>2019-07-31T12:35:50Z</time>
      </trkpt>
      <trkpt lat="44.06522" lon="6.93142">
        <ele>1894.42</ele>
        <time>2019-07-31T12:36:01Z</time>
      </trkpt>
      <trkpt lat="44.06539" lon="6.93099">
        <ele>1893.93</ele>
        <time>2019-07-31T12:36:14Z</time>
      </trkpt>
      <trkpt lat="44.06541" lon="6.93089">
        <ele>1893.93</ele>
        <time>2019-07-31T12:36:34Z</time>
      </trkpt>
      <trkpt lat="44.06539" lon="6.93085">
        <ele>1894.42</ele>
        <time>2019-07-31T12:37:03Z</time>
      </trkpt>
      <trkpt lat="44.06539" lon="6.93088">
        <ele>1893.45</ele>
        <time>2019-07-31T12:37:21Z</time>
      </trkpt>
      <trkpt lat="44.06539" lon="6.93087">
        <ele>1893.45</ele>
        <time>2019-07-31T12:37:35Z</time>
      </trkpt>
      <trkpt lat="44.06541" lon="6.93085">
        <ele>1893.93</ele>
        <time>2019-07-31T12:37:56Z</time>
      </trkpt>
      <trkpt lat="44.06538" lon="6.93092">
        <ele>1894.42</ele>
        <time>2019-07-31T12:38:34Z</time>
      </trkpt>
      <trkpt lat="44.06541" lon="6.93094">
        <ele>1895.38</ele>
        <time>2019-07-31T12:38:53Z</time>
      </trkpt>
      <trkpt lat="44.06538" lon="6.9309">
        <ele>1895.86</ele>
        <time>2019-07-31T12:39:03Z</time>
      </trkpt>
      <trkpt lat="44.06536" lon="6.93093">
        <ele>1895.86</ele>
        <time>2019-07-31T12:39:04Z</time>
      </trkpt>
      <trkpt lat="44.06535" lon="6.93096">
        <ele>1896.82</ele>
        <time>2019-07-31T12:39:05Z</time>
      </trkpt>
      <trkpt lat="44.06534" lon="6.93098">
        <ele>1896.82</ele>
        <time>2019-07-31T12:39:06Z</time>
      </trkpt>
      <trkpt lat="44.06533" lon="6.93101">
        <ele>1896.82</ele>
        <time>2019-07-31T12:39:07Z</time>
      </trkpt>
      <trkpt lat="44.06532" lon="6.93103">
        <ele>1896.82</ele>
        <time>2019-07-31T12:39:08Z</time>
      </trkpt>
      <trkpt lat="44.06531" lon="6.93106">
        <ele>1897.3</ele>
        <time>2019-07-31T12:39:09Z</time>
      </trkpt>
      <trkpt lat="44.06513" lon="6.93137">
        <ele>1900.18</ele>
        <time>2019-07-31T12:39:19Z</time>
      </trkpt>
      <trkpt lat="44.06502" lon="6.93164">
        <ele>1903.07</ele>
        <time>2019-07-31T12:39:25Z</time>
      </trkpt>
      <trkpt lat="44.06503" lon="6.9317">
        <ele>1903.07</ele>
        <time>2019-07-31T12:39:26Z</time>
      </trkpt>
      <trkpt lat="44.06503" lon="6.93176">
        <ele>1903.55</ele>
        <time>2019-07-31T12:39:27Z</time>
      </trkpt>
      <trkpt lat="44.06505" lon="6.93208">
        <ele>1906.91</ele>
        <time>2019-07-31T12:39:32Z</time>
      </trkpt>
      <trkpt lat="44.06505" lon="6.93213">
        <ele>1906.91</ele>
        <time>2019-07-31T12:39:33Z</time>
      </trkpt>
      <trkpt lat="44.06509" lon="6.93229">
        <ele>1907.87</ele>
        <time>2019-07-31T12:39:36Z</time>
      </trkpt>
      <trkpt lat="44.06513" lon="6.93245">
        <ele>1909.8</ele>
        <time>2019-07-31T12:39:39Z</time>
      </trkpt>
      <trkpt lat="44.06513" lon="6.93263">
        <ele>1912.2</ele>
        <time>2019-07-31T12:39:43Z</time>
      </trkpt>
      <trkpt lat="44.06507" lon="6.93295">
        <ele>1915.08</ele>
        <time>2019-07-31T12:39:50Z</time>
      </trkpt>
      <trkpt lat="44.06507" lon="6.93299">
        <ele>1915.08</ele>
        <time>2019-07-31T12:39:51Z</time>
      </trkpt>
      <trkpt lat="44.06503" lon="6.93335">
        <ele>1918.93</ele>
        <time>2019-07-31T12:40:00Z</time>
      </trkpt>
      <trkpt lat="44.06502" lon="6.93372">
        <ele>1922.29</ele>
        <time>2019-07-31T12:40:10Z</time>
      </trkpt>
      <trkpt lat="44.06504" lon="6.93388">
        <ele>1923.74</ele>
        <time>2019-07-31T12:40:15Z</time>
      </trkpt>
      <trkpt lat="44.06514" lon="6.93417">
        <ele>1926.62</ele>
        <time>2019-07-31T12:40:25Z</time>
      </trkpt>
      <trkpt lat="44.06523" lon="6.93453">
        <ele>1930.46</ele>
        <time>2019-07-31T12:40:33Z</time>
      </trkpt>
      <trkpt lat="44.0652" lon="6.93487">
        <ele>1933.83</ele>
        <time>2019-07-31T12:40:41Z</time>
      </trkpt>
      <trkpt lat="44.06517" lon="6.9352">
        <ele>1937.19</ele>
        <time>2019-07-31T12:40:49Z</time>
      </trkpt>
      <trkpt lat="44.06517" lon="6.93524">
        <ele>1937.19</ele>
        <time>2019-07-31T12:40:50Z</time>
      </trkpt>
      <trkpt lat="44.06523" lon="6.93549">
        <ele>1940.56</ele>
        <time>2019-07-31T12:40:56Z</time>
      </trkpt>
      <trkpt lat="44.06529" lon="6.93574">
        <ele>1942.96</ele>
        <time>2019-07-31T12:41:02Z</time>
      </trkpt>
      <trkpt lat="44.06535" lon="6.93602">
        <ele>1945.36</ele>
        <time>2019-07-31T12:41:08Z</time>
      </trkpt>
      <trkpt lat="44.0654" lon="6.93611">
        <ele>1945.85</ele>
        <time>2019-07-31T12:41:10Z</time>
      </trkpt>
      <trkpt lat="44.06556" lon="6.93641">
        <ele>1949.21</ele>
        <time>2019-07-31T12:41:19Z</time>
      </trkpt>
      <trkpt lat="44.06562" lon="6.93661">
        <ele>1951.13</ele>
        <time>2019-07-31T12:41:31Z</time>
      </trkpt>
      <trkpt lat="44.06561" lon="6.9366">
        <ele>1951.13</ele>
        <time>2019-07-31T12:41:46Z</time>
      </trkpt>
      <trkpt lat="44.06561" lon="6.9366">
        <ele>1951.61</ele>
        <time>2019-07-31T12:42:12Z</time>
      </trkpt>
      <trkpt lat="44.06559" lon="6.93661">
        <ele>1951.61</ele>
        <time>2019-07-31T12:42:37Z</time>
      </trkpt>
      <trkpt lat="44.0656" lon="6.93664">
        <ele>1950.17</ele>
        <time>2019-07-31T12:42:38Z</time>
      </trkpt>
      <trkpt lat="44.06563" lon="6.93679">
        <ele>1952.09</ele>
        <time>2019-07-31T12:42:41Z</time>
      </trkpt>
      <trkpt lat="44.06564" lon="6.93685">
        <ele>1953.54</ele>
        <time>2019-07-31T12:42:42Z</time>
      </trkpt>
      <trkpt lat="44.06565" lon="6.93691">
        <ele>1953.54</ele>
        <time>2019-07-31T12:42:43Z</time>
      </trkpt>
      <trkpt lat="44.06565" lon="6.93697">
        <ele>1954.98</ele>
        <time>2019-07-31T12:42:44Z</time>
      </trkpt>
      <trkpt lat="44.06566" lon="6.93703">
        <ele>1954.98</ele>
        <time>2019-07-31T12:42:45Z</time>
      </trkpt>
      <trkpt lat="44.06565" lon="6.93721">
        <ele>1956.42</ele>
        <time>2019-07-31T12:42:48Z</time>
      </trkpt>
      <trkpt lat="44.06562" lon="6.93751">
        <ele>1959.3</ele>
        <time>2019-07-31T12:42:52Z</time>
      </trkpt>
      <trkpt lat="44.0656" lon="6.93775">
        <ele>1960.75</ele>
        <time>2019-07-31T12:42:55Z</time>
      </trkpt>
      <trkpt lat="44.06558" lon="6.93788">
        <ele>1962.19</ele>
        <time>2019-07-31T12:42:57Z</time>
      </trkpt>
      <trkpt lat="44.06557" lon="6.93795">
        <ele>1963.15</ele>
        <time>2019-07-31T12:42:58Z</time>
      </trkpt>
      <trkpt lat="44.06555" lon="6.93801">
        <ele>1964.11</ele>
        <time>2019-07-31T12:42:59Z</time>
      </trkpt>
      <trkpt lat="44.06553" lon="6.93807">
        <ele>1964.11</ele>
        <time>2019-07-31T12:43:00Z</time>
      </trkpt>
      <trkpt lat="44.06551" lon="6.93813">
        <ele>1965.55</ele>
        <time>2019-07-31T12:43:01Z</time>
      </trkpt>
      <trkpt lat="44.06548" lon="6.93818">
        <ele>1965.55</ele>
        <time>2019-07-31T12:43:02Z</time>
      </trkpt>
      <trkpt lat="44.06546" lon="6.93823">
        <ele>1966.03</ele>
        <time>2019-07-31T12:43:03Z</time>
      </trkpt>
      <trkpt lat="44.06541" lon="6.93832">
        <ele>1966.51</ele>
        <time>2019-07-31T12:43:05Z</time>
      </trkpt>
      <trkpt lat="44.06536" lon="6.93843">
        <ele>1967.48</ele>
        <time>2019-07-31T12:43:07Z</time>
      </trkpt>
      <trkpt lat="44.06535" lon="6.93849">
        <ele>1967.48</ele>
        <time>2019-07-31T12:43:08Z</time>
      </trkpt>
      <trkpt lat="44.06535" lon="6.93855">
        <ele>1968.44</ele>
        <time>2019-07-31T12:43:09Z</time>
      </trkpt>
      <trkpt lat="44.06535" lon="6.9386">
        <ele>1968.92</ele>
        <time>2019-07-31T12:43:10Z</time>
      </trkpt>
      <trkpt lat="44.06537" lon="6.93865">
        <ele>1968.92</ele>
        <time>2019-07-31T12:43:11Z</time>
      </trkpt>
      <trkpt lat="44.06538" lon="6.9387">
        <ele>1969.88</ele>
        <time>2019-07-31T12:43:12Z</time>
      </trkpt>
      <trkpt lat="44.06541" lon="6.93906">
        <ele>1972.76</ele>
        <time>2019-07-31T12:43:20Z</time>
      </trkpt>
      <trkpt lat="44.06546" lon="6.93939">
        <ele>1975.65</ele>
        <time>2019-07-31T12:43:29Z</time>
      </trkpt>
      <trkpt lat="44.06524" lon="6.93955">
        <ele>1978.53</ele>
        <time>2019-07-31T12:43:38Z</time>
      </trkpt>
      <trkpt lat="44.06498" lon="6.93949">
        <ele>1982.38</ele>
        <time>2019-07-31T12:43:47Z</time>
      </trkpt>
      <trkpt lat="44.06496" lon="6.93949">
        <ele>1982.38</ele>
        <time>2019-07-31T12:43:48Z</time>
      </trkpt>
      <trkpt lat="44.06465" lon="6.93939">
        <ele>1984.3</ele>
        <time>2019-07-31T12:44:03Z</time>
      </trkpt>
      <trkpt lat="44.06462" lon="6.93933">
        <ele>1985.26</ele>
        <time>2019-07-31T12:44:06Z</time>
      </trkpt>
      <trkpt lat="44.06462" lon="6.93931">
        <ele>1985.74</ele>
        <time>2019-07-31T12:44:07Z</time>
      </trkpt>
      <trkpt lat="44.06461" lon="6.93929">
        <ele>1985.74</ele>
        <time>2019-07-31T12:44:08Z</time>
      </trkpt>
      <trkpt lat="44.0646" lon="6.93927">
        <ele>1986.22</ele>
        <time>2019-07-31T12:44:09Z</time>
      </trkpt>
      <trkpt lat="44.06459" lon="6.93924">
        <ele>1986.22</ele>
        <time>2019-07-31T12:44:10Z</time>
      </trkpt>
      <trkpt lat="44.06458" lon="6.93922">
        <ele>1986.22</ele>
        <time>2019-07-31T12:44:11Z</time>
      </trkpt>
      <trkpt lat="44.06451" lon="6.93888">
        <ele>1988.14</ele>
        <time>2019-07-31T12:44:25Z</time>
      </trkpt>
      <trkpt lat="44.06443" lon="6.93844">
        <ele>1991.51</ele>
        <time>2019-07-31T12:44:34Z</time>
      </trkpt>
      <trkpt lat="44.06433" lon="6.93795">
        <ele>1995.35</ele>
        <time>2019-07-31T12:44:41Z</time>
      </trkpt>
      <trkpt lat="44.0643" lon="6.93789">
        <ele>1996.32</ele>
        <time>2019-07-31T12:44:42Z</time>
      </trkpt>
      <trkpt lat="44.06427" lon="6.93783">
        <ele>1996.8</ele>
        <time>2019-07-31T12:44:43Z</time>
      </trkpt>
      <trkpt lat="44.06424" lon="6.93778">
        <ele>1996.8</ele>
        <time>2019-07-31T12:44:44Z</time>
      </trkpt>
      <trkpt lat="44.0642" lon="6.93774">
        <ele>1997.28</ele>
        <time>2019-07-31T12:44:45Z</time>
      </trkpt>
      <trkpt lat="44.06418" lon="6.93771">
        <ele>1997.76</ele>
        <time>2019-07-31T12:44:46Z</time>
      </trkpt>
      <trkpt lat="44.06416" lon="6.9377">
        <ele>1998.24</ele>
        <time>2019-07-31T12:44:47Z</time>
      </trkpt>
      <trkpt lat="44.06415" lon="6.9377">
        <ele>1998.24</ele>
        <time>2019-07-31T12:44:48Z</time>
      </trkpt>
      <trkpt lat="44.06414" lon="6.93773">
        <ele>1998.72</ele>
        <time>2019-07-31T12:44:49Z</time>
      </trkpt>
      <trkpt lat="44.06413" lon="6.93776">
        <ele>1999.68</ele>
        <time>2019-07-31T12:44:50Z</time>
      </trkpt>
      <trkpt lat="44.06413" lon="6.9378">
        <ele>1999.68</ele>
        <time>2019-07-31T12:44:51Z</time>
      </trkpt>
      <trkpt lat="44.06397" lon="6.938">
        <ele>2003.04</ele>
        <time>2019-07-31T12:45:00Z</time>
      </trkpt>
      <trkpt lat="44.0639" lon="6.938">
        <ele>2004.01</ele>
        <time>2019-07-31T12:45:04Z</time>
      </trkpt>
      <trkpt lat="44.06388" lon="6.93793">
        <ele>2004.97</ele>
        <time>2019-07-31T12:45:08Z</time>
      </trkpt>
      <trkpt lat="44.06386" lon="6.93778">
        <ele>2003.52</ele>
        <time>2019-07-31T12:45:19Z</time>
      </trkpt>
      <trkpt lat="44.06382" lon="6.9377">
        <ele>2002.56</ele>
        <time>2019-07-31T12:45:24Z</time>
      </trkpt>
      <trkpt lat="44.06383" lon="6.93758">
        <ele>2000.64</ele>
        <time>2019-07-31T12:45:35Z</time>
      </trkpt>
      <trkpt lat="44.06382" lon="6.93758">
        <ele>2001.12</ele>
        <time>2019-07-31T12:45:46Z</time>
      </trkpt>
      <trkpt lat="44.06385" lon="6.9375">
        <ele>2002.56</ele>
        <time>2019-07-31T12:45:55Z</time>
      </trkpt>
      <trkpt lat="44.06389" lon="6.93746">
        <ele>2003.04</ele>
        <time>2019-07-31T12:46:08Z</time>
      </trkpt>
      <trkpt lat="44.06389" lon="6.93745">
        <ele>2003.04</ele>
        <time>2019-07-31T12:46:09Z</time>
      </trkpt>
      <trkpt lat="44.0639" lon="6.93742">
        <ele>2001.6</ele>
        <time>2019-07-31T12:46:23Z</time>
      </trkpt>
      <trkpt lat="44.06391" lon="6.9374">
        <ele>2001.12</ele>
        <time>2019-07-31T12:46:53Z</time>
      </trkpt>
      <trkpt lat="44.0639" lon="6.93742">
        <ele>2001.12</ele>
        <time>2019-07-31T12:47:32Z</time>
      </trkpt>
      <trkpt lat="44.06391" lon="6.93742">
        <ele>2001.6</ele>
        <time>2019-07-31T12:48:09Z</time>
      </trkpt>
      <trkpt lat="44.06392" lon="6.93741">
        <ele>2001.6</ele>
        <time>2019-07-31T12:48:44Z</time>
      </trkpt>
      <trkpt lat="44.0639" lon="6.93743">
        <ele>2003.04</ele>
        <time>2019-07-31T12:49:12Z</time>
      </trkpt>
      <trkpt lat="44.06385" lon="6.93747">
        <ele>2003.52</ele>
        <time>2019-07-31T12:49:24Z</time>
      </trkpt>
      <trkpt lat="44.06385" lon="6.93748">
        <ele>2000.64</ele>
        <time>2019-07-31T12:49:26Z</time>
      </trkpt>
      <trkpt lat="44.06385" lon="6.9375">
        <ele>2003.52</ele>
        <time>2019-07-31T12:49:28Z</time>
      </trkpt>
      <trkpt lat="44.06384" lon="6.93751">
        <ele>2002.08</ele>
        <time>2019-07-31T12:49:30Z</time>
      </trkpt>
      <trkpt lat="44.06382" lon="6.93754">
        <ele>2001.6</ele>
        <time>2019-07-31T12:49:39Z</time>
      </trkpt>
      <trkpt lat="44.06382" lon="6.93755">
        <ele>2004.97</ele>
        <time>2019-07-31T12:49:49Z</time>
      </trkpt>
      <trkpt lat="44.06382" lon="6.93755">
        <ele>2003.52</ele>
        <time>2019-07-31T12:49:50Z</time>
      </trkpt>
      <trkpt lat="44.06381" lon="6.93755">
        <ele>2001.6</ele>
        <time>2019-07-31T12:49:55Z</time>
      </trkpt>
      <trkpt lat="44.06381" lon="6.93755">
        <ele>2004.97</ele>
        <time>2019-07-31T12:49:57Z</time>
      </trkpt>
      <trkpt lat="44.06381" lon="6.93755">
        <ele>2004.01</ele>
        <time>2019-07-31T12:49:58Z</time>
      </trkpt>
      <trkpt lat="44.06381" lon="6.93754">
        <ele>2002.56</ele>
        <time>2019-07-31T12:50:14Z</time>
      </trkpt>
      <trkpt lat="44.0638" lon="6.93749">
        <ele>2002.56</ele>
        <time>2019-07-31T12:50:23Z</time>
      </trkpt>
      <trkpt lat="44.06386" lon="6.93727">
        <ele>2000.64</ele>
        <time>2019-07-31T12:50:32Z</time>
      </trkpt>
      <trkpt lat="44.06389" lon="6.93727">
        <ele>2000.16</ele>
        <time>2019-07-31T12:50:47Z</time>
      </trkpt>
      <trkpt lat="44.06389" lon="6.93729">
        <ele>2000.64</ele>
        <time>2019-07-31T12:51:04Z</time>
      </trkpt>
      <trkpt lat="44.0639" lon="6.93725">
        <ele>2001.12</ele>
        <time>2019-07-31T12:51:06Z</time>
      </trkpt>
      <trkpt lat="44.06391" lon="6.93721">
        <ele>2001.6</ele>
        <time>2019-07-31T12:51:07Z</time>
      </trkpt>
      <trkpt lat="44.06384" lon="6.93686">
        <ele>2000.16</ele>
        <time>2019-07-31T12:51:13Z</time>
      </trkpt>
      <trkpt lat="44.06377" lon="6.93686">
        <ele>2000.16</ele>
        <time>2019-07-31T12:51:14Z</time>
      </trkpt>
      <trkpt lat="44.06365" lon="6.93693">
        <ele>1996.8</ele>
        <time>2019-07-31T12:51:16Z</time>
      </trkpt>
      <trkpt lat="44.06353" lon="6.93707">
        <ele>1995.83</ele>
        <time>2019-07-31T12:51:18Z</time>
      </trkpt>
      <trkpt lat="44.06347" lon="6.93714">
        <ele>1995.83</ele>
        <time>2019-07-31T12:51:19Z</time>
      </trkpt>
      <trkpt lat="44.06306" lon="6.93755">
        <ele>1991.51</ele>
        <time>2019-07-31T12:51:24Z</time>
      </trkpt>
      <trkpt lat="44.06273" lon="6.93781">
        <ele>1987.66</ele>
        <time>2019-07-31T12:51:27Z</time>
      </trkpt>
      <trkpt lat="44.0625" lon="6.93798">
        <ele>1984.3</ele>
        <time>2019-07-31T12:51:29Z</time>
      </trkpt>
      <trkpt lat="44.0624" lon="6.93803">
        <ele>1984.3</ele>
        <time>2019-07-31T12:51:30Z</time>
      </trkpt>
      <trkpt lat="44.06232" lon="6.93807">
        <ele>1984.3</ele>
        <time>2019-07-31T12:51:31Z</time>
      </trkpt>
      <trkpt lat="44.06211" lon="6.93816">
        <ele>1985.74</ele>
        <time>2019-07-31T12:51:34Z</time>
      </trkpt>
      <trkpt lat="44.06207" lon="6.93819">
        <ele>1986.22</ele>
        <time>2019-07-31T12:51:35Z</time>
      </trkpt>
      <trkpt lat="44.06204" lon="6.93822">
        <ele>1986.7</ele>
        <time>2019-07-31T12:51:36Z</time>
      </trkpt>
      <trkpt lat="44.06201" lon="6.93825">
        <ele>1986.7</ele>
        <time>2019-07-31T12:51:37Z</time>
      </trkpt>
      <trkpt lat="44.06198" lon="6.93828">
        <ele>1987.66</ele>
        <time>2019-07-31T12:51:38Z</time>
      </trkpt>
      <trkpt lat="44.06189" lon="6.93836">
        <ele>1989.59</ele>
        <time>2019-07-31T12:51:41Z</time>
      </trkpt>
      <trkpt lat="44.06175" lon="6.93848">
        <ele>1990.07</ele>
        <time>2019-07-31T12:51:44Z</time>
      </trkpt>
      <trkpt lat="44.0616" lon="6.93861">
        <ele>1990.55</ele>
        <time>2019-07-31T12:51:47Z</time>
      </trkpt>
      <trkpt lat="44.06154" lon="6.93864">
        <ele>1991.51</ele>
        <time>2019-07-31T12:51:48Z</time>
      </trkpt>
      <trkpt lat="44.06147" lon="6.93865">
        <ele>1991.51</ele>
        <time>2019-07-31T12:51:49Z</time>
      </trkpt>
      <trkpt lat="44.06141" lon="6.93865">
        <ele>1991.03</ele>
        <time>2019-07-31T12:51:50Z</time>
      </trkpt>
      <trkpt lat="44.06134" lon="6.93864">
        <ele>1991.03</ele>
        <time>2019-07-31T12:51:51Z</time>
      </trkpt>
      <trkpt lat="44.06129" lon="6.93861">
        <ele>1991.03</ele>
        <time>2019-07-31T12:51:52Z</time>
      </trkpt>
      <trkpt lat="44.06123" lon="6.93857">
        <ele>1992.47</ele>
        <time>2019-07-31T12:51:53Z</time>
      </trkpt>
      <trkpt lat="44.06118" lon="6.93853">
        <ele>1992.47</ele>
        <time>2019-07-31T12:51:54Z</time>
      </trkpt>
      <trkpt lat="44.06114" lon="6.93848">
        <ele>1992.95</ele>
        <time>2019-07-31T12:51:55Z</time>
      </trkpt>
      <trkpt lat="44.06104" lon="6.93841">
        <ele>1993.43</ele>
        <time>2019-07-31T12:51:57Z</time>
      </trkpt>
      <trkpt lat="44.06099" lon="6.93839">
        <ele>1993.91</ele>
        <time>2019-07-31T12:51:58Z</time>
      </trkpt>
      <trkpt lat="44.06094" lon="6.93837">
        <ele>1993.91</ele>
        <time>2019-07-31T12:51:59Z</time>
      </trkpt>
      <trkpt lat="44.06024" lon="6.93802">
        <ele>1994.39</ele>
        <time>2019-07-31T12:52:12Z</time>
      </trkpt>
      <trkpt lat="44.05992" lon="6.93788">
        <ele>1995.35</ele>
        <time>2019-07-31T12:52:18Z</time>
      </trkpt>
      <trkpt lat="44.05958" lon="6.93774">
        <ele>1996.8</ele>
        <time>2019-07-31T12:52:24Z</time>
      </trkpt>
      <trkpt lat="44.05947" lon="6.93772">
        <ele>1997.28</ele>
        <time>2019-07-31T12:52:26Z</time>
      </trkpt>
      <trkpt lat="44.05904" lon="6.93773">
        <ele>2000.16</ele>
        <time>2019-07-31T12:52:35Z</time>
      </trkpt>
      <trkpt lat="44.05895" lon="6.93773">
        <ele>2001.6</ele>
        <time>2019-07-31T12:52:38Z</time>
      </trkpt>
      <trkpt lat="44.05887" lon="6.9377">
        <ele>2003.04</ele>
        <time>2019-07-31T12:52:41Z</time>
      </trkpt>
      <trkpt lat="44.05875" lon="6.93763">
        <ele>2006.89</ele>
        <time>2019-07-31T12:52:46Z</time>
      </trkpt>
      <trkpt lat="44.05873" lon="6.93762">
        <ele>2006.89</ele>
        <time>2019-07-31T12:52:47Z</time>
      </trkpt>
      <trkpt lat="44.05861" lon="6.93749">
        <ele>2007.85</ele>
        <time>2019-07-31T12:52:53Z</time>
      </trkpt>
      <trkpt lat="44.05852" lon="6.93741">
        <ele>2010.25</ele>
        <time>2019-07-31T12:52:57Z</time>
      </trkpt>
      <trkpt lat="44.05844" lon="6.93735">
        <ele>2012.18</ele>
        <time>2019-07-31T12:53:01Z</time>
      </trkpt>
      <trkpt lat="44.05842" lon="6.93735">
        <ele>2012.66</ele>
        <time>2019-07-31T12:53:08Z</time>
      </trkpt>
      <trkpt lat="44.05843" lon="6.93734">
        <ele>2014.1</ele>
        <time>2019-07-31T12:53:22Z</time>
      </trkpt>
      <trkpt lat="44.05843" lon="6.93735">
        <ele>2012.66</ele>
        <time>2019-07-31T12:53:43Z</time>
      </trkpt>
      <trkpt lat="44.05842" lon="6.93732">
        <ele>2014.58</ele>
        <time>2019-07-31T12:53:51Z</time>
      </trkpt>
      <trkpt lat="44.05839" lon="6.93728">
        <ele>2016.5</ele>
        <time>2019-07-31T12:54:10Z</time>
      </trkpt>
      <trkpt lat="44.05839" lon="6.93726">
        <ele>2016.98</ele>
        <time>2019-07-31T12:54:28Z</time>
      </trkpt>
      <trkpt lat="44.05836" lon="6.93723">
        <ele>2018.43</ele>
        <time>2019-07-31T12:54:39Z</time>
      </trkpt>
      <trkpt lat="44.05827" lon="6.93718">
        <ele>2020.35</ele>
        <time>2019-07-31T12:54:51Z</time>
      </trkpt>
      <trkpt lat="44.05823" lon="6.93711">
        <ele>2022.75</ele>
        <time>2019-07-31T12:55:06Z</time>
      </trkpt>
      <trkpt lat="44.05822" lon="6.93711">
        <ele>2021.31</ele>
        <time>2019-07-31T12:55:18Z</time>
      </trkpt>
      <trkpt lat="44.05822" lon="6.9371">
        <ele>2022.75</ele>
        <time>2019-07-31T12:55:23Z</time>
      </trkpt>
      <trkpt lat="44.05825" lon="6.93706">
        <ele>2022.75</ele>
        <time>2019-07-31T12:55:37Z</time>
      </trkpt>
      <trkpt lat="44.05824" lon="6.93706">
        <ele>2022.27</ele>
        <time>2019-07-31T12:55:42Z</time>
      </trkpt>
      <trkpt lat="44.05827" lon="6.93704">
        <ele>2024.67</ele>
        <time>2019-07-31T12:55:48Z</time>
      </trkpt>
      <trkpt lat="44.05828" lon="6.93703">
        <ele>2021.79</ele>
        <time>2019-07-31T12:55:51Z</time>
      </trkpt>
      <trkpt lat="44.05829" lon="6.93702">
        <ele>2021.31</ele>
        <time>2019-07-31T12:56:25Z</time>
      </trkpt>
      <trkpt lat="44.05829" lon="6.93702">
        <ele>2020.83</ele>
        <time>2019-07-31T12:57:01Z</time>
      </trkpt>
      <trkpt lat="44.05829" lon="6.93702">
        <ele>2020.83</ele>
        <time>2019-07-31T12:57:34Z</time>
      </trkpt>
      <trkpt lat="44.05829" lon="6.93702">
        <ele>2021.31</ele>
        <time>2019-07-31T12:57:57Z</time>
      </trkpt>
      <trkpt lat="44.05829" lon="6.93702">
        <ele>2021.31</ele>
        <time>2019-07-31T12:58:30Z</time>
      </trkpt>
      <trkpt lat="44.05829" lon="6.93701">
        <ele>2021.31</ele>
        <time>2019-07-31T12:59:08Z</time>
      </trkpt>
      <trkpt lat="44.05829" lon="6.93702">
        <ele>2021.31</ele>
        <time>2019-07-31T12:59:44Z</time>
      </trkpt>
      <trkpt lat="44.05829" lon="6.93701">
        <ele>2021.79</ele>
        <time>2019-07-31T13:00:16Z</time>
      </trkpt>
      <trkpt lat="44.05829" lon="6.93702">
        <ele>2022.75</ele>
        <time>2019-07-31T13:00:56Z</time>
      </trkpt>
      <trkpt lat="44.05829" lon="6.93702">
        <ele>2023.23</ele>
        <time>2019-07-31T13:01:26Z</time>
      </trkpt>
      <trkpt lat="44.05829" lon="6.93702">
        <ele>2022.27</ele>
        <time>2019-07-31T13:01:57Z</time>
      </trkpt>
      <trkpt lat="44.05829" lon="6.93702">
        <ele>2022.27</ele>
        <time>2019-07-31T13:02:32Z</time>
      </trkpt>
      <trkpt lat="44.05829" lon="6.93702">
        <ele>2022.27</ele>
        <time>2019-07-31T13:02:54Z</time>
      </trkpt>
      <trkpt lat="44.05827" lon="6.93704">
        <ele>2020.83</ele>
        <time>2019-07-31T13:02:56Z</time>
      </trkpt>
      <trkpt lat="44.05824" lon="6.93711">
        <ele>2022.75</ele>
        <time>2019-07-31T13:03:03Z</time>
      </trkpt>
      <trkpt lat="44.05823" lon="6.93712">
        <ele>2022.75</ele>
        <time>2019-07-31T13:03:31Z</time>
      </trkpt>
      <trkpt lat="44.05823" lon="6.93711">
        <ele>2022.27</ele>
        <time>2019-07-31T13:04:03Z</time>
      </trkpt>
      <trkpt lat="44.05823" lon="6.9371">
        <ele>2021.31</ele>
        <time>2019-07-31T13:04:37Z</time>
      </trkpt>
      <trkpt lat="44.05823" lon="6.9371">
        <ele>2021.31</ele>
        <time>2019-07-31T13:04:38Z</time>
      </trkpt>
      <trkpt lat="44.05822" lon="6.93711">
        <ele>2026.12</ele>
        <time>2019-07-31T13:04:46Z</time>
      </trkpt>
      <trkpt lat="44.05822" lon="6.93711">
        <ele>2022.75</ele>
        <time>2019-07-31T13:04:48Z</time>
      </trkpt>
      <trkpt lat="44.05823" lon="6.93711">
        <ele>2002.08</ele>
        <time>2019-07-31T13:05:07Z</time>
      </trkpt>
      <trkpt lat="44.05823" lon="6.93711">
        <ele>2022.75</ele>
        <time>2019-07-31T13:05:08Z</time>
      </trkpt>
      <trkpt lat="44.05824" lon="6.93711">
        <ele>2035.73</ele>
        <time>2019-07-31T13:05:09Z</time>
      </trkpt>
      <trkpt lat="44.05824" lon="6.93711">
        <ele>2027.56</ele>
        <time>2019-07-31T13:05:10Z</time>
      </trkpt>
      <trkpt lat="44.05824" lon="6.93712">
        <ele>2021.79</ele>
        <time>2019-07-31T13:05:11Z</time>
      </trkpt>
      <trkpt lat="44.05823" lon="6.93712">
        <ele>2023.23</ele>
        <time>2019-07-31T13:05:12Z</time>
      </trkpt>
      <trkpt lat="44.05823" lon="6.93713">
        <ele>2025.64</ele>
        <time>2019-07-31T13:05:16Z</time>
      </trkpt>
      <trkpt lat="44.05823" lon="6.93713">
        <ele>2023.71</ele>
        <time>2019-07-31T13:05:18Z</time>
      </trkpt>
      <trkpt lat="44.05823" lon="6.93714">
        <ele>2014.58</ele>
        <time>2019-07-31T13:05:20Z</time>
      </trkpt>
      <trkpt lat="44.05824" lon="6.93714">
        <ele>2031.88</ele>
        <time>2019-07-31T13:05:21Z</time>
      </trkpt>
      <trkpt lat="44.05824" lon="6.93714">
        <ele>2023.23</ele>
        <time>2019-07-31T13:05:22Z</time>
      </trkpt>
      <trkpt lat="44.05824" lon="6.93714">
        <ele>2027.08</ele>
        <time>2019-07-31T13:05:23Z</time>
      </trkpt>
      <trkpt lat="44.05824" lon="6.93715">
        <ele>2021.79</ele>
        <time>2019-07-31T13:05:24Z</time>
      </trkpt>
      <trkpt lat="44.05823" lon="6.93718">
        <ele>2025.15</ele>
        <time>2019-07-31T13:05:26Z</time>
      </trkpt>
      <trkpt lat="44.05817" lon="6.93721">
        <ele>2026.12</ele>
        <time>2019-07-31T13:05:29Z</time>
      </trkpt>
      <trkpt lat="44.05815" lon="6.93722">
        <ele>2023.23</ele>
        <time>2019-07-31T13:05:30Z</time>
      </trkpt>
      <trkpt lat="44.05808" lon="6.93728">
        <ele>2026.6</ele>
        <time>2019-07-31T13:05:33Z</time>
      </trkpt>
      <trkpt lat="44.05778" lon="6.93771">
        <ele>2024.19</ele>
        <time>2019-07-31T13:05:44Z</time>
      </trkpt>
      <trkpt lat="44.05774" lon="6.93779">
        <ele>2027.08</ele>
        <time>2019-07-31T13:05:45Z</time>
      </trkpt>
      <trkpt lat="44.05766" lon="6.93794">
        <ele>2024.19</ele>
        <time>2019-07-31T13:05:47Z</time>
      </trkpt>
      <trkpt lat="44.05764" lon="6.9382">
        <ele>2019.39</ele>
        <time>2019-07-31T13:05:51Z</time>
      </trkpt>
      <trkpt lat="44.05773" lon="6.93824">
        <ele>2016.5</ele>
        <time>2019-07-31T13:05:53Z</time>
      </trkpt>
      <trkpt lat="44.05777" lon="6.93823">
        <ele>2016.02</ele>
        <time>2019-07-31T13:05:54Z</time>
      </trkpt>
      <trkpt lat="44.05782" lon="6.93821">
        <ele>2016.02</ele>
        <time>2019-07-31T13:05:55Z</time>
      </trkpt>
      <trkpt lat="44.05787" lon="6.93818">
        <ele>2015.06</ele>
        <time>2019-07-31T13:05:56Z</time>
      </trkpt>
      <trkpt lat="44.05793" lon="6.93816">
        <ele>2015.06</ele>
        <time>2019-07-31T13:05:57Z</time>
      </trkpt>
      <trkpt lat="44.058" lon="6.93813">
        <ele>2014.58</ele>
        <time>2019-07-31T13:05:58Z</time>
      </trkpt>
      <trkpt lat="44.05806" lon="6.93809">
        <ele>2013.14</ele>
        <time>2019-07-31T13:05:59Z</time>
      </trkpt>
      <trkpt lat="44.05811" lon="6.93805">
        <ele>2013.14</ele>
        <time>2019-07-31T13:06:00Z</time>
      </trkpt>
      <trkpt lat="44.05841" lon="6.93782">
        <ele>2014.1</ele>
        <time>2019-07-31T13:06:05Z</time>
      </trkpt>
      <trkpt lat="44.05848" lon="6.9378">
        <ele>2012.66</ele>
        <time>2019-07-31T13:06:06Z</time>
      </trkpt>
      <trkpt lat="44.05854" lon="6.93778">
        <ele>2012.66</ele>
        <time>2019-07-31T13:06:07Z</time>
      </trkpt>
      <trkpt lat="44.0588" lon="6.93771">
        <ele>2009.29</ele>
        <time>2019-07-31T13:06:11Z</time>
      </trkpt>
      <trkpt lat="44.05887" lon="6.93771">
        <ele>2008.33</ele>
        <time>2019-07-31T13:06:12Z</time>
      </trkpt>
      <trkpt lat="44.05893" lon="6.93772">
        <ele>2007.37</ele>
        <time>2019-07-31T13:06:13Z</time>
      </trkpt>
      <trkpt lat="44.05906" lon="6.93775">
        <ele>2006.41</ele>
        <time>2019-07-31T13:06:15Z</time>
      </trkpt>
      <trkpt lat="44.05913" lon="6.93776">
        <ele>2004.97</ele>
        <time>2019-07-31T13:06:16Z</time>
      </trkpt>
      <trkpt lat="44.05922" lon="6.93775">
        <ele>2004.01</ele>
        <time>2019-07-31T13:06:17Z</time>
      </trkpt>
      <trkpt lat="44.05931" lon="6.93775">
        <ele>2003.04</ele>
        <time>2019-07-31T13:06:18Z</time>
      </trkpt>
      <trkpt lat="44.05941" lon="6.93774">
        <ele>2001.6</ele>
        <time>2019-07-31T13:06:19Z</time>
      </trkpt>
      <trkpt lat="44.0595" lon="6.93775">
        <ele>2001.6</ele>
        <time>2019-07-31T13:06:20Z</time>
      </trkpt>
      <trkpt lat="44.05959" lon="6.93777">
        <ele>2001.6</ele>
        <time>2019-07-31T13:06:21Z</time>
      </trkpt>
      <trkpt lat="44.05968" lon="6.9378">
        <ele>1999.68</ele>
        <time>2019-07-31T13:06:22Z</time>
      </trkpt>
      <trkpt lat="44.05977" lon="6.93783">
        <ele>1999.68</ele>
        <time>2019-07-31T13:06:23Z</time>
      </trkpt>
      <trkpt lat="44.06018" lon="6.93801">
        <ele>1996.8</ele>
        <time>2019-07-31T13:06:28Z</time>
      </trkpt>
      <trkpt lat="44.06025" lon="6.93804">
        <ele>1996.8</ele>
        <time>2019-07-31T13:06:29Z</time>
      </trkpt>
      <trkpt lat="44.06109" lon="6.93849">
        <ele>1996.32</ele>
        <time>2019-07-31T13:06:42Z</time>
      </trkpt>
      <trkpt lat="44.06115" lon="6.93853">
        <ele>1995.35</ele>
        <time>2019-07-31T13:06:43Z</time>
      </trkpt>
      <trkpt lat="44.06128" lon="6.93863">
        <ele>1994.87</ele>
        <time>2019-07-31T13:06:45Z</time>
      </trkpt>
      <trkpt lat="44.06136" lon="6.93866">
        <ele>1994.39</ele>
        <time>2019-07-31T13:06:46Z</time>
      </trkpt>
      <trkpt lat="44.06144" lon="6.93868">
        <ele>1994.39</ele>
        <time>2019-07-31T13:06:47Z</time>
      </trkpt>
      <trkpt lat="44.06152" lon="6.93868">
        <ele>1994.39</ele>
        <time>2019-07-31T13:06:48Z</time>
      </trkpt>
      <trkpt lat="44.06161" lon="6.93865">
        <ele>1994.39</ele>
        <time>2019-07-31T13:06:49Z</time>
      </trkpt>
      <trkpt lat="44.06169" lon="6.9386">
        <ele>1994.39</ele>
        <time>2019-07-31T13:06:50Z</time>
      </trkpt>
      <trkpt lat="44.06176" lon="6.93854">
        <ele>1994.39</ele>
        <time>2019-07-31T13:06:51Z</time>
      </trkpt>
      <trkpt lat="44.06182" lon="6.93846">
        <ele>1994.39</ele>
        <time>2019-07-31T13:06:52Z</time>
      </trkpt>
      <trkpt lat="44.06189" lon="6.93839">
        <ele>1993.91</ele>
        <time>2019-07-31T13:06:53Z</time>
      </trkpt>
      <trkpt lat="44.06197" lon="6.93832">
        <ele>1993.91</ele>
        <time>2019-07-31T13:06:54Z</time>
      </trkpt>
      <trkpt lat="44.0622" lon="6.93814">
        <ele>1990.55</ele>
        <time>2019-07-31T13:06:57Z</time>
      </trkpt>
      <trkpt lat="44.06229" lon="6.9381">
        <ele>1989.59</ele>
        <time>2019-07-31T13:06:58Z</time>
      </trkpt>
      <trkpt lat="44.06249" lon="6.93801">
        <ele>1987.18</ele>
        <time>2019-07-31T13:07:00Z</time>
      </trkpt>
      <trkpt lat="44.06258" lon="6.93795">
        <ele>1986.22</ele>
        <time>2019-07-31T13:07:01Z</time>
      </trkpt>
      <trkpt lat="44.06278" lon="6.9378">
        <ele>1984.78</ele>
        <time>2019-07-31T13:07:03Z</time>
      </trkpt>
      <trkpt lat="44.06311" lon="6.93754">
        <ele>1987.66</ele>
        <time>2019-07-31T13:07:08Z</time>
      </trkpt>
      <trkpt lat="44.06326" lon="6.93742">
        <ele>1988.62</ele>
        <time>2019-07-31T13:07:11Z</time>
      </trkpt>
      <trkpt lat="44.06337" lon="6.93732">
        <ele>1992.47</ele>
        <time>2019-07-31T13:07:14Z</time>
      </trkpt>
      <trkpt lat="44.06353" lon="6.93714">
        <ele>1995.35</ele>
        <time>2019-07-31T13:07:19Z</time>
      </trkpt>
      <trkpt lat="44.0637" lon="6.93691">
        <ele>1998.24</ele>
        <time>2019-07-31T13:07:26Z</time>
      </trkpt>
      <trkpt lat="44.06392" lon="6.93684">
        <ele>1999.68</ele>
        <time>2019-07-31T13:07:35Z</time>
      </trkpt>
      <trkpt lat="44.06403" lon="6.93735">
        <ele>2003.04</ele>
        <time>2019-07-31T13:07:50Z</time>
      </trkpt>
      <trkpt lat="44.06414" lon="6.93766">
        <ele>2004.49</ele>
        <time>2019-07-31T13:08:06Z</time>
      </trkpt>
      <trkpt lat="44.06416" lon="6.93765">
        <ele>2003.04</ele>
        <time>2019-07-31T13:08:09Z</time>
      </trkpt>
      <trkpt lat="44.06416" lon="6.93764">
        <ele>2004.97</ele>
        <time>2019-07-31T13:08:11Z</time>
      </trkpt>
      <trkpt lat="44.06416" lon="6.93764">
        <ele>2003.52</ele>
        <time>2019-07-31T13:08:14Z</time>
      </trkpt>
      <trkpt lat="44.06415" lon="6.93764">
        <ele>2003.52</ele>
        <time>2019-07-31T13:08:44Z</time>
      </trkpt>
      <trkpt lat="44.06415" lon="6.93763">
        <ele>2004.49</ele>
        <time>2019-07-31T13:09:01Z</time>
      </trkpt>
      <trkpt lat="44.06414" lon="6.93763">
        <ele>2004.49</ele>
        <time>2019-07-31T13:09:19Z</time>
      </trkpt>
      <trkpt lat="44.06415" lon="6.93762">
        <ele>2004.97</ele>
        <time>2019-07-31T13:09:34Z</time>
      </trkpt>
      <trkpt lat="44.06419" lon="6.93755">
        <ele>2003.04</ele>
        <time>2019-07-31T13:09:38Z</time>
      </trkpt>
      <trkpt lat="44.06429" lon="6.93749">
        <ele>1999.68</ele>
        <time>2019-07-31T13:09:41Z</time>
      </trkpt>
      <trkpt lat="44.06434" lon="6.93747">
        <ele>1999.68</ele>
        <time>2019-07-31T13:09:42Z</time>
      </trkpt>
      <trkpt lat="44.06454" lon="6.93735">
        <ele>1996.32</ele>
        <time>2019-07-31T13:09:45Z</time>
      </trkpt>
      <trkpt lat="44.06461" lon="6.9373">
        <ele>1992.95</ele>
        <time>2019-07-31T13:09:46Z</time>
      </trkpt>
      <trkpt lat="44.06475" lon="6.93722">
        <ele>1988.62</ele>
        <time>2019-07-31T13:09:48Z</time>
      </trkpt>
      <trkpt lat="44.06489" lon="6.9371">
        <ele>1985.26</ele>
        <time>2019-07-31T13:09:50Z</time>
      </trkpt>
      <trkpt lat="44.06498" lon="6.93704">
        <ele>1981.9</ele>
        <time>2019-07-31T13:09:51Z</time>
      </trkpt>
      <trkpt lat="44.06514" lon="6.93693">
        <ele>1976.61</ele>
        <time>2019-07-31T13:09:53Z</time>
      </trkpt>
      <trkpt lat="44.06528" lon="6.93683">
        <ele>1971.8</ele>
        <time>2019-07-31T13:09:55Z</time>
      </trkpt>
      <trkpt lat="44.06539" lon="6.93673">
        <ele>1966.99</ele>
        <time>2019-07-31T13:09:57Z</time>
      </trkpt>
      <trkpt lat="44.06548" lon="6.93667">
        <ele>1963.63</ele>
        <time>2019-07-31T13:09:59Z</time>
      </trkpt>
      <trkpt lat="44.06558" lon="6.93662">
        <ele>1959.78</ele>
        <time>2019-07-31T13:10:02Z</time>
      </trkpt>
      <trkpt lat="44.0656" lon="6.93661">
        <ele>1958.34</ele>
        <time>2019-07-31T13:10:03Z</time>
      </trkpt>
      <trkpt lat="44.0656" lon="6.93658">
        <ele>1956.42</ele>
        <time>2019-07-31T13:10:06Z</time>
      </trkpt>
      <trkpt lat="44.0656" lon="6.93656">
        <ele>1957.86</ele>
        <time>2019-07-31T13:10:10Z</time>
      </trkpt>
      <trkpt lat="44.06558" lon="6.93658">
        <ele>1957.86</ele>
        <time>2019-07-31T13:10:27Z</time>
      </trkpt>
      <trkpt lat="44.06561" lon="6.93657">
        <ele>1956.9</ele>
        <time>2019-07-31T13:10:41Z</time>
      </trkpt>
      <trkpt lat="44.06554" lon="6.93637">
        <ele>1956.42</ele>
        <time>2019-07-31T13:10:56Z</time>
      </trkpt>
      <trkpt lat="44.06552" lon="6.93634">
        <ele>1955.46</ele>
        <time>2019-07-31T13:10:58Z</time>
      </trkpt>
      <trkpt lat="44.06551" lon="6.93631">
        <ele>1955.46</ele>
        <time>2019-07-31T13:10:59Z</time>
      </trkpt>
      <trkpt lat="44.06542" lon="6.93614">
        <ele>1954.98</ele>
        <time>2019-07-31T13:11:03Z</time>
      </trkpt>
      <trkpt lat="44.06534" lon="6.93592">
        <ele>1954.02</ele>
        <time>2019-07-31T13:11:06Z</time>
      </trkpt>
      <trkpt lat="44.06532" lon="6.93584">
        <ele>1953.06</ele>
        <time>2019-07-31T13:11:07Z</time>
      </trkpt>
      <trkpt lat="44.06526" lon="6.93553">
        <ele>1949.21</ele>
        <time>2019-07-31T13:11:11Z</time>
      </trkpt>
      <trkpt lat="44.06523" lon="6.93539">
        <ele>1948.25</ele>
        <time>2019-07-31T13:11:13Z</time>
      </trkpt>
      <trkpt lat="44.06522" lon="6.93532">
        <ele>1946.81</ele>
        <time>2019-07-31T13:11:14Z</time>
      </trkpt>
      <trkpt lat="44.06521" lon="6.93526">
        <ele>1945.85</ele>
        <time>2019-07-31T13:11:15Z</time>
      </trkpt>
      <trkpt lat="44.0652" lon="6.9351">
        <ele>1943.92</ele>
        <time>2019-07-31T13:11:18Z</time>
      </trkpt>
      <trkpt lat="44.06509" lon="6.93448">
        <ele>1942</ele>
        <time>2019-07-31T13:11:30Z</time>
      </trkpt>
      <trkpt lat="44.06508" lon="6.93426">
        <ele>1939.12</ele>
        <time>2019-07-31T13:11:35Z</time>
      </trkpt>
      <trkpt lat="44.0651" lon="6.93424">
        <ele>1937.67</ele>
        <time>2019-07-31T13:11:37Z</time>
      </trkpt>
      <trkpt lat="44.06511" lon="6.93422">
        <ele>1937.19</ele>
        <time>2019-07-31T13:11:38Z</time>
      </trkpt>
      <trkpt lat="44.06511" lon="6.9342">
        <ele>1936.71</ele>
        <time>2019-07-31T13:11:39Z</time>
      </trkpt>
      <trkpt lat="44.06512" lon="6.93418">
        <ele>1936.23</ele>
        <time>2019-07-31T13:11:40Z</time>
      </trkpt>
      <trkpt lat="44.06513" lon="6.93415">
        <ele>1935.75</ele>
        <time>2019-07-31T13:11:41Z</time>
      </trkpt>
      <trkpt lat="44.06514" lon="6.93412">
        <ele>1934.31</ele>
        <time>2019-07-31T13:11:42Z</time>
      </trkpt>
      <trkpt lat="44.06515" lon="6.93408">
        <ele>1933.83</ele>
        <time>2019-07-31T13:11:43Z</time>
      </trkpt>
      <trkpt lat="44.06515" lon="6.93404">
        <ele>1932.87</ele>
        <time>2019-07-31T13:11:44Z</time>
      </trkpt>
      <trkpt lat="44.06514" lon="6.934">
        <ele>1932.87</ele>
        <time>2019-07-31T13:11:45Z</time>
      </trkpt>
      <trkpt lat="44.06512" lon="6.93394">
        <ele>1932.87</ele>
        <time>2019-07-31T13:11:46Z</time>
      </trkpt>
      <trkpt lat="44.06509" lon="6.93377">
        <ele>1933.35</ele>
        <time>2019-07-31T13:11:48Z</time>
      </trkpt>
      <trkpt lat="44.06509" lon="6.93367">
        <ele>1931.91</ele>
        <time>2019-07-31T13:11:49Z</time>
      </trkpt>
      <trkpt lat="44.06509" lon="6.93355">
        <ele>1931.43</ele>
        <time>2019-07-31T13:11:50Z</time>
      </trkpt>
      <trkpt lat="44.06509" lon="6.93343">
        <ele>1931.43</ele>
        <time>2019-07-31T13:11:51Z</time>
      </trkpt>
      <trkpt lat="44.06512" lon="6.93302">
        <ele>1928.06</ele>
        <time>2019-07-31T13:11:54Z</time>
      </trkpt>
      <trkpt lat="44.06515" lon="6.93277">
        <ele>1924.7</ele>
        <time>2019-07-31T13:11:56Z</time>
      </trkpt>
      <trkpt lat="44.06518" lon="6.93245">
        <ele>1920.37</ele>
        <time>2019-07-31T13:11:59Z</time>
      </trkpt>
      <trkpt lat="44.06518" lon="6.93236">
        <ele>1918.93</ele>
        <time>2019-07-31T13:12:00Z</time>
      </trkpt>
      <trkpt lat="44.06517" lon="6.93226">
        <ele>1917.97</ele>
        <time>2019-07-31T13:12:01Z</time>
      </trkpt>
      <trkpt lat="44.06515" lon="6.93216">
        <ele>1917.97</ele>
        <time>2019-07-31T13:12:02Z</time>
      </trkpt>
      <trkpt lat="44.0651" lon="6.93166">
        <ele>1913.64</ele>
        <time>2019-07-31T13:12:06Z</time>
      </trkpt>
      <trkpt lat="44.0651" lon="6.93156">
        <ele>1912.2</ele>
        <time>2019-07-31T13:12:07Z</time>
      </trkpt>
      <trkpt lat="44.06512" lon="6.93147">
        <ele>1911.24</ele>
        <time>2019-07-31T13:12:08Z</time>
      </trkpt>
      <trkpt lat="44.06514" lon="6.93138">
        <ele>1911.24</ele>
        <time>2019-07-31T13:12:09Z</time>
      </trkpt>
      <trkpt lat="44.06518" lon="6.93129">
        <ele>1911.24</ele>
        <time>2019-07-31T13:12:10Z</time>
      </trkpt>
      <trkpt lat="44.06522" lon="6.9312">
        <ele>1911.24</ele>
        <time>2019-07-31T13:12:11Z</time>
      </trkpt>
      <trkpt lat="44.06527" lon="6.93111">
        <ele>1910.28</ele>
        <time>2019-07-31T13:12:12Z</time>
      </trkpt>
      <trkpt lat="44.06543" lon="6.93083">
        <ele>1907.39</ele>
        <time>2019-07-31T13:12:15Z</time>
      </trkpt>
      <trkpt lat="44.0655" lon="6.93075">
        <ele>1906.91</ele>
        <time>2019-07-31T13:12:16Z</time>
      </trkpt>
      <trkpt lat="44.06557" lon="6.93068">
        <ele>1906.91</ele>
        <time>2019-07-31T13:12:17Z</time>
      </trkpt>
      <trkpt lat="44.06561" lon="6.9306">
        <ele>1906.91</ele>
        <time>2019-07-31T13:12:18Z</time>
      </trkpt>
      <trkpt lat="44.06565" lon="6.93052">
        <ele>1906.91</ele>
        <time>2019-07-31T13:12:19Z</time>
      </trkpt>
      <trkpt lat="44.06568" lon="6.93045">
        <ele>1906.91</ele>
        <time>2019-07-31T13:12:20Z</time>
      </trkpt>
      <trkpt lat="44.0657" lon="6.93039">
        <ele>1906.91</ele>
        <time>2019-07-31T13:12:21Z</time>
      </trkpt>
      <trkpt lat="44.06571" lon="6.93032">
        <ele>1906.43</ele>
        <time>2019-07-31T13:12:22Z</time>
      </trkpt>
      <trkpt lat="44.06571" lon="6.93027">
        <ele>1906.91</ele>
        <time>2019-07-31T13:12:23Z</time>
      </trkpt>
      <trkpt lat="44.06569" lon="6.93023">
        <ele>1905.47</ele>
        <time>2019-07-31T13:12:24Z</time>
      </trkpt>
      <trkpt lat="44.06567" lon="6.93019">
        <ele>1905.47</ele>
        <time>2019-07-31T13:12:25Z</time>
      </trkpt>
      <trkpt lat="44.06564" lon="6.93016">
        <ele>1905.95</ele>
        <time>2019-07-31T13:12:26Z</time>
      </trkpt>
      <trkpt lat="44.06561" lon="6.93015">
        <ele>1905.95</ele>
        <time>2019-07-31T13:12:27Z</time>
      </trkpt>
      <trkpt lat="44.06557" lon="6.93015">
        <ele>1905.95</ele>
        <time>2019-07-31T13:12:28Z</time>
      </trkpt>
      <trkpt lat="44.06553" lon="6.93016">
        <ele>1905.47</ele>
        <time>2019-07-31T13:12:29Z</time>
      </trkpt>
      <trkpt lat="44.06549" lon="6.93017">
        <ele>1905.95</ele>
        <time>2019-07-31T13:12:30Z</time>
      </trkpt>
      <trkpt lat="44.06545" lon="6.93018">
        <ele>1905.95</ele>
        <time>2019-07-31T13:12:31Z</time>
      </trkpt>
      <trkpt lat="44.06541" lon="6.9302">
        <ele>1905.95</ele>
        <time>2019-07-31T13:12:32Z</time>
      </trkpt>
      <trkpt lat="44.06523" lon="6.93034">
        <ele>1904.51</ele>
        <time>2019-07-31T13:12:39Z</time>
      </trkpt>
      <trkpt lat="44.06523" lon="6.93035">
        <ele>1904.03</ele>
        <time>2019-07-31T13:12:51Z</time>
      </trkpt>
      <trkpt lat="44.06523" lon="6.93036">
        <ele>1903.07</ele>
        <time>2019-07-31T13:13:21Z</time>
      </trkpt>
      <trkpt lat="44.06522" lon="6.93036">
        <ele>1904.51</ele>
        <time>2019-07-31T13:13:22Z</time>
      </trkpt>
      <trkpt lat="44.0652" lon="6.93036">
        <ele>1904.51</ele>
        <time>2019-07-31T13:13:23Z</time>
      </trkpt>
      <trkpt lat="44.06517" lon="6.93037">
        <ele>1904.51</ele>
        <time>2019-07-31T13:13:24Z</time>
      </trkpt>
      <trkpt lat="44.06507" lon="6.93042">
        <ele>1904.51</ele>
        <time>2019-07-31T13:13:27Z</time>
      </trkpt>
      <trkpt lat="44.06504" lon="6.93045">
        <ele>1904.51</ele>
        <time>2019-07-31T13:13:28Z</time>
      </trkpt>
      <trkpt lat="44.0649" lon="6.93058">
        <ele>1902.59</ele>
        <time>2019-07-31T13:13:31Z</time>
      </trkpt>
      <trkpt lat="44.06474" lon="6.93075">
        <ele>1901.14</ele>
        <time>2019-07-31T13:13:34Z</time>
      </trkpt>
      <trkpt lat="44.06468" lon="6.93082">
        <ele>1900.66</ele>
        <time>2019-07-31T13:13:35Z</time>
      </trkpt>
      <trkpt lat="44.06465" lon="6.93087">
        <ele>1900.18</ele>
        <time>2019-07-31T13:13:36Z</time>
      </trkpt>
      <trkpt lat="44.06457" lon="6.93103">
        <ele>1898.26</ele>
        <time>2019-07-31T13:13:39Z</time>
      </trkpt>
      <trkpt lat="44.06453" lon="6.93116">
        <ele>1897.3</ele>
        <time>2019-07-31T13:13:41Z</time>
      </trkpt>
      <trkpt lat="44.06452" lon="6.93123">
        <ele>1897.3</ele>
        <time>2019-07-31T13:13:42Z</time>
      </trkpt>
      <trkpt lat="44.06451" lon="6.93131">
        <ele>1896.34</ele>
        <time>2019-07-31T13:13:43Z</time>
      </trkpt>
      <trkpt lat="44.06451" lon="6.93146">
        <ele>1895.86</ele>
        <time>2019-07-31T13:13:45Z</time>
      </trkpt>
      <trkpt lat="44.06448" lon="6.93174">
        <ele>1893.93</ele>
        <time>2019-07-31T13:13:49Z</time>
      </trkpt>
      <trkpt lat="44.06444" lon="6.93198">
        <ele>1892.97</ele>
        <time>2019-07-31T13:13:53Z</time>
      </trkpt>
      <trkpt lat="44.06443" lon="6.93204">
        <ele>1892.49</ele>
        <time>2019-07-31T13:13:54Z</time>
      </trkpt>
      <trkpt lat="44.0644" lon="6.9321">
        <ele>1891.53</ele>
        <time>2019-07-31T13:13:55Z</time>
      </trkpt>
      <trkpt lat="44.06437" lon="6.93217">
        <ele>1891.53</ele>
        <time>2019-07-31T13:13:56Z</time>
      </trkpt>
      <trkpt lat="44.06433" lon="6.93225">
        <ele>1891.05</ele>
        <time>2019-07-31T13:13:57Z</time>
      </trkpt>
      <trkpt lat="44.06429" lon="6.93232">
        <ele>1891.05</ele>
        <time>2019-07-31T13:13:58Z</time>
      </trkpt>
      <trkpt lat="44.06423" lon="6.93239">
        <ele>1890.57</ele>
        <time>2019-07-31T13:13:59Z</time>
      </trkpt>
      <trkpt lat="44.06417" lon="6.93247">
        <ele>1890.57</ele>
        <time>2019-07-31T13:14:00Z</time>
      </trkpt>
      <trkpt lat="44.0641" lon="6.93253">
        <ele>1889.61</ele>
        <time>2019-07-31T13:14:01Z</time>
      </trkpt>
      <trkpt lat="44.06402" lon="6.93259">
        <ele>1888.65</ele>
        <time>2019-07-31T13:14:02Z</time>
      </trkpt>
      <trkpt lat="44.06365" lon="6.93281">
        <ele>1885.76</ele>
        <time>2019-07-31T13:14:06Z</time>
      </trkpt>
      <trkpt lat="44.06336" lon="6.93298">
        <ele>1882.88</ele>
        <time>2019-07-31T13:14:09Z</time>
      </trkpt>
      <trkpt lat="44.06327" lon="6.93306">
        <ele>1882.4</ele>
        <time>2019-07-31T13:14:10Z</time>
      </trkpt>
      <trkpt lat="44.06319" lon="6.93316">
        <ele>1880.96</ele>
        <time>2019-07-31T13:14:11Z</time>
      </trkpt>
      <trkpt lat="44.0631" lon="6.93327">
        <ele>1880</ele>
        <time>2019-07-31T13:14:12Z</time>
      </trkpt>
      <trkpt lat="44.06303" lon="6.93338">
        <ele>1879.03</ele>
        <time>2019-07-31T13:14:13Z</time>
      </trkpt>
      <trkpt lat="44.06295" lon="6.9335">
        <ele>1877.59</ele>
        <time>2019-07-31T13:14:14Z</time>
      </trkpt>
      <trkpt lat="44.06253" lon="6.93407">
        <ele>1873.27</ele>
        <time>2019-07-31T13:14:19Z</time>
      </trkpt>
      <trkpt lat="44.06228" lon="6.93435">
        <ele>1868.94</ele>
        <time>2019-07-31T13:14:22Z</time>
      </trkpt>
      <trkpt lat="44.06222" lon="6.93442">
        <ele>1867.5</ele>
        <time>2019-07-31T13:14:23Z</time>
      </trkpt>
      <trkpt lat="44.06215" lon="6.93447">
        <ele>1866.06</ele>
        <time>2019-07-31T13:14:24Z</time>
      </trkpt>
      <trkpt lat="44.06209" lon="6.93448">
        <ele>1864.61</ele>
        <time>2019-07-31T13:14:25Z</time>
      </trkpt>
      <trkpt lat="44.06202" lon="6.93447">
        <ele>1864.61</ele>
        <time>2019-07-31T13:14:26Z</time>
      </trkpt>
      <trkpt lat="44.06197" lon="6.93442">
        <ele>1864.61</ele>
        <time>2019-07-31T13:14:27Z</time>
      </trkpt>
      <trkpt lat="44.06193" lon="6.93436">
        <ele>1864.61</ele>
        <time>2019-07-31T13:14:28Z</time>
      </trkpt>
      <trkpt lat="44.0619" lon="6.93429">
        <ele>1864.13</ele>
        <time>2019-07-31T13:14:29Z</time>
      </trkpt>
      <trkpt lat="44.06168" lon="6.9339">
        <ele>1863.65</ele>
        <time>2019-07-31T13:14:35Z</time>
      </trkpt>
      <trkpt lat="44.06148" lon="6.93362">
        <ele>1864.13</ele>
        <time>2019-07-31T13:14:40Z</time>
      </trkpt>
      <trkpt lat="44.06143" lon="6.93358">
        <ele>1864.13</ele>
        <time>2019-07-31T13:14:41Z</time>
      </trkpt>
      <trkpt lat="44.06139" lon="6.93354">
        <ele>1864.13</ele>
        <time>2019-07-31T13:14:42Z</time>
      </trkpt>
      <trkpt lat="44.06092" lon="6.93301">
        <ele>1863.17</ele>
        <time>2019-07-31T13:14:54Z</time>
      </trkpt>
      <trkpt lat="44.06065" lon="6.93283">
        <ele>1864.13</ele>
        <time>2019-07-31T13:15:06Z</time>
      </trkpt>
      <trkpt lat="44.06047" lon="6.93269">
        <ele>1864.61</ele>
        <time>2019-07-31T13:15:15Z</time>
      </trkpt>
      <trkpt lat="44.06016" lon="6.93227">
        <ele>1865.09</ele>
        <time>2019-07-31T13:15:30Z</time>
      </trkpt>
      <trkpt lat="44.06009" lon="6.93216">
        <ele>1863.65</ele>
        <time>2019-07-31T13:15:35Z</time>
      </trkpt>
      <trkpt lat="44.05985" lon="6.93213">
        <ele>1863.65</ele>
        <time>2019-07-31T13:15:47Z</time>
      </trkpt>
      <trkpt lat="44.0598" lon="6.93213">
        <ele>1863.65</ele>
        <time>2019-07-31T13:15:50Z</time>
      </trkpt>
      <trkpt lat="44.0598" lon="6.93212">
        <ele>1862.69</ele>
        <time>2019-07-31T13:16:03Z</time>
      </trkpt>
      <trkpt lat="44.05979" lon="6.93215">
        <ele>1862.69</ele>
        <time>2019-07-31T13:16:24Z</time>
      </trkpt>
      <trkpt lat="44.05978" lon="6.93216">
        <ele>1862.69</ele>
        <time>2019-07-31T13:16:25Z</time>
      </trkpt>
      <trkpt lat="44.05967" lon="6.93256">
        <ele>1862.21</ele>
        <time>2019-07-31T13:16:33Z</time>
      </trkpt>
      <trkpt lat="44.05965" lon="6.93269">
        <ele>1862.21</ele>
        <time>2019-07-31T13:16:35Z</time>
      </trkpt>
      <trkpt lat="44.05962" lon="6.93274">
        <ele>1862.21</ele>
        <time>2019-07-31T13:16:36Z</time>
      </trkpt>
      <trkpt lat="44.05958" lon="6.93278">
        <ele>1862.21</ele>
        <time>2019-07-31T13:16:37Z</time>
      </trkpt>
      <trkpt lat="44.05952" lon="6.93279">
        <ele>1861.73</ele>
        <time>2019-07-31T13:16:38Z</time>
      </trkpt>
      <trkpt lat="44.05946" lon="6.93278">
        <ele>1861.73</ele>
        <time>2019-07-31T13:16:39Z</time>
      </trkpt>
      <trkpt lat="44.05941" lon="6.93273">
        <ele>1861.73</ele>
        <time>2019-07-31T13:16:40Z</time>
      </trkpt>
      <trkpt lat="44.05936" lon="6.93269">
        <ele>1860.77</ele>
        <time>2019-07-31T13:16:41Z</time>
      </trkpt>
      <trkpt lat="44.05919" lon="6.93254">
        <ele>1860.29</ele>
        <time>2019-07-31T13:16:44Z</time>
      </trkpt>
      <trkpt lat="44.05906" lon="6.93248">
        <ele>1859.81</ele>
        <time>2019-07-31T13:16:46Z</time>
      </trkpt>
      <trkpt lat="44.05884" lon="6.93241">
        <ele>1857.4</ele>
        <time>2019-07-31T13:16:49Z</time>
      </trkpt>
      <trkpt lat="44.05876" lon="6.93237">
        <ele>1855.96</ele>
        <time>2019-07-31T13:16:50Z</time>
      </trkpt>
      <trkpt lat="44.05869" lon="6.93233">
        <ele>1855.96</ele>
        <time>2019-07-31T13:16:51Z</time>
      </trkpt>
      <trkpt lat="44.05856" lon="6.93223">
        <ele>1855.96</ele>
        <time>2019-07-31T13:16:53Z</time>
      </trkpt>
      <trkpt lat="44.05822" lon="6.93188">
        <ele>1852.6</ele>
        <time>2019-07-31T13:16:58Z</time>
      </trkpt>
      <trkpt lat="44.05807" lon="6.93175">
        <ele>1849.23</ele>
        <time>2019-07-31T13:17:00Z</time>
      </trkpt>
      <trkpt lat="44.05799" lon="6.93171">
        <ele>1847.31</ele>
        <time>2019-07-31T13:17:01Z</time>
      </trkpt>
      <trkpt lat="44.05774" lon="6.9316">
        <ele>1844.91</ele>
        <time>2019-07-31T13:17:04Z</time>
      </trkpt>
      <trkpt lat="44.05737" lon="6.93144">
        <ele>1842.98</ele>
        <time>2019-07-31T13:17:08Z</time>
      </trkpt>
      <trkpt lat="44.05728" lon="6.93138">
        <ele>1842.02</ele>
        <time>2019-07-31T13:17:09Z</time>
      </trkpt>
      <trkpt lat="44.05721" lon="6.93131">
        <ele>1841.54</ele>
        <time>2019-07-31T13:17:10Z</time>
      </trkpt>
      <trkpt lat="44.05714" lon="6.93121">
        <ele>1841.54</ele>
        <time>2019-07-31T13:17:11Z</time>
      </trkpt>
      <trkpt lat="44.05709" lon="6.9311">
        <ele>1841.06</ele>
        <time>2019-07-31T13:17:12Z</time>
      </trkpt>
      <trkpt lat="44.05705" lon="6.93098">
        <ele>1841.06</ele>
        <time>2019-07-31T13:17:13Z</time>
      </trkpt>
      <trkpt lat="44.05702" lon="6.93085">
        <ele>1839.62</ele>
        <time>2019-07-31T13:17:14Z</time>
      </trkpt>
      <trkpt lat="44.057" lon="6.93074">
        <ele>1839.14</ele>
        <time>2019-07-31T13:17:15Z</time>
      </trkpt>
      <trkpt lat="44.05696" lon="6.93055">
        <ele>1838.18</ele>
        <time>2019-07-31T13:17:17Z</time>
      </trkpt>
      <trkpt lat="44.05694" lon="6.9305">
        <ele>1837.22</ele>
        <time>2019-07-31T13:17:18Z</time>
      </trkpt>
      <trkpt lat="44.05691" lon="6.93047">
        <ele>1836.74</ele>
        <time>2019-07-31T13:17:19Z</time>
      </trkpt>
      <trkpt lat="44.05689" lon="6.93047">
        <ele>1835.77</ele>
        <time>2019-07-31T13:17:20Z</time>
      </trkpt>
      <trkpt lat="44.05686" lon="6.93048">
        <ele>1835.77</ele>
        <time>2019-07-31T13:17:21Z</time>
      </trkpt>
      <trkpt lat="44.05684" lon="6.93048">
        <ele>1835.29</ele>
        <time>2019-07-31T13:17:22Z</time>
      </trkpt>
      <trkpt lat="44.0568" lon="6.93048">
        <ele>1834.81</ele>
        <time>2019-07-31T13:17:24Z</time>
      </trkpt>
      <trkpt lat="44.05682" lon="6.9305">
        <ele>1828.56</ele>
        <time>2019-07-31T13:17:31Z</time>
      </trkpt>
      <trkpt lat="44.05682" lon="6.9305">
        <ele>1837.22</ele>
        <time>2019-07-31T13:17:32Z</time>
      </trkpt>
      <trkpt lat="44.05682" lon="6.93051">
        <ele>1832.41</ele>
        <time>2019-07-31T13:17:33Z</time>
      </trkpt>
      <trkpt lat="44.05683" lon="6.93051">
        <ele>1835.77</ele>
        <time>2019-07-31T13:17:35Z</time>
      </trkpt>
      <trkpt lat="44.05683" lon="6.93051">
        <ele>1832.89</ele>
        <time>2019-07-31T13:17:38Z</time>
      </trkpt>
      <trkpt lat="44.05682" lon="6.93053">
        <ele>1829.53</ele>
        <time>2019-07-31T13:17:53Z</time>
      </trkpt>
      <trkpt lat="44.05682" lon="6.93053">
        <ele>1829.53</ele>
        <time>2019-07-31T13:17:54Z</time>
      </trkpt>
      <trkpt lat="44.05682" lon="6.93052">
        <ele>1834.81</ele>
        <time>2019-07-31T13:17:55Z</time>
      </trkpt>
      <trkpt lat="44.05682" lon="6.93052">
        <ele>1832.41</ele>
        <time>2019-07-31T13:17:56Z</time>
      </trkpt>
      <trkpt lat="44.05682" lon="6.93052">
        <ele>1835.77</ele>
        <time>2019-07-31T13:17:57Z</time>
      </trkpt>
      <trkpt lat="44.05682" lon="6.93052">
        <ele>1829.53</ele>
        <time>2019-07-31T13:17:58Z</time>
      </trkpt>
      <trkpt lat="44.05682" lon="6.93052">
        <ele>1834.81</ele>
        <time>2019-07-31T13:17:59Z</time>
      </trkpt>
      <trkpt lat="44.05683" lon="6.93052">
        <ele>1832.89</ele>
        <time>2019-07-31T13:18:17Z</time>
      </trkpt>
      <trkpt lat="44.05684" lon="6.93052">
        <ele>1826.64</ele>
        <time>2019-07-31T13:18:41Z</time>
      </trkpt>
      <trkpt lat="44.05684" lon="6.93053">
        <ele>1833.37</ele>
        <time>2019-07-31T13:18:42Z</time>
      </trkpt>
      <trkpt lat="44.05684" lon="6.93053">
        <ele>1828.56</ele>
        <time>2019-07-31T13:18:44Z</time>
      </trkpt>
      <trkpt lat="44.05684" lon="6.93053">
        <ele>1835.77</ele>
        <time>2019-07-31T13:18:45Z</time>
      </trkpt>
      <trkpt lat="44.05684" lon="6.93053">
        <ele>1834.33</ele>
        <time>2019-07-31T13:18:46Z</time>
      </trkpt>
      <trkpt lat="44.05684" lon="6.93053">
        <ele>1833.37</ele>
        <time>2019-07-31T13:18:48Z</time>
      </trkpt>
      <trkpt lat="44.05684" lon="6.93053">
        <ele>1833.37</ele>
        <time>2019-07-31T13:18:53Z</time>
      </trkpt>
      <trkpt lat="44.05684" lon="6.93053">
        <ele>1835.77</ele>
        <time>2019-07-31T13:18:57Z</time>
      </trkpt>
      <trkpt lat="44.05684" lon="6.93053">
        <ele>1833.37</ele>
        <time>2019-07-31T13:19:04Z</time>
      </trkpt>
      <trkpt lat="44.05684" lon="6.93053">
        <ele>1831.45</ele>
        <time>2019-07-31T13:19:13Z</time>
      </trkpt>
      <trkpt lat="44.05683" lon="6.93053">
        <ele>1834.81</ele>
        <time>2019-07-31T13:19:18Z</time>
      </trkpt>
      <trkpt lat="44.05682" lon="6.93052">
        <ele>1833.37</ele>
        <time>2019-07-31T13:19:32Z</time>
      </trkpt>
      <trkpt lat="44.05681" lon="6.93052">
        <ele>1829.53</ele>
        <time>2019-07-31T13:19:43Z</time>
      </trkpt>
      <trkpt lat="44.05682" lon="6.93052">
        <ele>1836.26</ele>
        <time>2019-07-31T13:19:44Z</time>
      </trkpt>
      <trkpt lat="44.05682" lon="6.93052">
        <ele>1833.37</ele>
        <time>2019-07-31T13:19:47Z</time>
      </trkpt>
      <trkpt lat="44.05682" lon="6.93052">
        <ele>1836.26</ele>
        <time>2019-07-31T13:19:49Z</time>
      </trkpt>
      <trkpt lat="44.05683" lon="6.93052">
        <ele>1836.26</ele>
        <time>2019-07-31T13:19:50Z</time>
      </trkpt>
      <trkpt lat="44.05683" lon="6.93052">
        <ele>1830.97</ele>
        <time>2019-07-31T13:19:52Z</time>
      </trkpt>
      <trkpt lat="44.05683" lon="6.93052">
        <ele>1836.74</ele>
        <time>2019-07-31T13:19:53Z</time>
      </trkpt>
      <trkpt lat="44.05683" lon="6.93052">
        <ele>1833.85</ele>
        <time>2019-07-31T13:19:59Z</time>
      </trkpt>
      <trkpt lat="44.05684" lon="6.93052">
        <ele>1833.85</ele>
        <time>2019-07-31T13:20:16Z</time>
      </trkpt>
      <trkpt lat="44.05684" lon="6.93052">
        <ele>1837.22</ele>
        <time>2019-07-31T13:20:18Z</time>
      </trkpt>
      <trkpt lat="44.05684" lon="6.93053">
        <ele>1837.22</ele>
        <time>2019-07-31T13:20:19Z</time>
      </trkpt>
      <trkpt lat="44.05684" lon="6.93053">
        <ele>1831.93</ele>
        <time>2019-07-31T13:20:21Z</time>
      </trkpt>
      <trkpt lat="44.05684" lon="6.93053">
        <ele>1834.33</ele>
        <time>2019-07-31T13:20:22Z</time>
      </trkpt>
      <trkpt lat="44.05684" lon="6.93053">
        <ele>1835.77</ele>
        <time>2019-07-31T13:20:27Z</time>
      </trkpt>
      <trkpt lat="44.05684" lon="6.93053">
        <ele>1832.41</ele>
        <time>2019-07-31T13:20:29Z</time>
      </trkpt>
      <trkpt lat="44.05684" lon="6.93053">
        <ele>1832.41</ele>
        <time>2019-07-31T13:20:30Z</time>
      </trkpt>
      <trkpt lat="44.05684" lon="6.93054">
        <ele>1834.81</ele>
        <time>2019-07-31T13:20:31Z</time>
      </trkpt>
      <trkpt lat="44.05682" lon="6.93055">
        <ele>1835.29</ele>
        <time>2019-07-31T13:20:32Z</time>
      </trkpt>
      <trkpt lat="44.0568" lon="6.93056">
        <ele>1834.33</ele>
        <time>2019-07-31T13:20:33Z</time>
      </trkpt>
      <trkpt lat="44.05665" lon="6.93067">
        <ele>1833.85</ele>
        <time>2019-07-31T13:20:37Z</time>
      </trkpt>
      <trkpt lat="44.05648" lon="6.93079">
        <ele>1831.93</ele>
        <time>2019-07-31T13:20:42Z</time>
      </trkpt>
      <trkpt lat="44.05642" lon="6.93081">
        <ele>1829.53</ele>
        <time>2019-07-31T13:20:51Z</time>
      </trkpt>
      <trkpt lat="44.05641" lon="6.93082">
        <ele>1830.49</ele>
        <time>2019-07-31T13:20:52Z</time>
      </trkpt>
      <trkpt lat="44.0564" lon="6.93083">
        <ele>1830.49</ele>
        <time>2019-07-31T13:20:53Z</time>
      </trkpt>
      <trkpt lat="44.05639" lon="6.93083">
        <ele>1830.49</ele>
        <time>2019-07-31T13:20:54Z</time>
      </trkpt>
      <trkpt lat="44.05637" lon="6.93084">
        <ele>1834.81</ele>
        <time>2019-07-31T13:20:55Z</time>
      </trkpt>
      <trkpt lat="44.05634" lon="6.93087">
        <ele>1832.41</ele>
        <time>2019-07-31T13:20:56Z</time>
      </trkpt>
      <trkpt lat="44.0563" lon="6.93091">
        <ele>1832.41</ele>
        <time>2019-07-31T13:20:57Z</time>
      </trkpt>
      <trkpt lat="44.05626" lon="6.93097">
        <ele>1830.97</ele>
        <time>2019-07-31T13:20:58Z</time>
      </trkpt>
      <trkpt lat="44.05608" lon="6.93117">
        <ele>1827.12</ele>
        <time>2019-07-31T13:21:01Z</time>
      </trkpt>
      <trkpt lat="44.05596" lon="6.93134">
        <ele>1822.8</ele>
        <time>2019-07-31T13:21:03Z</time>
      </trkpt>
      <trkpt lat="44.0559" lon="6.9314">
        <ele>1821.35</ele>
        <time>2019-07-31T13:21:04Z</time>
      </trkpt>
      <trkpt lat="44.05585" lon="6.93146">
        <ele>1818.95</ele>
        <time>2019-07-31T13:21:05Z</time>
      </trkpt>
      <trkpt lat="44.05578" lon="6.93151">
        <ele>1818.95</ele>
        <time>2019-07-31T13:21:06Z</time>
      </trkpt>
      <trkpt lat="44.05571" lon="6.93154">
        <ele>1817.99</ele>
        <time>2019-07-31T13:21:07Z</time>
      </trkpt>
      <trkpt lat="44.05562" lon="6.93157">
        <ele>1817.99</ele>
        <time>2019-07-31T13:21:08Z</time>
      </trkpt>
      <trkpt lat="44.05537" lon="6.93168">
        <ele>1816.07</ele>
        <time>2019-07-31T13:21:11Z</time>
      </trkpt>
      <trkpt lat="44.05501" lon="6.93191">
        <ele>1814.15</ele>
        <time>2019-07-31T13:21:15Z</time>
      </trkpt>
      <trkpt lat="44.05482" lon="6.93202">
        <ele>1811.74</ele>
        <time>2019-07-31T13:21:17Z</time>
      </trkpt>
      <trkpt lat="44.05453" lon="6.93219">
        <ele>1806.94</ele>
        <time>2019-07-31T13:21:20Z</time>
      </trkpt>
      <trkpt lat="44.05434" lon="6.93227">
        <ele>1802.61</ele>
        <time>2019-07-31T13:21:22Z</time>
      </trkpt>
      <trkpt lat="44.05426" lon="6.93228">
        <ele>1801.17</ele>
        <time>2019-07-31T13:21:23Z</time>
      </trkpt>
      <trkpt lat="44.05418" lon="6.93227">
        <ele>1799.73</ele>
        <time>2019-07-31T13:21:24Z</time>
      </trkpt>
      <trkpt lat="44.05411" lon="6.93227">
        <ele>1798.76</ele>
        <time>2019-07-31T13:21:25Z</time>
      </trkpt>
      <trkpt lat="44.05405" lon="6.93227">
        <ele>1797.32</ele>
        <time>2019-07-31T13:21:26Z</time>
      </trkpt>
      <trkpt lat="44.05399" lon="6.93229">
        <ele>1795.88</ele>
        <time>2019-07-31T13:21:27Z</time>
      </trkpt>
      <trkpt lat="44.0539" lon="6.93231">
        <ele>1792.52</ele>
        <time>2019-07-31T13:21:30Z</time>
      </trkpt>
      <trkpt lat="44.05391" lon="6.93231">
        <ele>1792.52</ele>
        <time>2019-07-31T13:21:31Z</time>
      </trkpt>
      <trkpt lat="44.05392" lon="6.93232">
        <ele>1793</ele>
        <time>2019-07-31T13:21:48Z</time>
      </trkpt>
      <trkpt lat="44.05392" lon="6.93232">
        <ele>1791.55</ele>
        <time>2019-07-31T13:21:50Z</time>
      </trkpt>
      <trkpt lat="44.05392" lon="6.93232">
        <ele>1790.59</ele>
        <time>2019-07-31T13:21:57Z</time>
      </trkpt>
      <trkpt lat="44.05392" lon="6.93233">
        <ele>1793.96</ele>
        <time>2019-07-31T13:22:00Z</time>
      </trkpt>
      <trkpt lat="44.05392" lon="6.93233">
        <ele>1789.15</ele>
        <time>2019-07-31T13:22:03Z</time>
      </trkpt>
      <trkpt lat="44.05392" lon="6.93233">
        <ele>1794.92</ele>
        <time>2019-07-31T13:22:04Z</time>
      </trkpt>
      <trkpt lat="44.05392" lon="6.93233">
        <ele>1793.48</ele>
        <time>2019-07-31T13:22:05Z</time>
      </trkpt>
      <trkpt lat="44.05392" lon="6.93232">
        <ele>1792.52</ele>
        <time>2019-07-31T13:22:07Z</time>
      </trkpt>
      <trkpt lat="44.05392" lon="6.93232">
        <ele>1791.55</ele>
        <time>2019-07-31T13:22:13Z</time>
      </trkpt>
      <trkpt lat="44.05393" lon="6.93231">
        <ele>1791.07</ele>
        <time>2019-07-31T13:22:35Z</time>
      </trkpt>
      <trkpt lat="44.05393" lon="6.93231">
        <ele>1794.92</ele>
        <time>2019-07-31T13:22:38Z</time>
      </trkpt>
      <trkpt lat="44.05393" lon="6.93232">
        <ele>1793</ele>
        <time>2019-07-31T13:22:39Z</time>
      </trkpt>
      <trkpt lat="44.05393" lon="6.93232">
        <ele>1791.55</ele>
        <time>2019-07-31T13:22:41Z</time>
      </trkpt>
      <trkpt lat="44.05394" lon="6.93231">
        <ele>1790.11</ele>
        <time>2019-07-31T13:23:01Z</time>
      </trkpt>
      <trkpt lat="44.05394" lon="6.93231">
        <ele>1793.48</ele>
        <time>2019-07-31T13:23:02Z</time>
      </trkpt>
      <trkpt lat="44.05394" lon="6.93231">
        <ele>1789.63</ele>
        <time>2019-07-31T13:23:04Z</time>
      </trkpt>
      <trkpt lat="44.05394" lon="6.93231">
        <ele>1789.63</ele>
        <time>2019-07-31T13:23:05Z</time>
      </trkpt>
      <trkpt lat="44.05394" lon="6.9323">
        <ele>1793.96</ele>
        <time>2019-07-31T13:23:19Z</time>
      </trkpt>
      <trkpt lat="44.05394" lon="6.93229">
        <ele>1793.96</ele>
        <time>2019-07-31T13:23:20Z</time>
      </trkpt>
      <trkpt lat="44.05394" lon="6.93229">
        <ele>1791.07</ele>
        <time>2019-07-31T13:23:22Z</time>
      </trkpt>
      <trkpt lat="44.05394" lon="6.93227">
        <ele>1786.27</ele>
        <time>2019-07-31T13:23:34Z</time>
      </trkpt>
      <trkpt lat="44.05394" lon="6.93227">
        <ele>1790.59</ele>
        <time>2019-07-31T13:23:35Z</time>
      </trkpt>
      <trkpt lat="44.05394" lon="6.93227">
        <ele>1793.48</ele>
        <time>2019-07-31T13:23:40Z</time>
      </trkpt>
      <trkpt lat="44.05394" lon="6.93227">
        <ele>1786.27</ele>
        <time>2019-07-31T13:23:42Z</time>
      </trkpt>
      <trkpt lat="44.05394" lon="6.93227">
        <ele>1790.11</ele>
        <time>2019-07-31T13:23:43Z</time>
      </trkpt>
      <trkpt lat="44.05394" lon="6.93228">
        <ele>1786.75</ele>
        <time>2019-07-31T13:23:44Z</time>
      </trkpt>
      <trkpt lat="44.05394" lon="6.93229">
        <ele>1789.63</ele>
        <time>2019-07-31T13:23:45Z</time>
      </trkpt>
      <trkpt lat="44.05393" lon="6.9323">
        <ele>1794.92</ele>
        <time>2019-07-31T13:23:47Z</time>
      </trkpt>
      <trkpt lat="44.05393" lon="6.9323">
        <ele>1791.55</ele>
        <time>2019-07-31T13:23:48Z</time>
      </trkpt>
      <trkpt lat="44.05393" lon="6.93229">
        <ele>1789.63</ele>
        <time>2019-07-31T13:24:22Z</time>
      </trkpt>
      <trkpt lat="44.05393" lon="6.9323">
        <ele>1789.63</ele>
        <time>2019-07-31T13:25:02Z</time>
      </trkpt>
      <trkpt lat="44.05394" lon="6.9323">
        <ele>1785.31</ele>
        <time>2019-07-31T13:25:46Z</time>
      </trkpt>
      <trkpt lat="44.05394" lon="6.9323">
        <ele>1788.67</ele>
        <time>2019-07-31T13:25:47Z</time>
      </trkpt>
      <trkpt lat="44.05394" lon="6.93228">
        <ele>1793</ele>
        <time>2019-07-31T13:25:53Z</time>
      </trkpt>
      <trkpt lat="44.05394" lon="6.93227">
        <ele>1791.07</ele>
        <time>2019-07-31T13:25:54Z</time>
      </trkpt>
      <trkpt lat="44.05393" lon="6.93227">
        <ele>1790.11</ele>
        <time>2019-07-31T13:25:56Z</time>
      </trkpt>
      <trkpt lat="44.05395" lon="6.93228">
        <ele>1788.67</ele>
        <time>2019-07-31T13:26:15Z</time>
      </trkpt>
      <trkpt lat="44.05395" lon="6.93227">
        <ele>1788.19</ele>
        <time>2019-07-31T13:26:31Z</time>
      </trkpt>
      <trkpt lat="44.05395" lon="6.93227">
        <ele>1791.55</ele>
        <time>2019-07-31T13:26:34Z</time>
      </trkpt>
      <trkpt lat="44.05395" lon="6.93227">
        <ele>1791.55</ele>
        <time>2019-07-31T13:26:35Z</time>
      </trkpt>
      <trkpt lat="44.05395" lon="6.93227">
        <ele>1788.19</ele>
        <time>2019-07-31T13:26:40Z</time>
      </trkpt>
      <trkpt lat="44.05393" lon="6.93229">
        <ele>1791.55</ele>
        <time>2019-07-31T13:26:50Z</time>
      </trkpt>
      <trkpt lat="44.05393" lon="6.93228">
        <ele>1791.55</ele>
        <time>2019-07-31T13:26:51Z</time>
      </trkpt>
      <trkpt lat="44.05392" lon="6.9323">
        <ele>1789.15</ele>
        <time>2019-07-31T13:26:53Z</time>
      </trkpt>
      <trkpt lat="44.0539" lon="6.93229">
        <ele>1790.59</ele>
        <time>2019-07-31T13:26:59Z</time>
      </trkpt>
      <trkpt lat="44.05389" lon="6.9323">
        <ele>1788.67</ele>
        <time>2019-07-31T13:27:04Z</time>
      </trkpt>
      <trkpt lat="44.0539" lon="6.93228">
        <ele>1790.11</ele>
        <time>2019-07-31T13:27:06Z</time>
      </trkpt>
      <trkpt lat="44.05393" lon="6.93227">
        <ele>1790.11</ele>
        <time>2019-07-31T13:27:09Z</time>
      </trkpt>
      <trkpt lat="44.05394" lon="6.93225">
        <ele>1789.63</ele>
        <time>2019-07-31T13:27:16Z</time>
      </trkpt>
      <trkpt lat="44.05396" lon="6.93227">
        <ele>1790.11</ele>
        <time>2019-07-31T13:27:22Z</time>
      </trkpt>
      <trkpt lat="44.05397" lon="6.93227">
        <ele>1790.11</ele>
        <time>2019-07-31T13:27:23Z</time>
      </trkpt>
      <trkpt lat="44.05419" lon="6.93226">
        <ele>1793.48</ele>
        <time>2019-07-31T13:27:41Z</time>
      </trkpt>
      <trkpt lat="44.05441" lon="6.93224">
        <ele>1794.92</ele>
        <time>2019-07-31T13:28:00Z</time>
      </trkpt>
      <trkpt lat="44.05462" lon="6.93215">
        <ele>1798.76</ele>
        <time>2019-07-31T13:28:19Z</time>
      </trkpt>
      <trkpt lat="44.05463" lon="6.93215">
        <ele>1798.76</ele>
        <time>2019-07-31T13:28:20Z</time>
      </trkpt>
      <trkpt lat="44.0547" lon="6.93212">
        <ele>1799.24</ele>
        <time>2019-07-31T13:28:26Z</time>
      </trkpt>
      <trkpt lat="44.05471" lon="6.93211">
        <ele>1799.24</ele>
        <time>2019-07-31T13:28:27Z</time>
      </trkpt>
      <trkpt lat="44.05472" lon="6.93211">
        <ele>1799.24</ele>
        <time>2019-07-31T13:28:28Z</time>
      </trkpt>
      <trkpt lat="44.05477" lon="6.93208">
        <ele>1800.69</ele>
        <time>2019-07-31T13:28:33Z</time>
      </trkpt>
      <trkpt lat="44.05493" lon="6.93197">
        <ele>1802.61</ele>
        <time>2019-07-31T13:28:50Z</time>
      </trkpt>
      <trkpt lat="44.05508" lon="6.9319">
        <ele>1803.09</ele>
        <time>2019-07-31T13:29:06Z</time>
      </trkpt>
      <trkpt lat="44.05511" lon="6.93189">
        <ele>1805.01</ele>
        <time>2019-07-31T13:29:08Z</time>
      </trkpt>
      <trkpt lat="44.05525" lon="6.93179">
        <ele>1806.45</ele>
        <time>2019-07-31T13:29:25Z</time>
      </trkpt>
      <trkpt lat="44.05536" lon="6.93172">
        <ele>1807.9</ele>
        <time>2019-07-31T13:29:36Z</time>
      </trkpt>
      <trkpt lat="44.05556" lon="6.9316">
        <ele>1810.3</ele>
        <time>2019-07-31T13:29:55Z</time>
      </trkpt>
      <trkpt lat="44.05562" lon="6.93158">
        <ele>1811.26</ele>
        <time>2019-07-31T13:30:01Z</time>
      </trkpt>
      <trkpt lat="44.05585" lon="6.93145">
        <ele>1813.66</ele>
        <time>2019-07-31T13:30:21Z</time>
      </trkpt>
      <trkpt lat="44.05607" lon="6.93119">
        <ele>1817.03</ele>
        <time>2019-07-31T13:30:32Z</time>
      </trkpt>
      <trkpt lat="44.0561" lon="6.93116">
        <ele>1817.51</ele>
        <time>2019-07-31T13:30:34Z</time>
      </trkpt>
      <trkpt lat="44.05619" lon="6.93107">
        <ele>1820.87</ele>
        <time>2019-07-31T13:30:39Z</time>
      </trkpt>
      <trkpt lat="44.05622" lon="6.93102">
        <ele>1821.35</ele>
        <time>2019-07-31T13:30:41Z</time>
      </trkpt>
      <trkpt lat="44.05625" lon="6.93098">
        <ele>1822.8</ele>
        <time>2019-07-31T13:30:43Z</time>
      </trkpt>
      <trkpt lat="44.0563" lon="6.93091">
        <ele>1824.24</ele>
        <time>2019-07-31T13:30:46Z</time>
      </trkpt>
      <trkpt lat="44.05638" lon="6.93082">
        <ele>1827.12</ele>
        <time>2019-07-31T13:30:51Z</time>
      </trkpt>
      <trkpt lat="44.0564" lon="6.93076">
        <ele>1827.12</ele>
        <time>2019-07-31T13:31:02Z</time>
      </trkpt>
      <trkpt lat="44.05642" lon="6.93077">
        <ele>1828.56</ele>
        <time>2019-07-31T13:31:04Z</time>
      </trkpt>
      <trkpt lat="44.05643" lon="6.93079">
        <ele>1829.05</ele>
        <time>2019-07-31T13:31:17Z</time>
      </trkpt>
      <trkpt lat="44.05645" lon="6.93079">
        <ele>1827.6</ele>
        <time>2019-07-31T13:31:43Z</time>
      </trkpt>
      <trkpt lat="44.05645" lon="6.93081">
        <ele>1829.05</ele>
        <time>2019-07-31T13:31:49Z</time>
      </trkpt>
      <trkpt lat="44.05644" lon="6.9308">
        <ele>1830.01</ele>
        <time>2019-07-31T13:31:59Z</time>
      </trkpt>
      <trkpt lat="44.05644" lon="6.93081">
        <ele>1826.64</ele>
        <time>2019-07-31T13:32:13Z</time>
      </trkpt>
      <trkpt lat="44.05645" lon="6.93082">
        <ele>1827.12</ele>
        <time>2019-07-31T13:32:19Z</time>
      </trkpt>
      <trkpt lat="44.05645" lon="6.93082">
        <ele>1828.56</ele>
        <time>2019-07-31T13:32:21Z</time>
      </trkpt>
      <trkpt lat="44.05643" lon="6.93081">
        <ele>1828.56</ele>
        <time>2019-07-31T13:32:25Z</time>
      </trkpt>
      <trkpt lat="44.05638" lon="6.93077">
        <ele>1829.05</ele>
        <time>2019-07-31T13:32:37Z</time>
      </trkpt>
      <trkpt lat="44.05637" lon="6.93079">
        <ele>1827.6</ele>
        <time>2019-07-31T13:32:50Z</time>
      </trkpt>
      <trkpt lat="44.05637" lon="6.93078">
        <ele>1821.35</ele>
        <time>2019-07-31T13:32:52Z</time>
      </trkpt>
      <trkpt lat="44.05637" lon="6.93078">
        <ele>1828.08</ele>
        <time>2019-07-31T13:32:53Z</time>
      </trkpt>
      <trkpt lat="44.05637" lon="6.93078">
        <ele>1824.72</ele>
        <time>2019-07-31T13:32:54Z</time>
      </trkpt>
      <trkpt lat="44.05638" lon="6.93077">
        <ele>1832.41</ele>
        <time>2019-07-31T13:32:55Z</time>
      </trkpt>
      <trkpt lat="44.05638" lon="6.93077">
        <ele>1829.05</ele>
        <time>2019-07-31T13:32:56Z</time>
      </trkpt>
      <trkpt lat="44.05637" lon="6.93076">
        <ele>1827.6</ele>
        <time>2019-07-31T13:32:58Z</time>
      </trkpt>
      <trkpt lat="44.05637" lon="6.93075">
        <ele>1827.12</ele>
        <time>2019-07-31T13:33:25Z</time>
      </trkpt>
      <trkpt lat="44.05637" lon="6.93077">
        <ele>1827.12</ele>
        <time>2019-07-31T13:33:53Z</time>
      </trkpt>
      <trkpt lat="44.05636" lon="6.93077">
        <ele>1827.12</ele>
        <time>2019-07-31T13:34:31Z</time>
      </trkpt>
      <trkpt lat="44.05636" lon="6.93079">
        <ele>1826.64</ele>
        <time>2019-07-31T13:35:12Z</time>
      </trkpt>
      <trkpt lat="44.05636" lon="6.93077">
        <ele>1826.64</ele>
        <time>2019-07-31T13:36:05Z</time>
      </trkpt>
      <trkpt lat="44.05637" lon="6.93077">
        <ele>1822.32</ele>
        <time>2019-07-31T13:36:35Z</time>
      </trkpt>
      <trkpt lat="44.05637" lon="6.93077">
        <ele>1829.05</ele>
        <time>2019-07-31T13:36:36Z</time>
      </trkpt>
      <trkpt lat="44.05637" lon="6.93077">
        <ele>1829.05</ele>
        <time>2019-07-31T13:36:37Z</time>
      </trkpt>
      <trkpt lat="44.05637" lon="6.93078">
        <ele>1827.12</ele>
        <time>2019-07-31T13:36:44Z</time>
      </trkpt>
      <trkpt lat="44.05637" lon="6.93078">
        <ele>1827.12</ele>
        <time>2019-07-31T13:37:11Z</time>
      </trkpt>
      <trkpt lat="44.05637" lon="6.9308">
        <ele>1826.16</ele>
        <time>2019-07-31T13:37:43Z</time>
      </trkpt>
      <trkpt lat="44.05637" lon="6.93078">
        <ele>1825.68</ele>
        <time>2019-07-31T13:38:11Z</time>
      </trkpt>
      <trkpt lat="44.05638" lon="6.93079">
        <ele>1824.72</ele>
        <time>2019-07-31T13:38:39Z</time>
      </trkpt>
      <trkpt lat="44.05638" lon="6.93077">
        <ele>1826.16</ele>
        <time>2019-07-31T13:38:44Z</time>
      </trkpt>
      <trkpt lat="44.05639" lon="6.93078">
        <ele>1827.12</ele>
        <time>2019-07-31T13:39:07Z</time>
      </trkpt>
      <trkpt lat="44.0564" lon="6.93076">
        <ele>1827.12</ele>
        <time>2019-07-31T13:39:17Z</time>
      </trkpt>
      <trkpt lat="44.05638" lon="6.93074">
        <ele>1827.12</ele>
        <time>2019-07-31T13:39:19Z</time>
      </trkpt>
      <trkpt lat="44.05638" lon="6.93073">
        <ele>1827.12</ele>
        <time>2019-07-31T13:39:20Z</time>
      </trkpt>
      <trkpt lat="44.05613" lon="6.93054">
        <ele>1830.49</ele>
        <time>2019-07-31T13:39:30Z</time>
      </trkpt>
      <trkpt lat="44.05568" lon="6.93041">
        <ele>1830.01</ele>
        <time>2019-07-31T13:39:38Z</time>
      </trkpt>
      <trkpt lat="44.05552" lon="6.93035">
        <ele>1831.93</ele>
        <time>2019-07-31T13:39:41Z</time>
      </trkpt>
      <trkpt lat="44.05534" lon="6.93026">
        <ele>1835.29</ele>
        <time>2019-07-31T13:39:46Z</time>
      </trkpt>
      <trkpt lat="44.05519" lon="6.93019">
        <ele>1839.62</ele>
        <time>2019-07-31T13:39:51Z</time>
      </trkpt>
      <trkpt lat="44.05503" lon="6.93004">
        <ele>1842.98</ele>
        <time>2019-07-31T13:40:01Z</time>
      </trkpt>
      <trkpt lat="44.05497" lon="6.92997">
        <ele>1842.98</ele>
        <time>2019-07-31T13:40:03Z</time>
      </trkpt>
      <trkpt lat="44.05481" lon="6.92974">
        <ele>1840.58</ele>
        <time>2019-07-31T13:40:06Z</time>
      </trkpt>
      <trkpt lat="44.05474" lon="6.92966">
        <ele>1840.58</ele>
        <time>2019-07-31T13:40:07Z</time>
      </trkpt>
      <trkpt lat="44.0546" lon="6.92954">
        <ele>1839.14</ele>
        <time>2019-07-31T13:40:09Z</time>
      </trkpt>
      <trkpt lat="44.05455" lon="6.92949">
        <ele>1839.14</ele>
        <time>2019-07-31T13:40:10Z</time>
      </trkpt>
      <trkpt lat="44.05445" lon="6.92942">
        <ele>1839.14</ele>
        <time>2019-07-31T13:40:12Z</time>
      </trkpt>
      <trkpt lat="44.05442" lon="6.92938">
        <ele>1839.14</ele>
        <time>2019-07-31T13:40:13Z</time>
      </trkpt>
      <trkpt lat="44.05437" lon="6.9293">
        <ele>1841.54</ele>
        <time>2019-07-31T13:40:16Z</time>
      </trkpt>
      <trkpt lat="44.05436" lon="6.92922">
        <ele>1842.5</ele>
        <time>2019-07-31T13:40:24Z</time>
      </trkpt>
      <trkpt lat="44.05435" lon="6.9292">
        <ele>1842.5</ele>
        <time>2019-07-31T13:40:25Z</time>
      </trkpt>
      <trkpt lat="44.05428" lon="6.92904">
        <ele>1842.5</ele>
        <time>2019-07-31T13:40:28Z</time>
      </trkpt>
      <trkpt lat="44.0541" lon="6.92879">
        <ele>1841.06</ele>
        <time>2019-07-31T13:40:31Z</time>
      </trkpt>
      <trkpt lat="44.05395" lon="6.92862">
        <ele>1840.58</ele>
        <time>2019-07-31T13:40:34Z</time>
      </trkpt>
      <trkpt lat="44.0539" lon="6.92859">
        <ele>1840.58</ele>
        <time>2019-07-31T13:40:35Z</time>
      </trkpt>
      <trkpt lat="44.05377" lon="6.9285">
        <ele>1843.47</ele>
        <time>2019-07-31T13:40:39Z</time>
      </trkpt>
      <trkpt lat="44.05366" lon="6.92841">
        <ele>1845.87</ele>
        <time>2019-07-31T13:40:43Z</time>
      </trkpt>
      <trkpt lat="44.05361" lon="6.92839">
        <ele>1847.31</ele>
        <time>2019-07-31T13:40:45Z</time>
      </trkpt>
      <trkpt lat="44.05347" lon="6.92831">
        <ele>1850.68</ele>
        <time>2019-07-31T13:40:51Z</time>
      </trkpt>
      <trkpt lat="44.05341" lon="6.92825">
        <ele>1853.08</ele>
        <time>2019-07-31T13:40:55Z</time>
      </trkpt>
      <trkpt lat="44.05331" lon="6.92816">
        <ele>1855.96</ele>
        <time>2019-07-31T13:41:00Z</time>
      </trkpt>
      <trkpt lat="44.05327" lon="6.92812">
        <ele>1857.89</ele>
        <time>2019-07-31T13:41:03Z</time>
      </trkpt>
      <trkpt lat="44.05324" lon="6.92809">
        <ele>1859.33</ele>
        <time>2019-07-31T13:41:05Z</time>
      </trkpt>
      <trkpt lat="44.05318" lon="6.92802">
        <ele>1861.25</ele>
        <time>2019-07-31T13:41:09Z</time>
      </trkpt>
      <trkpt lat="44.0531" lon="6.92795">
        <ele>1864.61</ele>
        <time>2019-07-31T13:41:14Z</time>
      </trkpt>
      <trkpt lat="44.05302" lon="6.92786">
        <ele>1867.5</ele>
        <time>2019-07-31T13:41:19Z</time>
      </trkpt>
      <trkpt lat="44.05301" lon="6.92784">
        <ele>1867.5</ele>
        <time>2019-07-31T13:41:20Z</time>
      </trkpt>
      <trkpt lat="44.05291" lon="6.92757">
        <ele>1870.38</ele>
        <time>2019-07-31T13:41:32Z</time>
      </trkpt>
      <trkpt lat="44.05278" lon="6.92731">
        <ele>1870.86</ele>
        <time>2019-07-31T13:41:42Z</time>
      </trkpt>
      <trkpt lat="44.05276" lon="6.92727">
        <ele>1870.86</ele>
        <time>2019-07-31T13:41:43Z</time>
      </trkpt>
      <trkpt lat="44.05247" lon="6.92701">
        <ele>1874.23</ele>
        <time>2019-07-31T13:41:53Z</time>
      </trkpt>
      <trkpt lat="44.05236" lon="6.92693">
        <ele>1876.15</ele>
        <time>2019-07-31T13:41:57Z</time>
      </trkpt>
      <trkpt lat="44.05223" lon="6.92685">
        <ele>1880.48</ele>
        <time>2019-07-31T13:42:03Z</time>
      </trkpt>
      <trkpt lat="44.05221" lon="6.92685">
        <ele>1880.48</ele>
        <time>2019-07-31T13:42:04Z</time>
      </trkpt>
      <trkpt lat="44.05204" lon="6.92684">
        <ele>1884.32</ele>
        <time>2019-07-31T13:42:10Z</time>
      </trkpt>
      <trkpt lat="44.05192" lon="6.9269">
        <ele>1887.21</ele>
        <time>2019-07-31T13:42:15Z</time>
      </trkpt>
      <trkpt lat="44.05187" lon="6.92692">
        <ele>1888.17</ele>
        <time>2019-07-31T13:42:17Z</time>
      </trkpt>
      <trkpt lat="44.05174" lon="6.92699">
        <ele>1891.53</ele>
        <time>2019-07-31T13:42:22Z</time>
      </trkpt>
      <trkpt lat="44.0516" lon="6.92705">
        <ele>1893.45</ele>
        <time>2019-07-31T13:42:27Z</time>
      </trkpt>
      <trkpt lat="44.05152" lon="6.92708">
        <ele>1894.9</ele>
        <time>2019-07-31T13:42:30Z</time>
      </trkpt>
      <trkpt lat="44.0514" lon="6.92715">
        <ele>1898.26</ele>
        <time>2019-07-31T13:42:35Z</time>
      </trkpt>
      <trkpt lat="44.05137" lon="6.92716">
        <ele>1898.26</ele>
        <time>2019-07-31T13:42:36Z</time>
      </trkpt>
      <trkpt lat="44.05122" lon="6.92726">
        <ele>1902.11</ele>
        <time>2019-07-31T13:42:42Z</time>
      </trkpt>
      <trkpt lat="44.05119" lon="6.92727">
        <ele>1902.11</ele>
        <time>2019-07-31T13:42:43Z</time>
      </trkpt>
      <trkpt lat="44.05105" lon="6.92736">
        <ele>1905.47</ele>
        <time>2019-07-31T13:42:49Z</time>
      </trkpt>
      <trkpt lat="44.05098" lon="6.92739">
        <ele>1906.91</ele>
        <time>2019-07-31T13:42:52Z</time>
      </trkpt>
      <trkpt lat="44.05084" lon="6.92744">
        <ele>1909.32</ele>
        <time>2019-07-31T13:42:57Z</time>
      </trkpt>
      <trkpt lat="44.05062" lon="6.92751">
        <ele>1913.16</ele>
        <time>2019-07-31T13:43:06Z</time>
      </trkpt>
      <trkpt lat="44.05049" lon="6.92755">
        <ele>1915.08</ele>
        <time>2019-07-31T13:43:11Z</time>
      </trkpt>
      <trkpt lat="44.05026" lon="6.92754">
        <ele>1918.93</ele>
        <time>2019-07-31T13:43:20Z</time>
      </trkpt>
      <trkpt lat="44.05021" lon="6.92753">
        <ele>1919.41</ele>
        <time>2019-07-31T13:43:22Z</time>
      </trkpt>
      <trkpt lat="44.05005" lon="6.92735">
        <ele>1922.77</ele>
        <time>2019-07-31T13:43:30Z</time>
      </trkpt>
      <trkpt lat="44.04998" lon="6.92725">
        <ele>1924.22</ele>
        <time>2019-07-31T13:43:34Z</time>
      </trkpt>
      <trkpt lat="44.04994" lon="6.92717">
        <ele>1926.14</ele>
        <time>2019-07-31T13:43:37Z</time>
      </trkpt>
      <trkpt lat="44.04993" lon="6.92699">
        <ele>1928.54</ele>
        <time>2019-07-31T13:43:43Z</time>
      </trkpt>
      <trkpt lat="44.04997" lon="6.92686">
        <ele>1929.98</ele>
        <time>2019-07-31T13:43:48Z</time>
      </trkpt>
      <trkpt lat="44.05003" lon="6.92671">
        <ele>1933.35</ele>
        <time>2019-07-31T13:43:53Z</time>
      </trkpt>
      <trkpt lat="44.05012" lon="6.92649">
        <ele>1937.19</ele>
        <time>2019-07-31T13:44:00Z</time>
      </trkpt>
      <trkpt lat="44.05017" lon="6.92633">
        <ele>1941.04</ele>
        <time>2019-07-31T13:44:06Z</time>
      </trkpt>
      <trkpt lat="44.05019" lon="6.92627">
        <ele>1941.52</ele>
        <time>2019-07-31T13:44:08Z</time>
      </trkpt>
      <trkpt lat="44.0502" lon="6.92618">
        <ele>1943.44</ele>
        <time>2019-07-31T13:44:11Z</time>
      </trkpt>
      <trkpt lat="44.0502" lon="6.92605">
        <ele>1946.81</ele>
        <time>2019-07-31T13:44:16Z</time>
      </trkpt>
      <trkpt lat="44.05022" lon="6.92604">
        <ele>1946.81</ele>
        <time>2019-07-31T13:44:17Z</time>
      </trkpt>
      <trkpt lat="44.05024" lon="6.92603">
        <ele>1947.29</ele>
        <time>2019-07-31T13:44:18Z</time>
      </trkpt>
      <trkpt lat="44.05026" lon="6.92605">
        <ele>1947.29</ele>
        <time>2019-07-31T13:44:19Z</time>
      </trkpt>
      <trkpt lat="44.05028" lon="6.92607">
        <ele>1948.25</ele>
        <time>2019-07-31T13:44:20Z</time>
      </trkpt>
      <trkpt lat="44.0503" lon="6.9261">
        <ele>1948.25</ele>
        <time>2019-07-31T13:44:21Z</time>
      </trkpt>
      <trkpt lat="44.05031" lon="6.92613">
        <ele>1948.25</ele>
        <time>2019-07-31T13:44:22Z</time>
      </trkpt>
      <trkpt lat="44.05037" lon="6.92624">
        <ele>1951.13</ele>
        <time>2019-07-31T13:44:26Z</time>
      </trkpt>
      <trkpt lat="44.05038" lon="6.92625">
        <ele>1951.61</ele>
        <time>2019-07-31T13:44:27Z</time>
      </trkpt>
      <trkpt lat="44.0504" lon="6.92626">
        <ele>1952.09</ele>
        <time>2019-07-31T13:44:28Z</time>
      </trkpt>
      <trkpt lat="44.05043" lon="6.92625">
        <ele>1952.09</ele>
        <time>2019-07-31T13:44:29Z</time>
      </trkpt>
      <trkpt lat="44.05045" lon="6.92624">
        <ele>1953.06</ele>
        <time>2019-07-31T13:44:30Z</time>
      </trkpt>
      <trkpt lat="44.05046" lon="6.92622">
        <ele>1953.54</ele>
        <time>2019-07-31T13:44:31Z</time>
      </trkpt>
      <trkpt lat="44.05047" lon="6.9262">
        <ele>1954.5</ele>
        <time>2019-07-31T13:44:32Z</time>
      </trkpt>
      <trkpt lat="44.05047" lon="6.92617">
        <ele>1954.98</ele>
        <time>2019-07-31T13:44:33Z</time>
      </trkpt>
      <trkpt lat="44.05046" lon="6.92614">
        <ele>1956.42</ele>
        <time>2019-07-31T13:44:34Z</time>
      </trkpt>
      <trkpt lat="44.05045" lon="6.92611">
        <ele>1956.42</ele>
        <time>2019-07-31T13:44:35Z</time>
      </trkpt>
      <trkpt lat="44.05046" lon="6.92608">
        <ele>1956.42</ele>
        <time>2019-07-31T13:44:36Z</time>
      </trkpt>
      <trkpt lat="44.05046" lon="6.92604">
        <ele>1957.38</ele>
        <time>2019-07-31T13:44:37Z</time>
      </trkpt>
      <trkpt lat="44.05046" lon="6.92576">
        <ele>1959.3</ele>
        <time>2019-07-31T13:44:44Z</time>
      </trkpt>
      <trkpt lat="44.05045" lon="6.92561">
        <ele>1962.67</ele>
        <time>2019-07-31T13:44:49Z</time>
      </trkpt>
      <trkpt lat="44.05045" lon="6.92559">
        <ele>1962.67</ele>
        <time>2019-07-31T13:44:50Z</time>
      </trkpt>
      <trkpt lat="44.05046" lon="6.92552">
        <ele>1964.11</ele>
        <time>2019-07-31T13:44:53Z</time>
      </trkpt>
      <trkpt lat="44.05048" lon="6.92524">
        <ele>1967.48</ele>
        <time>2019-07-31T13:45:02Z</time>
      </trkpt>
      <trkpt lat="44.05046" lon="6.9251">
        <ele>1968.92</ele>
        <time>2019-07-31T13:45:06Z</time>
      </trkpt>
      <trkpt lat="44.05039" lon="6.92481">
        <ele>1971.8</ele>
        <time>2019-07-31T13:45:15Z</time>
      </trkpt>
      <trkpt lat="44.05033" lon="6.92472">
        <ele>1973.24</ele>
        <time>2019-07-31T13:45:19Z</time>
      </trkpt>
      <trkpt lat="44.05023" lon="6.92426">
        <ele>1976.13</ele>
        <time>2019-07-31T13:45:34Z</time>
      </trkpt>
      <trkpt lat="44.05025" lon="6.92395">
        <ele>1979.49</ele>
        <time>2019-07-31T13:45:44Z</time>
      </trkpt>
      <trkpt lat="44.05032" lon="6.92388">
        <ele>1980.93</ele>
        <time>2019-07-31T13:45:51Z</time>
      </trkpt>
      <trkpt lat="44.05034" lon="6.92387">
        <ele>1980.93</ele>
        <time>2019-07-31T13:45:52Z</time>
      </trkpt>
      <trkpt lat="44.05034" lon="6.92383">
        <ele>1980.93</ele>
        <time>2019-07-31T13:46:05Z</time>
      </trkpt>
      <trkpt lat="44.05038" lon="6.9238">
        <ele>1979.97</ele>
        <time>2019-07-31T13:46:20Z</time>
      </trkpt>
      <trkpt lat="44.05036" lon="6.92378">
        <ele>1980.93</ele>
        <time>2019-07-31T13:46:39Z</time>
      </trkpt>
      <trkpt lat="44.05036" lon="6.92378">
        <ele>1980.93</ele>
        <time>2019-07-31T13:47:04Z</time>
      </trkpt>
      <trkpt lat="44.05035" lon="6.92378">
        <ele>1980.93</ele>
        <time>2019-07-31T13:47:17Z</time>
      </trkpt>
      <trkpt lat="44.05035" lon="6.92385">
        <ele>1980.93</ele>
        <time>2019-07-31T13:47:33Z</time>
      </trkpt>
      <trkpt lat="44.05036" lon="6.92388">
        <ele>1981.41</ele>
        <time>2019-07-31T13:48:07Z</time>
      </trkpt>
      <trkpt lat="44.05035" lon="6.92386">
        <ele>1981.9</ele>
        <time>2019-07-31T13:48:29Z</time>
      </trkpt>
      <trkpt lat="44.05035" lon="6.92385">
        <ele>1982.38</ele>
        <time>2019-07-31T13:48:40Z</time>
      </trkpt>
      <trkpt lat="44.05035" lon="6.92385">
        <ele>1980.93</ele>
        <time>2019-07-31T13:48:42Z</time>
      </trkpt>
      <trkpt lat="44.05035" lon="6.92384">
        <ele>1981.9</ele>
        <time>2019-07-31T13:49:04Z</time>
      </trkpt>
      <trkpt lat="44.05035" lon="6.92384">
        <ele>1979.49</ele>
        <time>2019-07-31T13:49:09Z</time>
      </trkpt>
      <trkpt lat="44.05034" lon="6.92382">
        <ele>1979.49</ele>
        <time>2019-07-31T13:49:40Z</time>
      </trkpt>
      <trkpt lat="44.05034" lon="6.92384">
        <ele>1979.49</ele>
        <time>2019-07-31T13:50:20Z</time>
      </trkpt>
      <trkpt lat="44.05035" lon="6.92385">
        <ele>1979.97</ele>
        <time>2019-07-31T13:50:49Z</time>
      </trkpt>
      <trkpt lat="44.05035" lon="6.92385">
        <ele>1979.97</ele>
        <time>2019-07-31T13:51:25Z</time>
      </trkpt>
      <trkpt lat="44.05034" lon="6.92385">
        <ele>1979.97</ele>
        <time>2019-07-31T13:52:04Z</time>
      </trkpt>
      <trkpt lat="44.05034" lon="6.92385">
        <ele>1981.41</ele>
        <time>2019-07-31T13:52:32Z</time>
      </trkpt>
      <trkpt lat="44.05035" lon="6.92385">
        <ele>1981.9</ele>
        <time>2019-07-31T13:53:03Z</time>
      </trkpt>
      <trkpt lat="44.05035" lon="6.92385">
        <ele>1981.9</ele>
        <time>2019-07-31T13:53:33Z</time>
      </trkpt>
      <trkpt lat="44.05034" lon="6.92385">
        <ele>1982.38</ele>
        <time>2019-07-31T13:54:10Z</time>
      </trkpt>
      <trkpt lat="44.05035" lon="6.92384">
        <ele>1982.38</ele>
        <time>2019-07-31T13:54:51Z</time>
      </trkpt>
      <trkpt lat="44.05035" lon="6.92384">
        <ele>1982.86</ele>
        <time>2019-07-31T13:55:20Z</time>
      </trkpt>
      <trkpt lat="44.05034" lon="6.92384">
        <ele>1982.86</ele>
        <time>2019-07-31T13:55:57Z</time>
      </trkpt>
      <trkpt lat="44.05035" lon="6.92384">
        <ele>1983.34</ele>
        <time>2019-07-31T13:56:28Z</time>
      </trkpt>
      <trkpt lat="44.05034" lon="6.92382">
        <ele>1983.82</ele>
        <time>2019-07-31T13:56:56Z</time>
      </trkpt>
      <trkpt lat="44.05035" lon="6.92382">
        <ele>1983.82</ele>
        <time>2019-07-31T13:57:23Z</time>
      </trkpt>
      <trkpt lat="44.05034" lon="6.92385">
        <ele>1984.3</ele>
        <time>2019-07-31T13:57:44Z</time>
      </trkpt>
      <trkpt lat="44.05034" lon="6.92385">
        <ele>1982.86</ele>
        <time>2019-07-31T13:58:24Z</time>
      </trkpt>
      <trkpt lat="44.05034" lon="6.92385">
        <ele>1981.9</ele>
        <time>2019-07-31T13:58:25Z</time>
      </trkpt>
      <trkpt lat="44.05034" lon="6.92384">
        <ele>1985.26</ele>
        <time>2019-07-31T13:58:27Z</time>
      </trkpt>
      <trkpt lat="44.05034" lon="6.92385">
        <ele>1985.26</ele>
        <time>2019-07-31T13:58:28Z</time>
      </trkpt>
      <trkpt lat="44.05034" lon="6.92385">
        <ele>1985.26</ele>
        <time>2019-07-31T13:58:39Z</time>
      </trkpt>
      <trkpt lat="44.05024" lon="6.92403">
        <ele>1985.74</ele>
        <time>2019-07-31T13:58:44Z</time>
      </trkpt>
      <trkpt lat="44.05023" lon="6.92411">
        <ele>1984.3</ele>
        <time>2019-07-31T13:58:45Z</time>
      </trkpt>
      <trkpt lat="44.05023" lon="6.92421">
        <ele>1984.3</ele>
        <time>2019-07-31T13:58:46Z</time>
      </trkpt>
      <trkpt lat="44.05023" lon="6.92431">
        <ele>1983.34</ele>
        <time>2019-07-31T13:58:47Z</time>
      </trkpt>
      <trkpt lat="44.05025" lon="6.92442">
        <ele>1982.86</ele>
        <time>2019-07-31T13:58:48Z</time>
      </trkpt>
      <trkpt lat="44.05029" lon="6.92463">
        <ele>1979.97</ele>
        <time>2019-07-31T13:58:50Z</time>
      </trkpt>
      <trkpt lat="44.05032" lon="6.92471">
        <ele>1979.49</ele>
        <time>2019-07-31T13:58:51Z</time>
      </trkpt>
      <trkpt lat="44.05041" lon="6.9249">
        <ele>1978.53</ele>
        <time>2019-07-31T13:58:53Z</time>
      </trkpt>
      <trkpt lat="44.05044" lon="6.92501">
        <ele>1977.57</ele>
        <time>2019-07-31T13:58:54Z</time>
      </trkpt>
      <trkpt lat="44.05047" lon="6.92513">
        <ele>1977.09</ele>
        <time>2019-07-31T13:58:55Z</time>
      </trkpt>
      <trkpt lat="44.05047" lon="6.92526">
        <ele>1976.13</ele>
        <time>2019-07-31T13:58:56Z</time>
      </trkpt>
      <trkpt lat="44.05047" lon="6.92538">
        <ele>1974.69</ele>
        <time>2019-07-31T13:58:57Z</time>
      </trkpt>
      <trkpt lat="44.05047" lon="6.9255">
        <ele>1972.76</ele>
        <time>2019-07-31T13:58:58Z</time>
      </trkpt>
      <trkpt lat="44.05045" lon="6.9257">
        <ele>1969.4</ele>
        <time>2019-07-31T13:59:00Z</time>
      </trkpt>
      <trkpt lat="44.05045" lon="6.92581">
        <ele>1967.48</ele>
        <time>2019-07-31T13:59:01Z</time>
      </trkpt>
      <trkpt lat="44.05046" lon="6.92611">
        <ele>1963.15</ele>
        <time>2019-07-31T13:59:04Z</time>
      </trkpt>
      <trkpt lat="44.05046" lon="6.92621">
        <ele>1959.78</ele>
        <time>2019-07-31T13:59:06Z</time>
      </trkpt>
      <trkpt lat="44.05042" lon="6.92629">
        <ele>1957.86</ele>
        <time>2019-07-31T13:59:09Z</time>
      </trkpt>
      <trkpt lat="44.05041" lon="6.92629">
        <ele>1957.38</ele>
        <time>2019-07-31T13:59:10Z</time>
      </trkpt>
      <trkpt lat="44.05038" lon="6.92627">
        <ele>1957.38</ele>
        <time>2019-07-31T13:59:11Z</time>
      </trkpt>
      <trkpt lat="44.05035" lon="6.92623">
        <ele>1956.9</ele>
        <time>2019-07-31T13:59:12Z</time>
      </trkpt>
      <trkpt lat="44.05032" lon="6.92618">
        <ele>1956.42</ele>
        <time>2019-07-31T13:59:13Z</time>
      </trkpt>
      <trkpt lat="44.0503" lon="6.92612">
        <ele>1954.98</ele>
        <time>2019-07-31T13:59:14Z</time>
      </trkpt>
      <trkpt lat="44.05027" lon="6.92607">
        <ele>1954.02</ele>
        <time>2019-07-31T13:59:15Z</time>
      </trkpt>
      <trkpt lat="44.05024" lon="6.92603">
        <ele>1953.54</ele>
        <time>2019-07-31T13:59:16Z</time>
      </trkpt>
      <trkpt lat="44.0502" lon="6.92601">
        <ele>1952.57</ele>
        <time>2019-07-31T13:59:17Z</time>
      </trkpt>
      <trkpt lat="44.05018" lon="6.92603">
        <ele>1951.61</ele>
        <time>2019-07-31T13:59:18Z</time>
      </trkpt>
      <trkpt lat="44.05017" lon="6.92607">
        <ele>1951.13</ele>
        <time>2019-07-31T13:59:19Z</time>
      </trkpt>
      <trkpt lat="44.05017" lon="6.92614">
        <ele>1951.13</ele>
        <time>2019-07-31T13:59:20Z</time>
      </trkpt>
      <trkpt lat="44.05016" lon="6.92624">
        <ele>1950.65</ele>
        <time>2019-07-31T13:59:21Z</time>
      </trkpt>
      <trkpt lat="44.05014" lon="6.92633">
        <ele>1949.69</ele>
        <time>2019-07-31T13:59:22Z</time>
      </trkpt>
      <trkpt lat="44.05005" lon="6.9266">
        <ele>1945.36</ele>
        <time>2019-07-31T13:59:25Z</time>
      </trkpt>
      <trkpt lat="44.04998" lon="6.92677">
        <ele>1942</ele>
        <time>2019-07-31T13:59:27Z</time>
      </trkpt>
      <trkpt lat="44.04993" lon="6.9269">
        <ele>1937.67</ele>
        <time>2019-07-31T13:59:29Z</time>
      </trkpt>
      <trkpt lat="44.04991" lon="6.92696">
        <ele>1936.23</ele>
        <time>2019-07-31T13:59:30Z</time>
      </trkpt>
      <trkpt lat="44.0499" lon="6.92702">
        <ele>1935.27</ele>
        <time>2019-07-31T13:59:31Z</time>
      </trkpt>
      <trkpt lat="44.0499" lon="6.92708">
        <ele>1933.83</ele>
        <time>2019-07-31T13:59:32Z</time>
      </trkpt>
      <trkpt lat="44.04991" lon="6.92715">
        <ele>1932.87</ele>
        <time>2019-07-31T13:59:33Z</time>
      </trkpt>
      <trkpt lat="44.04992" lon="6.92721">
        <ele>1931.91</ele>
        <time>2019-07-31T13:59:34Z</time>
      </trkpt>
      <trkpt lat="44.04994" lon="6.92727">
        <ele>1930.46</ele>
        <time>2019-07-31T13:59:35Z</time>
      </trkpt>
      <trkpt lat="44.04998" lon="6.92733">
        <ele>1929.5</ele>
        <time>2019-07-31T13:59:36Z</time>
      </trkpt>
      <trkpt lat="44.05003" lon="6.92738">
        <ele>1928.54</ele>
        <time>2019-07-31T13:59:37Z</time>
      </trkpt>
      <trkpt lat="44.05008" lon="6.92745">
        <ele>1927.1</ele>
        <time>2019-07-31T13:59:38Z</time>
      </trkpt>
      <trkpt lat="44.05019" lon="6.92755">
        <ele>1925.18</ele>
        <time>2019-07-31T13:59:40Z</time>
      </trkpt>
      <trkpt lat="44.05025" lon="6.92758">
        <ele>1924.22</ele>
        <time>2019-07-31T13:59:41Z</time>
      </trkpt>
      <trkpt lat="44.05031" lon="6.9276">
        <ele>1923.74</ele>
        <time>2019-07-31T13:59:42Z</time>
      </trkpt>
      <trkpt lat="44.05039" lon="6.92761">
        <ele>1922.29</ele>
        <time>2019-07-31T13:59:43Z</time>
      </trkpt>
      <trkpt lat="44.05047" lon="6.9276">
        <ele>1922.29</ele>
        <time>2019-07-31T13:59:44Z</time>
      </trkpt>
      <trkpt lat="44.05056" lon="6.92757">
        <ele>1921.81</ele>
        <time>2019-07-31T13:59:45Z</time>
      </trkpt>
      <trkpt lat="44.05065" lon="6.92755">
        <ele>1920.37</ele>
        <time>2019-07-31T13:59:46Z</time>
      </trkpt>
      <trkpt lat="44.05074" lon="6.92752">
        <ele>1920.37</ele>
        <time>2019-07-31T13:59:47Z</time>
      </trkpt>
      <trkpt lat="44.05093" lon="6.92745">
        <ele>1916.53</ele>
        <time>2019-07-31T13:59:49Z</time>
      </trkpt>
      <trkpt lat="44.05111" lon="6.92736">
        <ele>1913.64</ele>
        <time>2019-07-31T13:59:51Z</time>
      </trkpt>
      <trkpt lat="44.0512" lon="6.92731">
        <ele>1910.28</ele>
        <time>2019-07-31T13:59:52Z</time>
      </trkpt>
      <trkpt lat="44.05137" lon="6.9272">
        <ele>1906.91</ele>
        <time>2019-07-31T13:59:54Z</time>
      </trkpt>
      <trkpt lat="44.05155" lon="6.92711">
        <ele>1903.55</ele>
        <time>2019-07-31T13:59:56Z</time>
      </trkpt>
      <trkpt lat="44.05174" lon="6.92701">
        <ele>1900.66</ele>
        <time>2019-07-31T13:59:58Z</time>
      </trkpt>
      <trkpt lat="44.05193" lon="6.92692">
        <ele>1896.82</ele>
        <time>2019-07-31T14:00:00Z</time>
      </trkpt>
      <trkpt lat="44.05201" lon="6.92688">
        <ele>1892.97</ele>
        <time>2019-07-31T14:00:01Z</time>
      </trkpt>
      <trkpt lat="44.05208" lon="6.92686">
        <ele>1891.53</ele>
        <time>2019-07-31T14:00:02Z</time>
      </trkpt>
      <trkpt lat="44.05216" lon="6.92685">
        <ele>1889.61</ele>
        <time>2019-07-31T14:00:03Z</time>
      </trkpt>
      <trkpt lat="44.05224" lon="6.92687">
        <ele>1887.69</ele>
        <time>2019-07-31T14:00:04Z</time>
      </trkpt>
      <trkpt lat="44.05232" lon="6.92691">
        <ele>1885.76</ele>
        <time>2019-07-31T14:00:05Z</time>
      </trkpt>
      <trkpt lat="44.0524" lon="6.92697">
        <ele>1884.8</ele>
        <time>2019-07-31T14:00:06Z</time>
      </trkpt>
      <trkpt lat="44.05247" lon="6.92703">
        <ele>1883.36</ele>
        <time>2019-07-31T14:00:07Z</time>
      </trkpt>
      <trkpt lat="44.05254" lon="6.9271">
        <ele>1882.4</ele>
        <time>2019-07-31T14:00:08Z</time>
      </trkpt>
      <trkpt lat="44.05261" lon="6.92716">
        <ele>1880</ele>
        <time>2019-07-31T14:00:09Z</time>
      </trkpt>
      <trkpt lat="44.05277" lon="6.9273">
        <ele>1878.55</ele>
        <time>2019-07-31T14:00:11Z</time>
      </trkpt>
      <trkpt lat="44.05283" lon="6.92739">
        <ele>1878.55</ele>
        <time>2019-07-31T14:00:12Z</time>
      </trkpt>
      <trkpt lat="44.05289" lon="6.92748">
        <ele>1878.55</ele>
        <time>2019-07-31T14:00:13Z</time>
      </trkpt>
      <trkpt lat="44.05293" lon="6.92758">
        <ele>1880</ele>
        <time>2019-07-31T14:00:14Z</time>
      </trkpt>
      <trkpt lat="44.05296" lon="6.92767">
        <ele>1878.55</ele>
        <time>2019-07-31T14:00:15Z</time>
      </trkpt>
      <trkpt lat="44.05299" lon="6.92777">
        <ele>1877.11</ele>
        <time>2019-07-31T14:00:16Z</time>
      </trkpt>
      <trkpt lat="44.05304" lon="6.92785">
        <ele>1875.19</ele>
        <time>2019-07-31T14:00:17Z</time>
      </trkpt>
      <trkpt lat="44.05309" lon="6.92793">
        <ele>1874.23</ele>
        <time>2019-07-31T14:00:18Z</time>
      </trkpt>
      <trkpt lat="44.05316" lon="6.92801">
        <ele>1872.3</ele>
        <time>2019-07-31T14:00:19Z</time>
      </trkpt>
      <trkpt lat="44.05323" lon="6.92809">
        <ele>1869.9</ele>
        <time>2019-07-31T14:00:20Z</time>
      </trkpt>
      <trkpt lat="44.0533" lon="6.92816">
        <ele>1867.5</ele>
        <time>2019-07-31T14:00:21Z</time>
      </trkpt>
      <trkpt lat="44.05345" lon="6.9283">
        <ele>1862.21</ele>
        <time>2019-07-31T14:00:23Z</time>
      </trkpt>
      <trkpt lat="44.05362" lon="6.92843">
        <ele>1856.92</ele>
        <time>2019-07-31T14:00:25Z</time>
      </trkpt>
      <trkpt lat="44.05371" lon="6.92849">
        <ele>1854.52</ele>
        <time>2019-07-31T14:00:26Z</time>
      </trkpt>
      <trkpt lat="44.05391" lon="6.92863">
        <ele>1850.19</ele>
        <time>2019-07-31T14:00:28Z</time>
      </trkpt>
      <trkpt lat="44.054" lon="6.92871">
        <ele>1849.23</ele>
        <time>2019-07-31T14:00:29Z</time>
      </trkpt>
      <trkpt lat="44.05408" lon="6.9288">
        <ele>1848.75</ele>
        <time>2019-07-31T14:00:30Z</time>
      </trkpt>
      <trkpt lat="44.05433" lon="6.92913">
        <ele>1846.83</ele>
        <time>2019-07-31T14:00:33Z</time>
      </trkpt>
      <trkpt lat="44.05437" lon="6.92922">
        <ele>1848.27</ele>
        <time>2019-07-31T14:00:34Z</time>
      </trkpt>
      <trkpt lat="44.0544" lon="6.9293">
        <ele>1847.31</ele>
        <time>2019-07-31T14:00:35Z</time>
      </trkpt>
      <trkpt lat="44.05443" lon="6.92937">
        <ele>1847.31</ele>
        <time>2019-07-31T14:00:36Z</time>
      </trkpt>
      <trkpt lat="44.05446" lon="6.92943">
        <ele>1847.31</ele>
        <time>2019-07-31T14:00:37Z</time>
      </trkpt>
      <trkpt lat="44.0545" lon="6.92948">
        <ele>1845.87</ele>
        <time>2019-07-31T14:00:38Z</time>
      </trkpt>
      <trkpt lat="44.05456" lon="6.92953">
        <ele>1845.87</ele>
        <time>2019-07-31T14:00:39Z</time>
      </trkpt>
      <trkpt lat="44.05463" lon="6.92957">
        <ele>1843.95</ele>
        <time>2019-07-31T14:00:40Z</time>
      </trkpt>
      <trkpt lat="44.0547" lon="6.92963">
        <ele>1843.95</ele>
        <time>2019-07-31T14:00:41Z</time>
      </trkpt>
      <trkpt lat="44.05478" lon="6.9297">
        <ele>1842.02</ele>
        <time>2019-07-31T14:00:42Z</time>
      </trkpt>
      <trkpt lat="44.05486" lon="6.92978">
        <ele>1842.02</ele>
        <time>2019-07-31T14:00:43Z</time>
      </trkpt>
      <trkpt lat="44.05512" lon="6.93012">
        <ele>1845.39</ele>
        <time>2019-07-31T14:00:48Z</time>
      </trkpt>
      <trkpt lat="44.05516" lon="6.93017">
        <ele>1847.31</ele>
        <time>2019-07-31T14:00:51Z</time>
      </trkpt>
      <trkpt lat="44.05522" lon="6.93022">
        <ele>1847.79</ele>
        <time>2019-07-31T14:00:58Z</time>
      </trkpt>
      <trkpt lat="44.05528" lon="6.93029">
        <ele>1847.79</ele>
        <time>2019-07-31T14:01:01Z</time>
      </trkpt>
      <trkpt lat="44.05534" lon="6.93031">
        <ele>1844.91</ele>
        <time>2019-07-31T14:01:02Z</time>
      </trkpt>
      <trkpt lat="44.05559" lon="6.93042">
        <ele>1842.5</ele>
        <time>2019-07-31T14:01:05Z</time>
      </trkpt>
      <trkpt lat="44.05569" lon="6.93046">
        <ele>1840.1</ele>
        <time>2019-07-31T14:01:06Z</time>
      </trkpt>
      <trkpt lat="44.05582" lon="6.93048">
        <ele>1838.66</ele>
        <time>2019-07-31T14:01:07Z</time>
      </trkpt>
      <trkpt lat="44.05613" lon="6.93054">
        <ele>1836.74</ele>
        <time>2019-07-31T14:01:10Z</time>
      </trkpt>
      <trkpt lat="44.05623" lon="6.93059">
        <ele>1835.77</ele>
        <time>2019-07-31T14:01:11Z</time>
      </trkpt>
      <trkpt lat="44.0563" lon="6.93065">
        <ele>1837.7</ele>
        <time>2019-07-31T14:01:12Z</time>
      </trkpt>
      <trkpt lat="44.05636" lon="6.93071">
        <ele>1837.7</ele>
        <time>2019-07-31T14:01:13Z</time>
      </trkpt>
      <trkpt lat="44.05646" lon="6.93082">
        <ele>1833.85</ele>
        <time>2019-07-31T14:01:15Z</time>
      </trkpt>
      <trkpt lat="44.05652" lon="6.93089">
        <ele>1832.41</ele>
        <time>2019-07-31T14:01:17Z</time>
      </trkpt>
      <trkpt lat="44.05648" lon="6.9308">
        <ele>1832.41</ele>
        <time>2019-07-31T14:01:24Z</time>
      </trkpt>
      <trkpt lat="44.05646" lon="6.9307">
        <ele>1831.45</ele>
        <time>2019-07-31T14:01:53Z</time>
      </trkpt>
      <trkpt lat="44.05646" lon="6.93076">
        <ele>1832.41</ele>
        <time>2019-07-31T14:02:17Z</time>
      </trkpt>
      <trkpt lat="44.05647" lon="6.93077">
        <ele>1832.41</ele>
        <time>2019-07-31T14:02:43Z</time>
      </trkpt>
      <trkpt lat="44.05645" lon="6.93077">
        <ele>1831.93</ele>
        <time>2019-07-31T14:03:09Z</time>
      </trkpt>
      <trkpt lat="44.05644" lon="6.9308">
        <ele>1831.93</ele>
        <time>2019-07-31T14:03:32Z</time>
      </trkpt>
      <trkpt lat="44.05643" lon="6.93078">
        <ele>1830.01</ele>
        <time>2019-07-31T14:03:37Z</time>
      </trkpt>
      <trkpt lat="44.05642" lon="6.93077">
        <ele>1831.45</ele>
        <time>2019-07-31T14:03:39Z</time>
      </trkpt>
      <trkpt lat="44.05642" lon="6.93077">
        <ele>1832.89</ele>
        <time>2019-07-31T14:03:42Z</time>
      </trkpt>
      <trkpt lat="44.05643" lon="6.93078">
        <ele>1831.45</ele>
        <time>2019-07-31T14:03:45Z</time>
      </trkpt>
      <trkpt lat="44.05644" lon="6.93077">
        <ele>1830.49</ele>
        <time>2019-07-31T14:04:07Z</time>
      </trkpt>
      <trkpt lat="44.05646" lon="6.93075">
        <ele>1830.49</ele>
        <time>2019-07-31T14:04:34Z</time>
      </trkpt>
      <trkpt lat="44.05646" lon="6.93075">
        <ele>1831.45</ele>
        <time>2019-07-31T14:04:57Z</time>
      </trkpt>
      <trkpt lat="44.05641" lon="6.93076">
        <ele>1830.49</ele>
        <time>2019-07-31T14:05:13Z</time>
      </trkpt>
      <trkpt lat="44.05643" lon="6.9308">
        <ele>1830.49</ele>
        <time>2019-07-31T14:05:28Z</time>
      </trkpt>
      <trkpt lat="44.05643" lon="6.93082">
        <ele>1830.97</ele>
        <time>2019-07-31T14:05:47Z</time>
      </trkpt>
      <trkpt lat="44.05643" lon="6.93084">
        <ele>1830.97</ele>
        <time>2019-07-31T14:05:48Z</time>
      </trkpt>
      <trkpt lat="44.05643" lon="6.93087">
        <ele>1830.97</ele>
        <time>2019-07-31T14:05:49Z</time>
      </trkpt>
      <trkpt lat="44.05642" lon="6.93091">
        <ele>1830.97</ele>
        <time>2019-07-31T14:05:50Z</time>
      </trkpt>
      <trkpt lat="44.05642" lon="6.93096">
        <ele>1830.01</ele>
        <time>2019-07-31T14:05:51Z</time>
      </trkpt>
      <trkpt lat="44.05642" lon="6.93102">
        <ele>1830.01</ele>
        <time>2019-07-31T14:05:52Z</time>
      </trkpt>
      <trkpt lat="44.05642" lon="6.9311">
        <ele>1830.01</ele>
        <time>2019-07-31T14:05:53Z</time>
      </trkpt>
      <trkpt lat="44.05639" lon="6.93158">
        <ele>1826.16</ele>
        <time>2019-07-31T14:05:58Z</time>
      </trkpt>
      <trkpt lat="44.05636" lon="6.93167">
        <ele>1825.68</ele>
        <time>2019-07-31T14:05:59Z</time>
      </trkpt>
      <trkpt lat="44.05634" lon="6.93174">
        <ele>1826.64</ele>
        <time>2019-07-31T14:06:00Z</time>
      </trkpt>
      <trkpt lat="44.05631" lon="6.93177">
        <ele>1824.72</ele>
        <time>2019-07-31T14:06:01Z</time>
      </trkpt>
      <trkpt lat="44.05629" lon="6.93176">
        <ele>1824.72</ele>
        <time>2019-07-31T14:06:02Z</time>
      </trkpt>
      <trkpt lat="44.05626" lon="6.93172">
        <ele>1824.72</ele>
        <time>2019-07-31T14:06:03Z</time>
      </trkpt>
      <trkpt lat="44.05625" lon="6.93165">
        <ele>1824.72</ele>
        <time>2019-07-31T14:06:04Z</time>
      </trkpt>
      <trkpt lat="44.05623" lon="6.93157">
        <ele>1823.76</ele>
        <time>2019-07-31T14:06:05Z</time>
      </trkpt>
      <trkpt lat="44.05621" lon="6.93149">
        <ele>1823.76</ele>
        <time>2019-07-31T14:06:06Z</time>
      </trkpt>
      <trkpt lat="44.05617" lon="6.93141">
        <ele>1822.32</ele>
        <time>2019-07-31T14:06:07Z</time>
      </trkpt>
      <trkpt lat="44.05612" lon="6.93136">
        <ele>1822.32</ele>
        <time>2019-07-31T14:06:08Z</time>
      </trkpt>
      <trkpt lat="44.05605" lon="6.93134">
        <ele>1822.32</ele>
        <time>2019-07-31T14:06:09Z</time>
      </trkpt>
      <trkpt lat="44.05598" lon="6.93137">
        <ele>1822.32</ele>
        <time>2019-07-31T14:06:10Z</time>
      </trkpt>
      <trkpt lat="44.05591" lon="6.93142">
        <ele>1818.95</ele>
        <time>2019-07-31T14:06:11Z</time>
      </trkpt>
      <trkpt lat="44.05585" lon="6.93147">
        <ele>1818.47</ele>
        <time>2019-07-31T14:06:12Z</time>
      </trkpt>
      <trkpt lat="44.0556" lon="6.93161">
        <ele>1817.03</ele>
        <time>2019-07-31T14:06:16Z</time>
      </trkpt>
      <trkpt lat="44.05539" lon="6.93171">
        <ele>1814.15</ele>
        <time>2019-07-31T14:06:19Z</time>
      </trkpt>
      <trkpt lat="44.05502" lon="6.93194">
        <ele>1810.78</ele>
        <time>2019-07-31T14:06:24Z</time>
      </trkpt>
      <trkpt lat="44.05494" lon="6.93199">
        <ele>1810.78</ele>
        <time>2019-07-31T14:06:25Z</time>
      </trkpt>
      <trkpt lat="44.0547" lon="6.93214">
        <ele>1807.42</ele>
        <time>2019-07-31T14:06:28Z</time>
      </trkpt>
      <trkpt lat="44.05461" lon="6.93219">
        <ele>1807.42</ele>
        <time>2019-07-31T14:06:29Z</time>
      </trkpt>
      <trkpt lat="44.05446" lon="6.93225">
        <ele>1804.53</ele>
        <time>2019-07-31T14:06:31Z</time>
      </trkpt>
      <trkpt lat="44.05432" lon="6.9323">
        <ele>1801.65</ele>
        <time>2019-07-31T14:06:33Z</time>
      </trkpt>
      <trkpt lat="44.05425" lon="6.93231">
        <ele>1801.65</ele>
        <time>2019-07-31T14:06:34Z</time>
      </trkpt>
      <trkpt lat="44.05419" lon="6.9323">
        <ele>1798.28</ele>
        <time>2019-07-31T14:06:35Z</time>
      </trkpt>
      <trkpt lat="44.05413" lon="6.93229">
        <ele>1799.73</ele>
        <time>2019-07-31T14:06:36Z</time>
      </trkpt>
      <trkpt lat="44.05407" lon="6.9323">
        <ele>1800.21</ele>
        <time>2019-07-31T14:06:37Z</time>
      </trkpt>
      <trkpt lat="44.05401" lon="6.93232">
        <ele>1795.88</ele>
        <time>2019-07-31T14:06:38Z</time>
      </trkpt>
      <trkpt lat="44.05396" lon="6.93233">
        <ele>1795.88</ele>
        <time>2019-07-31T14:06:39Z</time>
      </trkpt>
      <trkpt lat="44.05391" lon="6.93233">
        <ele>1793.48</ele>
        <time>2019-07-31T14:06:40Z</time>
      </trkpt>
      <trkpt lat="44.05387" lon="6.93232">
        <ele>1793</ele>
        <time>2019-07-31T14:06:41Z</time>
      </trkpt>
      <trkpt lat="44.05386" lon="6.9323">
        <ele>1793.96</ele>
        <time>2019-07-31T14:06:42Z</time>
      </trkpt>
      <trkpt lat="44.05385" lon="6.93228">
        <ele>1795.88</ele>
        <time>2019-07-31T14:06:43Z</time>
      </trkpt>
      <trkpt lat="44.05385" lon="6.93225">
        <ele>1792.52</ele>
        <time>2019-07-31T14:06:46Z</time>
      </trkpt>
      <trkpt lat="44.05389" lon="6.9322">
        <ele>1793.96</ele>
        <time>2019-07-31T14:06:55Z</time>
      </trkpt>
      <trkpt lat="44.0539" lon="6.93219">
        <ele>1792.52</ele>
        <time>2019-07-31T14:06:57Z</time>
      </trkpt>
      <trkpt lat="44.05391" lon="6.93218">
        <ele>1792.52</ele>
        <time>2019-07-31T14:06:59Z</time>
      </trkpt>
      <trkpt lat="44.05392" lon="6.93215">
        <ele>1791.55</ele>
        <time>2019-07-31T14:07:00Z</time>
      </trkpt>
      <trkpt lat="44.05393" lon="6.93212">
        <ele>1791.55</ele>
        <time>2019-07-31T14:07:01Z</time>
      </trkpt>
      <trkpt lat="44.05394" lon="6.93209">
        <ele>1791.55</ele>
        <time>2019-07-31T14:07:02Z</time>
      </trkpt>
      <trkpt lat="44.05396" lon="6.93207">
        <ele>1791.55</ele>
        <time>2019-07-31T14:07:03Z</time>
      </trkpt>
      <trkpt lat="44.05399" lon="6.93205">
        <ele>1791.55</ele>
        <time>2019-07-31T14:07:04Z</time>
      </trkpt>
      <trkpt lat="44.05402" lon="6.93201">
        <ele>1789.63</ele>
        <time>2019-07-31T14:07:05Z</time>
      </trkpt>
      <trkpt lat="44.05404" lon="6.93196">
        <ele>1789.63</ele>
        <time>2019-07-31T14:07:06Z</time>
      </trkpt>
      <trkpt lat="44.05406" lon="6.9319">
        <ele>1789.63</ele>
        <time>2019-07-31T14:07:07Z</time>
      </trkpt>
      <trkpt lat="44.05406" lon="6.93182">
        <ele>1792.03</ele>
        <time>2019-07-31T14:07:08Z</time>
      </trkpt>
      <trkpt lat="44.05405" lon="6.93176">
        <ele>1790.59</ele>
        <time>2019-07-31T14:07:09Z</time>
      </trkpt>
      <trkpt lat="44.05403" lon="6.9317">
        <ele>1792.03</ele>
        <time>2019-07-31T14:07:10Z</time>
      </trkpt>
      <trkpt lat="44.054" lon="6.93165">
        <ele>1789.63</ele>
        <time>2019-07-31T14:07:11Z</time>
      </trkpt>
      <trkpt lat="44.05396" lon="6.93162">
        <ele>1791.55</ele>
        <time>2019-07-31T14:07:12Z</time>
      </trkpt>
      <trkpt lat="44.05391" lon="6.93159">
        <ele>1789.63</ele>
        <time>2019-07-31T14:07:13Z</time>
      </trkpt>
      <trkpt lat="44.05385" lon="6.93158">
        <ele>1791.07</ele>
        <time>2019-07-31T14:07:14Z</time>
      </trkpt>
      <trkpt lat="44.05381" lon="6.93156">
        <ele>1791.55</ele>
        <time>2019-07-31T14:07:15Z</time>
      </trkpt>
      <trkpt lat="44.05376" lon="6.93156">
        <ele>1791.55</ele>
        <time>2019-07-31T14:07:16Z</time>
      </trkpt>
      <trkpt lat="44.05365" lon="6.93155">
        <ele>1789.63</ele>
        <time>2019-07-31T14:07:18Z</time>
      </trkpt>
      <trkpt lat="44.0536" lon="6.93153">
        <ele>1789.63</ele>
        <time>2019-07-31T14:07:19Z</time>
      </trkpt>
      <trkpt lat="44.05355" lon="6.93151">
        <ele>1789.63</ele>
        <time>2019-07-31T14:07:20Z</time>
      </trkpt>
      <trkpt lat="44.0535" lon="6.93147">
        <ele>1788.67</ele>
        <time>2019-07-31T14:07:21Z</time>
      </trkpt>
      <trkpt lat="44.05328" lon="6.93128">
        <ele>1787.71</ele>
        <time>2019-07-31T14:07:25Z</time>
      </trkpt>
      <trkpt lat="44.05321" lon="6.93126">
        <ele>1787.71</ele>
        <time>2019-07-31T14:07:26Z</time>
      </trkpt>
      <trkpt lat="44.05314" lon="6.93126">
        <ele>1787.71</ele>
        <time>2019-07-31T14:07:27Z</time>
      </trkpt>
      <trkpt lat="44.05286" lon="6.93131">
        <ele>1786.75</ele>
        <time>2019-07-31T14:07:31Z</time>
      </trkpt>
      <trkpt lat="44.05272" lon="6.93138">
        <ele>1784.82</ele>
        <time>2019-07-31T14:07:33Z</time>
      </trkpt>
      <trkpt lat="44.05266" lon="6.93143">
        <ele>1789.15</ele>
        <time>2019-07-31T14:07:34Z</time>
      </trkpt>
      <trkpt lat="44.05261" lon="6.9315">
        <ele>1786.75</ele>
        <time>2019-07-31T14:07:35Z</time>
      </trkpt>
      <trkpt lat="44.05257" lon="6.93156">
        <ele>1786.75</ele>
        <time>2019-07-31T14:07:36Z</time>
      </trkpt>
      <trkpt lat="44.05253" lon="6.93163">
        <ele>1786.75</ele>
        <time>2019-07-31T14:07:37Z</time>
      </trkpt>
      <trkpt lat="44.05252" lon="6.93171">
        <ele>1786.75</ele>
        <time>2019-07-31T14:07:38Z</time>
      </trkpt>
      <trkpt lat="44.05249" lon="6.93179">
        <ele>1786.75</ele>
        <time>2019-07-31T14:07:39Z</time>
      </trkpt>
      <trkpt lat="44.05243" lon="6.93196">
        <ele>1786.75</ele>
        <time>2019-07-31T14:07:41Z</time>
      </trkpt>
      <trkpt lat="44.05239" lon="6.93204">
        <ele>1786.75</ele>
        <time>2019-07-31T14:07:42Z</time>
      </trkpt>
      <trkpt lat="44.05211" lon="6.93256">
        <ele>1787.23</ele>
        <time>2019-07-31T14:07:49Z</time>
      </trkpt>
      <trkpt lat="44.05206" lon="6.93262">
        <ele>1787.23</ele>
        <time>2019-07-31T14:07:50Z</time>
      </trkpt>
      <trkpt lat="44.05179" lon="6.93287">
        <ele>1785.31</ele>
        <time>2019-07-31T14:07:55Z</time>
      </trkpt>
      <trkpt lat="44.05161" lon="6.93298">
        <ele>1785.31</ele>
        <time>2019-07-31T14:07:58Z</time>
      </trkpt>
      <trkpt lat="44.05148" lon="6.93302">
        <ele>1784.34</ele>
        <time>2019-07-31T14:08:00Z</time>
      </trkpt>
      <trkpt lat="44.05135" lon="6.93304">
        <ele>1783.38</ele>
        <time>2019-07-31T14:08:02Z</time>
      </trkpt>
      <trkpt lat="44.05129" lon="6.93303">
        <ele>1783.38</ele>
        <time>2019-07-31T14:08:03Z</time>
      </trkpt>
      <trkpt lat="44.05123" lon="6.93301">
        <ele>1783.38</ele>
        <time>2019-07-31T14:08:04Z</time>
      </trkpt>
      <trkpt lat="44.05117" lon="6.93299">
        <ele>1783.38</ele>
        <time>2019-07-31T14:08:05Z</time>
      </trkpt>
      <trkpt lat="44.05112" lon="6.93295">
        <ele>1783.38</ele>
        <time>2019-07-31T14:08:06Z</time>
      </trkpt>
      <trkpt lat="44.05106" lon="6.93291">
        <ele>1782.42</ele>
        <time>2019-07-31T14:08:07Z</time>
      </trkpt>
      <trkpt lat="44.05068" lon="6.93273">
        <ele>1782.9</ele>
        <time>2019-07-31T14:08:14Z</time>
      </trkpt>
      <trkpt lat="44.05064" lon="6.93269">
        <ele>1783.38</ele>
        <time>2019-07-31T14:08:15Z</time>
      </trkpt>
      <trkpt lat="44.05061" lon="6.93265">
        <ele>1780.98</ele>
        <time>2019-07-31T14:08:16Z</time>
      </trkpt>
      <trkpt lat="44.05058" lon="6.9326">
        <ele>1782.42</ele>
        <time>2019-07-31T14:08:17Z</time>
      </trkpt>
      <trkpt lat="44.05055" lon="6.93254">
        <ele>1783.38</ele>
        <time>2019-07-31T14:08:18Z</time>
      </trkpt>
      <trkpt lat="44.05052" lon="6.93249">
        <ele>1783.38</ele>
        <time>2019-07-31T14:08:19Z</time>
      </trkpt>
      <trkpt lat="44.05049" lon="6.93243">
        <ele>1781.94</ele>
        <time>2019-07-31T14:08:20Z</time>
      </trkpt>
      <trkpt lat="44.05045" lon="6.93239">
        <ele>1781.94</ele>
        <time>2019-07-31T14:08:21Z</time>
      </trkpt>
      <trkpt lat="44.05039" lon="6.93238">
        <ele>1781.94</ele>
        <time>2019-07-31T14:08:22Z</time>
      </trkpt>
      <trkpt lat="44.05034" lon="6.93241">
        <ele>1781.94</ele>
        <time>2019-07-31T14:08:23Z</time>
      </trkpt>
      <trkpt lat="44.05028" lon="6.93245">
        <ele>1781.94</ele>
        <time>2019-07-31T14:08:24Z</time>
      </trkpt>
      <trkpt lat="44.05016" lon="6.93253">
        <ele>1783.38</ele>
        <time>2019-07-31T14:08:26Z</time>
      </trkpt>
      <trkpt lat="44.0501" lon="6.93255">
        <ele>1783.38</ele>
        <time>2019-07-31T14:08:27Z</time>
      </trkpt>
      <trkpt lat="44.04943" lon="6.93283">
        <ele>1782.42</ele>
        <time>2019-07-31T14:08:39Z</time>
      </trkpt>
      <trkpt lat="44.04932" lon="6.93284">
        <ele>1783.38</ele>
        <time>2019-07-31T14:08:43Z</time>
      </trkpt>
      <trkpt lat="44.04941" lon="6.93276">
        <ele>1782.42</ele>
        <time>2019-07-31T14:08:56Z</time>
      </trkpt>
      <trkpt lat="44.04939" lon="6.93269">
        <ele>1782.9</ele>
        <time>2019-07-31T14:09:35Z</time>
      </trkpt>
      <trkpt lat="44.04938" lon="6.93269">
        <ele>1782.9</ele>
        <time>2019-07-31T14:09:36Z</time>
      </trkpt>
      <trkpt lat="44.04937" lon="6.93269">
        <ele>1782.9</ele>
        <time>2019-07-31T14:09:37Z</time>
      </trkpt>
      <trkpt lat="44.04898" lon="6.93265">
        <ele>1783.86</ele>
        <time>2019-07-31T14:09:53Z</time>
      </trkpt>
      <trkpt lat="44.04894" lon="6.93263">
        <ele>1780.98</ele>
        <time>2019-07-31T14:09:54Z</time>
      </trkpt>
      <trkpt lat="44.04884" lon="6.93257">
        <ele>1782.42</ele>
        <time>2019-07-31T14:09:56Z</time>
      </trkpt>
      <trkpt lat="44.04878" lon="6.93254">
        <ele>1780.98</ele>
        <time>2019-07-31T14:09:57Z</time>
      </trkpt>
      <trkpt lat="44.04871" lon="6.93252">
        <ele>1780.98</ele>
        <time>2019-07-31T14:09:58Z</time>
      </trkpt>
      <trkpt lat="44.04864" lon="6.93251">
        <ele>1780.02</ele>
        <time>2019-07-31T14:09:59Z</time>
      </trkpt>
      <trkpt lat="44.04856" lon="6.9325">
        <ele>1780.02</ele>
        <time>2019-07-31T14:10:00Z</time>
      </trkpt>
      <trkpt lat="44.04848" lon="6.9325">
        <ele>1778.58</ele>
        <time>2019-07-31T14:10:01Z</time>
      </trkpt>
      <trkpt lat="44.04839" lon="6.93251">
        <ele>1778.58</ele>
        <time>2019-07-31T14:10:02Z</time>
      </trkpt>
      <trkpt lat="44.04831" lon="6.93254">
        <ele>1778.58</ele>
        <time>2019-07-31T14:10:03Z</time>
      </trkpt>
      <trkpt lat="44.04821" lon="6.93256">
        <ele>1777.61</ele>
        <time>2019-07-31T14:10:04Z</time>
      </trkpt>
      <trkpt lat="44.04812" lon="6.93259">
        <ele>1777.61</ele>
        <time>2019-07-31T14:10:05Z</time>
      </trkpt>
      <trkpt lat="44.04803" lon="6.93263">
        <ele>1776.17</ele>
        <time>2019-07-31T14:10:06Z</time>
      </trkpt>
      <trkpt lat="44.04794" lon="6.93267">
        <ele>1776.17</ele>
        <time>2019-07-31T14:10:07Z</time>
      </trkpt>
      <trkpt lat="44.04759" lon="6.93287">
        <ele>1773.29</ele>
        <time>2019-07-31T14:10:11Z</time>
      </trkpt>
      <trkpt lat="44.04707" lon="6.93332">
        <ele>1769.92</ele>
        <time>2019-07-31T14:10:18Z</time>
      </trkpt>
      <trkpt lat="44.04685" lon="6.93348">
        <ele>1766.56</ele>
        <time>2019-07-31T14:10:22Z</time>
      </trkpt>
      <trkpt lat="44.04681" lon="6.93351">
        <ele>1766.08</ele>
        <time>2019-07-31T14:10:23Z</time>
      </trkpt>
      <trkpt lat="44.04662" lon="6.93365">
        <ele>1764.16</ele>
        <time>2019-07-31T14:10:27Z</time>
      </trkpt>
      <trkpt lat="44.04648" lon="6.93378">
        <ele>1764.16</ele>
        <time>2019-07-31T14:10:30Z</time>
      </trkpt>
      <trkpt lat="44.04606" lon="6.93405">
        <ele>1762.71</ele>
        <time>2019-07-31T14:10:38Z</time>
      </trkpt>
      <trkpt lat="44.04602" lon="6.93406">
        <ele>1760.79</ele>
        <time>2019-07-31T14:10:39Z</time>
      </trkpt>
      <trkpt lat="44.04597" lon="6.93405">
        <ele>1762.23</ele>
        <time>2019-07-31T14:10:40Z</time>
      </trkpt>
      <trkpt lat="44.04593" lon="6.93403">
        <ele>1762.23</ele>
        <time>2019-07-31T14:10:41Z</time>
      </trkpt>
      <trkpt lat="44.04589" lon="6.934">
        <ele>1762.23</ele>
        <time>2019-07-31T14:10:42Z</time>
      </trkpt>
      <trkpt lat="44.04586" lon="6.93396">
        <ele>1760.31</ele>
        <time>2019-07-31T14:10:43Z</time>
      </trkpt>
      <trkpt lat="44.04582" lon="6.93391">
        <ele>1760.79</ele>
        <time>2019-07-31T14:10:44Z</time>
      </trkpt>
      <trkpt lat="44.04572" lon="6.93378">
        <ele>1759.35</ele>
        <time>2019-07-31T14:10:47Z</time>
      </trkpt>
      <trkpt lat="44.04568" lon="6.93374">
        <ele>1761.27</ele>
        <time>2019-07-31T14:10:48Z</time>
      </trkpt>
      <trkpt lat="44.04547" lon="6.93356">
        <ele>1759.35</ele>
        <time>2019-07-31T14:10:54Z</time>
      </trkpt>
      <trkpt lat="44.04544" lon="6.93352">
        <ele>1759.35</ele>
        <time>2019-07-31T14:10:55Z</time>
      </trkpt>
      <trkpt lat="44.04542" lon="6.93348">
        <ele>1759.35</ele>
        <time>2019-07-31T14:10:56Z</time>
      </trkpt>
      <trkpt lat="44.04541" lon="6.93344">
        <ele>1759.35</ele>
        <time>2019-07-31T14:10:57Z</time>
      </trkpt>
      <trkpt lat="44.0454" lon="6.93339">
        <ele>1759.35</ele>
        <time>2019-07-31T14:10:58Z</time>
      </trkpt>
      <trkpt lat="44.0454" lon="6.93334">
        <ele>1759.35</ele>
        <time>2019-07-31T14:10:59Z</time>
      </trkpt>
      <trkpt lat="44.04543" lon="6.93264">
        <ele>1756.47</ele>
        <time>2019-07-31T14:11:11Z</time>
      </trkpt>
      <trkpt lat="44.04542" lon="6.93252">
        <ele>1754.54</ele>
        <time>2019-07-31T14:11:13Z</time>
      </trkpt>
      <trkpt lat="44.04543" lon="6.93246">
        <ele>1754.54</ele>
        <time>2019-07-31T14:11:14Z</time>
      </trkpt>
      <trkpt lat="44.04543" lon="6.93234">
        <ele>1753.58</ele>
        <time>2019-07-31T14:11:16Z</time>
      </trkpt>
      <trkpt lat="44.04533" lon="6.93211">
        <ele>1751.18</ele>
        <time>2019-07-31T14:11:22Z</time>
      </trkpt>
      <trkpt lat="44.04532" lon="6.93175">
        <ele>1748.29</ele>
        <time>2019-07-31T14:11:29Z</time>
      </trkpt>
      <trkpt lat="44.0454" lon="6.93128">
        <ele>1746.85</ele>
        <time>2019-07-31T14:11:36Z</time>
      </trkpt>
      <trkpt lat="44.04541" lon="6.93113">
        <ele>1744.93</ele>
        <time>2019-07-31T14:11:39Z</time>
      </trkpt>
      <trkpt lat="44.04537" lon="6.9309">
        <ele>1743.97</ele>
        <time>2019-07-31T14:11:46Z</time>
      </trkpt>
      <trkpt lat="44.04528" lon="6.93073">
        <ele>1740.12</ele>
        <time>2019-07-31T14:11:51Z</time>
      </trkpt>
      <trkpt lat="44.04526" lon="6.93071">
        <ele>1740.12</ele>
        <time>2019-07-31T14:11:52Z</time>
      </trkpt>
      <trkpt lat="44.04523" lon="6.93066">
        <ele>1742.05</ele>
        <time>2019-07-31T14:11:54Z</time>
      </trkpt>
      <trkpt lat="44.04516" lon="6.93054">
        <ele>1741.57</ele>
        <time>2019-07-31T14:11:58Z</time>
      </trkpt>
      <trkpt lat="44.04511" lon="6.93046">
        <ele>1740.12</ele>
        <time>2019-07-31T14:12:00Z</time>
      </trkpt>
      <trkpt lat="44.04504" lon="6.93036">
        <ele>1739.64</ele>
        <time>2019-07-31T14:12:02Z</time>
      </trkpt>
      <trkpt lat="44.04502" lon="6.9303">
        <ele>1739.64</ele>
        <time>2019-07-31T14:12:03Z</time>
      </trkpt>
      <trkpt lat="44.04499" lon="6.93023">
        <ele>1738.2</ele>
        <time>2019-07-31T14:12:04Z</time>
      </trkpt>
      <trkpt lat="44.04496" lon="6.93016">
        <ele>1738.2</ele>
        <time>2019-07-31T14:12:05Z</time>
      </trkpt>
      <trkpt lat="44.0449" lon="6.92984">
        <ele>1736.28</ele>
        <time>2019-07-31T14:12:09Z</time>
      </trkpt>
      <trkpt lat="44.0449" lon="6.92964">
        <ele>1734.84</ele>
        <time>2019-07-31T14:12:12Z</time>
      </trkpt>
      <trkpt lat="44.0449" lon="6.9293">
        <ele>1733.88</ele>
        <time>2019-07-31T14:12:19Z</time>
      </trkpt>
      <trkpt lat="44.04498" lon="6.92894">
        <ele>1730.99</ele>
        <time>2019-07-31T14:12:24Z</time>
      </trkpt>
      <trkpt lat="44.045" lon="6.92886">
        <ele>1730.99</ele>
        <time>2019-07-31T14:12:25Z</time>
      </trkpt>
      <trkpt lat="44.04507" lon="6.92856">
        <ele>1729.55</ele>
        <time>2019-07-31T14:12:29Z</time>
      </trkpt>
      <trkpt lat="44.04509" lon="6.92851">
        <ele>1729.55</ele>
        <time>2019-07-31T14:12:30Z</time>
      </trkpt>
      <trkpt lat="44.04512" lon="6.92845">
        <ele>1729.55</ele>
        <time>2019-07-31T14:12:31Z</time>
      </trkpt>
      <trkpt lat="44.04522" lon="6.92831">
        <ele>1727.63</ele>
        <time>2019-07-31T14:12:35Z</time>
      </trkpt>
      <trkpt lat="44.0453" lon="6.92813">
        <ele>1725.7</ele>
        <time>2019-07-31T14:12:40Z</time>
      </trkpt>
      <trkpt lat="44.04528" lon="6.92809">
        <ele>1725.7</ele>
        <time>2019-07-31T14:12:41Z</time>
      </trkpt>
      <trkpt lat="44.0452" lon="6.92791">
        <ele>1724.74</ele>
        <time>2019-07-31T14:12:45Z</time>
      </trkpt>
      <trkpt lat="44.04516" lon="6.92753">
        <ele>1723.78</ele>
        <time>2019-07-31T14:12:51Z</time>
      </trkpt>
      <trkpt lat="44.04515" lon="6.92748">
        <ele>1723.78</ele>
        <time>2019-07-31T14:12:52Z</time>
      </trkpt>
      <trkpt lat="44.04506" lon="6.92708">
        <ele>1721.86</ele>
        <time>2019-07-31T14:13:01Z</time>
      </trkpt>
      <trkpt lat="44.04504" lon="6.92706">
        <ele>1721.86</ele>
        <time>2019-07-31T14:13:02Z</time>
      </trkpt>
      <trkpt lat="44.04501" lon="6.92707">
        <ele>1721.86</ele>
        <time>2019-07-31T14:13:03Z</time>
      </trkpt>
      <trkpt lat="44.04498" lon="6.92708">
        <ele>1721.86</ele>
        <time>2019-07-31T14:13:04Z</time>
      </trkpt>
      <trkpt lat="44.04495" lon="6.9271">
        <ele>1721.86</ele>
        <time>2019-07-31T14:13:05Z</time>
      </trkpt>
      <trkpt lat="44.04491" lon="6.92714">
        <ele>1721.86</ele>
        <time>2019-07-31T14:13:06Z</time>
      </trkpt>
      <trkpt lat="44.04484" lon="6.92723">
        <ele>1723.78</ele>
        <time>2019-07-31T14:13:08Z</time>
      </trkpt>
      <trkpt lat="44.04448" lon="6.92769">
        <ele>1724.74</ele>
        <time>2019-07-31T14:13:20Z</time>
      </trkpt>
      <trkpt lat="44.04429" lon="6.92777">
        <ele>1726.67</ele>
        <time>2019-07-31T14:13:25Z</time>
      </trkpt>
      <trkpt lat="44.04421" lon="6.92778">
        <ele>1724.74</ele>
        <time>2019-07-31T14:13:27Z</time>
      </trkpt>
      <trkpt lat="44.04409" lon="6.92742">
        <ele>1726.18</ele>
        <time>2019-07-31T14:13:36Z</time>
      </trkpt>
      <trkpt lat="44.04405" lon="6.92722">
        <ele>1723.78</ele>
        <time>2019-07-31T14:13:39Z</time>
      </trkpt>
      <trkpt lat="44.04401" lon="6.9271">
        <ele>1723.78</ele>
        <time>2019-07-31T14:13:41Z</time>
      </trkpt>
      <trkpt lat="44.04397" lon="6.92705">
        <ele>1723.78</ele>
        <time>2019-07-31T14:13:42Z</time>
      </trkpt>
      <trkpt lat="44.0436" lon="6.92652">
        <ele>1723.3</ele>
        <time>2019-07-31T14:13:53Z</time>
      </trkpt>
      <trkpt lat="44.04349" lon="6.92618">
        <ele>1721.86</ele>
        <time>2019-07-31T14:14:00Z</time>
      </trkpt>
      <trkpt lat="44.04347" lon="6.92614">
        <ele>1721.86</ele>
        <time>2019-07-31T14:14:01Z</time>
      </trkpt>
      <trkpt lat="44.0434" lon="6.92605">
        <ele>1723.78</ele>
        <time>2019-07-31T14:14:03Z</time>
      </trkpt>
      <trkpt lat="44.04338" lon="6.926">
        <ele>1721.86</ele>
        <time>2019-07-31T14:14:04Z</time>
      </trkpt>
      <trkpt lat="44.04323" lon="6.92554">
        <ele>1720.9</ele>
        <time>2019-07-31T14:14:13Z</time>
      </trkpt>
      <trkpt lat="44.0432" lon="6.92552">
        <ele>1720.9</ele>
        <time>2019-07-31T14:14:14Z</time>
      </trkpt>
      <trkpt lat="44.04317" lon="6.92551">
        <ele>1720.9</ele>
        <time>2019-07-31T14:14:15Z</time>
      </trkpt>
      <trkpt lat="44.04313" lon="6.92552">
        <ele>1720.9</ele>
        <time>2019-07-31T14:14:16Z</time>
      </trkpt>
      <trkpt lat="44.0431" lon="6.92555">
        <ele>1720.9</ele>
        <time>2019-07-31T14:14:17Z</time>
      </trkpt>
      <trkpt lat="44.04307" lon="6.92558">
        <ele>1720.9</ele>
        <time>2019-07-31T14:14:18Z</time>
      </trkpt>
      <trkpt lat="44.04305" lon="6.92564">
        <ele>1720.9</ele>
        <time>2019-07-31T14:14:19Z</time>
      </trkpt>
      <trkpt lat="44.04303" lon="6.92568">
        <ele>1719.94</ele>
        <time>2019-07-31T14:14:20Z</time>
      </trkpt>
      <trkpt lat="44.04301" lon="6.92572">
        <ele>1721.38</ele>
        <time>2019-07-31T14:14:21Z</time>
      </trkpt>
      <trkpt lat="44.04293" lon="6.92581">
        <ele>1719.46</ele>
        <time>2019-07-31T14:14:25Z</time>
      </trkpt>
      <trkpt lat="44.04293" lon="6.92581">
        <ele>1723.3</ele>
        <time>2019-07-31T14:14:26Z</time>
      </trkpt>
      <trkpt lat="44.04294" lon="6.92581">
        <ele>1721.38</ele>
        <time>2019-07-31T14:14:27Z</time>
      </trkpt>
      <trkpt lat="44.04302" lon="6.92581">
        <ele>1718.49</ele>
        <time>2019-07-31T14:14:49Z</time>
      </trkpt>
      <trkpt lat="44.04302" lon="6.92583">
        <ele>1719.94</ele>
        <time>2019-07-31T14:15:16Z</time>
      </trkpt>
      <trkpt lat="44.04299" lon="6.92584">
        <ele>1719.46</ele>
        <time>2019-07-31T14:15:44Z</time>
      </trkpt>
      <trkpt lat="44.0428" lon="6.92589">
        <ele>1718.97</ele>
        <time>2019-07-31T14:15:59Z</time>
      </trkpt>
      <trkpt lat="44.04233" lon="6.92591">
        <ele>1722.34</ele>
        <time>2019-07-31T14:16:14Z</time>
      </trkpt>
      <trkpt lat="44.04228" lon="6.92603">
        <ele>1721.38</ele>
        <time>2019-07-31T14:16:18Z</time>
      </trkpt>
      <trkpt lat="44.04229" lon="6.92607">
        <ele>1721.38</ele>
        <time>2019-07-31T14:16:19Z</time>
      </trkpt>
      <trkpt lat="44.04232" lon="6.92611">
        <ele>1719.46</ele>
        <time>2019-07-31T14:16:20Z</time>
      </trkpt>
      <trkpt lat="44.04235" lon="6.92615">
        <ele>1720.9</ele>
        <time>2019-07-31T14:16:21Z</time>
      </trkpt>
      <trkpt lat="44.04239" lon="6.92619">
        <ele>1720.9</ele>
        <time>2019-07-31T14:16:22Z</time>
      </trkpt>
      <trkpt lat="44.04242" lon="6.92625">
        <ele>1720.9</ele>
        <time>2019-07-31T14:16:23Z</time>
      </trkpt>
      <trkpt lat="44.04254" lon="6.92643">
        <ele>1717.53</ele>
        <time>2019-07-31T14:16:26Z</time>
      </trkpt>
      <trkpt lat="44.04258" lon="6.92648">
        <ele>1717.05</ele>
        <time>2019-07-31T14:16:27Z</time>
      </trkpt>
      <trkpt lat="44.04264" lon="6.92657">
        <ele>1716.57</ele>
        <time>2019-07-31T14:16:29Z</time>
      </trkpt>
      <trkpt lat="44.04286" lon="6.92691">
        <ele>1713.21</ele>
        <time>2019-07-31T14:16:36Z</time>
      </trkpt>
      <trkpt lat="44.04289" lon="6.92697">
        <ele>1713.21</ele>
        <time>2019-07-31T14:16:37Z</time>
      </trkpt>
      <trkpt lat="44.04299" lon="6.92712">
        <ele>1709.84</ele>
        <time>2019-07-31T14:16:40Z</time>
      </trkpt>
      <trkpt lat="44.04302" lon="6.92717">
        <ele>1709.84</ele>
        <time>2019-07-31T14:16:41Z</time>
      </trkpt>
      <trkpt lat="44.04304" lon="6.92722">
        <ele>1709.84</ele>
        <time>2019-07-31T14:16:42Z</time>
      </trkpt>
      <trkpt lat="44.04306" lon="6.92727">
        <ele>1709.84</ele>
        <time>2019-07-31T14:16:43Z</time>
      </trkpt>
      <trkpt lat="44.04307" lon="6.92732">
        <ele>1708.4</ele>
        <time>2019-07-31T14:16:44Z</time>
      </trkpt>
      <trkpt lat="44.04307" lon="6.92737">
        <ele>1708.4</ele>
        <time>2019-07-31T14:16:45Z</time>
      </trkpt>
      <trkpt lat="44.04309" lon="6.92753">
        <ele>1705.04</ele>
        <time>2019-07-31T14:16:48Z</time>
      </trkpt>
      <trkpt lat="44.04309" lon="6.92759">
        <ele>1706.48</ele>
        <time>2019-07-31T14:16:49Z</time>
      </trkpt>
      <trkpt lat="44.0431" lon="6.92772">
        <ele>1704.07</ele>
        <time>2019-07-31T14:16:51Z</time>
      </trkpt>
      <trkpt lat="44.04311" lon="6.92779">
        <ele>1704.07</ele>
        <time>2019-07-31T14:16:52Z</time>
      </trkpt>
      <trkpt lat="44.04313" lon="6.92795">
        <ele>1702.63</ele>
        <time>2019-07-31T14:16:54Z</time>
      </trkpt>
      <trkpt lat="44.04313" lon="6.92804">
        <ele>1702.63</ele>
        <time>2019-07-31T14:16:55Z</time>
      </trkpt>
      <trkpt lat="44.04312" lon="6.9282">
        <ele>1700.23</ele>
        <time>2019-07-31T14:16:57Z</time>
      </trkpt>
      <trkpt lat="44.04311" lon="6.92828">
        <ele>1698.31</ele>
        <time>2019-07-31T14:16:58Z</time>
      </trkpt>
      <trkpt lat="44.04312" lon="6.92836">
        <ele>1700.23</ele>
        <time>2019-07-31T14:16:59Z</time>
      </trkpt>
      <trkpt lat="44.04313" lon="6.92843">
        <ele>1697.34</ele>
        <time>2019-07-31T14:17:00Z</time>
      </trkpt>
      <trkpt lat="44.04316" lon="6.92862">
        <ele>1695.42</ele>
        <time>2019-07-31T14:17:03Z</time>
      </trkpt>
      <trkpt lat="44.0432" lon="6.92874">
        <ele>1692.54</ele>
        <time>2019-07-31T14:17:07Z</time>
      </trkpt>
      <trkpt lat="44.04322" lon="6.92875">
        <ele>1692.54</ele>
        <time>2019-07-31T14:17:08Z</time>
      </trkpt>
      <trkpt lat="44.04324" lon="6.92875">
        <ele>1692.54</ele>
        <time>2019-07-31T14:17:09Z</time>
      </trkpt>
      <trkpt lat="44.04327" lon="6.92874">
        <ele>1691.58</ele>
        <time>2019-07-31T14:17:10Z</time>
      </trkpt>
      <trkpt lat="44.04328" lon="6.92873">
        <ele>1690.62</ele>
        <time>2019-07-31T14:17:11Z</time>
      </trkpt>
      <trkpt lat="44.04328" lon="6.92872">
        <ele>1689.65</ele>
        <time>2019-07-31T14:17:15Z</time>
      </trkpt>
      <trkpt lat="44.04327" lon="6.92871">
        <ele>1688.69</ele>
        <time>2019-07-31T14:17:35Z</time>
      </trkpt>
      <trkpt lat="44.04326" lon="6.92872">
        <ele>1688.69</ele>
        <time>2019-07-31T14:17:52Z</time>
      </trkpt>
      <trkpt lat="44.04327" lon="6.9287">
        <ele>1687.25</ele>
        <time>2019-07-31T14:18:00Z</time>
      </trkpt>
      <trkpt lat="44.0433" lon="6.92862">
        <ele>1689.17</ele>
        <time>2019-07-31T14:18:04Z</time>
      </trkpt>
      <trkpt lat="44.04343" lon="6.92851">
        <ele>1687.73</ele>
        <time>2019-07-31T14:18:13Z</time>
      </trkpt>
      <trkpt lat="44.04344" lon="6.92852">
        <ele>1686.29</ele>
        <time>2019-07-31T14:18:14Z</time>
      </trkpt>
      <trkpt lat="44.04351" lon="6.92861">
        <ele>1686.29</ele>
        <time>2019-07-31T14:18:17Z</time>
      </trkpt>
      <trkpt lat="44.04356" lon="6.92872">
        <ele>1685.33</ele>
        <time>2019-07-31T14:18:19Z</time>
      </trkpt>
      <trkpt lat="44.0436" lon="6.92885">
        <ele>1683.89</ele>
        <time>2019-07-31T14:18:21Z</time>
      </trkpt>
      <trkpt lat="44.04361" lon="6.92891">
        <ele>1684.85</ele>
        <time>2019-07-31T14:18:22Z</time>
      </trkpt>
      <trkpt lat="44.04363" lon="6.92898">
        <ele>1685.81</ele>
        <time>2019-07-31T14:18:23Z</time>
      </trkpt>
      <trkpt lat="44.04365" lon="6.92906">
        <ele>1685.81</ele>
        <time>2019-07-31T14:18:24Z</time>
      </trkpt>
      <trkpt lat="44.04368" lon="6.92913">
        <ele>1683.41</ele>
        <time>2019-07-31T14:18:25Z</time>
      </trkpt>
      <trkpt lat="44.04369" lon="6.92921">
        <ele>1683.41</ele>
        <time>2019-07-31T14:18:26Z</time>
      </trkpt>
      <trkpt lat="44.0437" lon="6.9293">
        <ele>1682.93</ele>
        <time>2019-07-31T14:18:27Z</time>
      </trkpt>
      <trkpt lat="44.04371" lon="6.9294">
        <ele>1682.93</ele>
        <time>2019-07-31T14:18:28Z</time>
      </trkpt>
      <trkpt lat="44.04374" lon="6.92965">
        <ele>1682.93</ele>
        <time>2019-07-31T14:18:30Z</time>
      </trkpt>
      <trkpt lat="44.04376" lon="6.92975">
        <ele>1681.48</ele>
        <time>2019-07-31T14:18:31Z</time>
      </trkpt>
      <trkpt lat="44.0438" lon="6.92985">
        <ele>1683.89</ele>
        <time>2019-07-31T14:18:32Z</time>
      </trkpt>
      <trkpt lat="44.04383" lon="6.92993">
        <ele>1680.52</ele>
        <time>2019-07-31T14:18:33Z</time>
      </trkpt>
      <trkpt lat="44.04386" lon="6.93001">
        <ele>1680.52</ele>
        <time>2019-07-31T14:18:34Z</time>
      </trkpt>
      <trkpt lat="44.04387" lon="6.93009">
        <ele>1679.08</ele>
        <time>2019-07-31T14:18:35Z</time>
      </trkpt>
      <trkpt lat="44.04388" lon="6.93018">
        <ele>1679.56</ele>
        <time>2019-07-31T14:18:36Z</time>
      </trkpt>
      <trkpt lat="44.04388" lon="6.93026">
        <ele>1681</ele>
        <time>2019-07-31T14:18:37Z</time>
      </trkpt>
      <trkpt lat="44.04387" lon="6.9305">
        <ele>1679.08</ele>
        <time>2019-07-31T14:18:40Z</time>
      </trkpt>
      <trkpt lat="44.04387" lon="6.93058">
        <ele>1678.6</ele>
        <time>2019-07-31T14:18:41Z</time>
      </trkpt>
      <trkpt lat="44.04388" lon="6.93068">
        <ele>1678.6</ele>
        <time>2019-07-31T14:18:42Z</time>
      </trkpt>
      <trkpt lat="44.04419" lon="6.93165">
        <ele>1674.75</ele>
        <time>2019-07-31T14:18:52Z</time>
      </trkpt>
      <trkpt lat="44.04438" lon="6.93271">
        <ele>1673.79</ele>
        <time>2019-07-31T14:19:03Z</time>
      </trkpt>
      <trkpt lat="44.0444" lon="6.9328">
        <ele>1672.83</ele>
        <time>2019-07-31T14:19:04Z</time>
      </trkpt>
      <trkpt lat="44.0444" lon="6.93289">
        <ele>1672.35</ele>
        <time>2019-07-31T14:19:05Z</time>
      </trkpt>
      <trkpt lat="44.0444" lon="6.9336">
        <ele>1670.43</ele>
        <time>2019-07-31T14:19:12Z</time>
      </trkpt>
      <trkpt lat="44.04452" lon="6.93455">
        <ele>1665.62</ele>
        <time>2019-07-31T14:19:21Z</time>
      </trkpt>
      <trkpt lat="44.04472" lon="6.93515">
        <ele>1664.18</ele>
        <time>2019-07-31T14:19:27Z</time>
      </trkpt>
      <trkpt lat="44.04484" lon="6.93558">
        <ele>1660.33</ele>
        <time>2019-07-31T14:19:31Z</time>
      </trkpt>
      <trkpt lat="44.04487" lon="6.9357">
        <ele>1660.33</ele>
        <time>2019-07-31T14:19:32Z</time>
      </trkpt>
      <trkpt lat="44.04494" lon="6.93604">
        <ele>1659.37</ele>
        <time>2019-07-31T14:19:35Z</time>
      </trkpt>
      <trkpt lat="44.04502" lon="6.93623">
        <ele>1658.41</ele>
        <time>2019-07-31T14:19:37Z</time>
      </trkpt>
      <trkpt lat="44.04507" lon="6.9363">
        <ele>1658.41</ele>
        <time>2019-07-31T14:19:38Z</time>
      </trkpt>
      <trkpt lat="44.04513" lon="6.93635">
        <ele>1656.97</ele>
        <time>2019-07-31T14:19:39Z</time>
      </trkpt>
      <trkpt lat="44.0452" lon="6.9364">
        <ele>1656.01</ele>
        <time>2019-07-31T14:19:40Z</time>
      </trkpt>
      <trkpt lat="44.04532" lon="6.93639">
        <ele>1656.01</ele>
        <time>2019-07-31T14:19:41Z</time>
      </trkpt>
      <trkpt lat="44.04543" lon="6.93638">
        <ele>1655.05</ele>
        <time>2019-07-31T14:19:42Z</time>
      </trkpt>
      <trkpt lat="44.04552" lon="6.93639">
        <ele>1654.57</ele>
        <time>2019-07-31T14:19:43Z</time>
      </trkpt>
      <trkpt lat="44.04568" lon="6.93642">
        <ele>1651.68</ele>
        <time>2019-07-31T14:19:45Z</time>
      </trkpt>
      <trkpt lat="44.04574" lon="6.93645">
        <ele>1651.68</ele>
        <time>2019-07-31T14:19:46Z</time>
      </trkpt>
      <trkpt lat="44.04578" lon="6.93648">
        <ele>1651.68</ele>
        <time>2019-07-31T14:19:47Z</time>
      </trkpt>
      <trkpt lat="44.0458" lon="6.93651">
        <ele>1651.68</ele>
        <time>2019-07-31T14:19:48Z</time>
      </trkpt>
      <trkpt lat="44.04581" lon="6.93657">
        <ele>1652.64</ele>
        <time>2019-07-31T14:19:49Z</time>
      </trkpt>
      <trkpt lat="44.0458" lon="6.93661">
        <ele>1652.64</ele>
        <time>2019-07-31T14:19:50Z</time>
      </trkpt>
      <trkpt lat="44.04579" lon="6.93666">
        <ele>1650.72</ele>
        <time>2019-07-31T14:19:51Z</time>
      </trkpt>
      <trkpt lat="44.04577" lon="6.93672">
        <ele>1653.12</ele>
        <time>2019-07-31T14:19:52Z</time>
      </trkpt>
      <trkpt lat="44.04575" lon="6.93677">
        <ele>1653.12</ele>
        <time>2019-07-31T14:19:53Z</time>
      </trkpt>
      <trkpt lat="44.04572" lon="6.93682">
        <ele>1652.16</ele>
        <time>2019-07-31T14:19:54Z</time>
      </trkpt>
      <trkpt lat="44.04565" lon="6.93693">
        <ele>1654.57</ele>
        <time>2019-07-31T14:19:56Z</time>
      </trkpt>
      <trkpt lat="44.04521" lon="6.93749">
        <ele>1658.41</ele>
        <time>2019-07-31T14:20:07Z</time>
      </trkpt>
      <trkpt lat="44.04483" lon="6.93794">
        <ele>1661.78</ele>
        <time>2019-07-31T14:20:17Z</time>
      </trkpt>
      <trkpt lat="44.04462" lon="6.93817">
        <ele>1665.14</ele>
        <time>2019-07-31T14:20:24Z</time>
      </trkpt>
      <trkpt lat="44.0444" lon="6.93874">
        <ele>1667.06</ele>
        <time>2019-07-31T14:20:36Z</time>
      </trkpt>
      <trkpt lat="44.04439" lon="6.9388">
        <ele>1667.06</ele>
        <time>2019-07-31T14:20:37Z</time>
      </trkpt>
      <trkpt lat="44.0444" lon="6.9389">
        <ele>1665.62</ele>
        <time>2019-07-31T14:20:39Z</time>
      </trkpt>
      <trkpt lat="44.04444" lon="6.93943">
        <ele>1663.7</ele>
        <time>2019-07-31T14:20:50Z</time>
      </trkpt>
      <trkpt lat="44.04442" lon="6.93947">
        <ele>1663.7</ele>
        <time>2019-07-31T14:20:51Z</time>
      </trkpt>
      <trkpt lat="44.04439" lon="6.9395">
        <ele>1663.7</ele>
        <time>2019-07-31T14:20:52Z</time>
      </trkpt>
      <trkpt lat="44.04436" lon="6.93953">
        <ele>1664.66</ele>
        <time>2019-07-31T14:20:53Z</time>
      </trkpt>
      <trkpt lat="44.04434" lon="6.93956">
        <ele>1664.66</ele>
        <time>2019-07-31T14:20:54Z</time>
      </trkpt>
      <trkpt lat="44.04432" lon="6.9396">
        <ele>1664.66</ele>
        <time>2019-07-31T14:20:55Z</time>
      </trkpt>
      <trkpt lat="44.04429" lon="6.93964">
        <ele>1664.66</ele>
        <time>2019-07-31T14:20:56Z</time>
      </trkpt>
      <trkpt lat="44.044" lon="6.94044">
        <ele>1663.7</ele>
        <time>2019-07-31T14:21:12Z</time>
      </trkpt>
      <trkpt lat="44.04399" lon="6.94054">
        <ele>1665.14</ele>
        <time>2019-07-31T14:21:14Z</time>
      </trkpt>
      <trkpt lat="44.04398" lon="6.94084">
        <ele>1663.7</ele>
        <time>2019-07-31T14:21:20Z</time>
      </trkpt>
      <trkpt lat="44.04398" lon="6.9409">
        <ele>1663.7</ele>
        <time>2019-07-31T14:21:21Z</time>
      </trkpt>
      <trkpt lat="44.04399" lon="6.94095">
        <ele>1663.7</ele>
        <time>2019-07-31T14:21:22Z</time>
      </trkpt>
      <trkpt lat="44.044" lon="6.94106">
        <ele>1665.14</ele>
        <time>2019-07-31T14:21:24Z</time>
      </trkpt>
      <trkpt lat="44.044" lon="6.94112">
        <ele>1662.74</ele>
        <time>2019-07-31T14:21:25Z</time>
      </trkpt>
      <trkpt lat="44.04402" lon="6.94126">
        <ele>1664.18</ele>
        <time>2019-07-31T14:21:27Z</time>
      </trkpt>
      <trkpt lat="44.04408" lon="6.94137">
        <ele>1661.78</ele>
        <time>2019-07-31T14:21:29Z</time>
      </trkpt>
      <trkpt lat="44.04409" lon="6.94142">
        <ele>1661.78</ele>
        <time>2019-07-31T14:21:30Z</time>
      </trkpt>
      <trkpt lat="44.04406" lon="6.94149">
        <ele>1662.74</ele>
        <time>2019-07-31T14:21:31Z</time>
      </trkpt>
      <trkpt lat="44.044" lon="6.94156">
        <ele>1661.78</ele>
        <time>2019-07-31T14:21:32Z</time>
      </trkpt>
      <trkpt lat="44.04394" lon="6.94162">
        <ele>1661.78</ele>
        <time>2019-07-31T14:21:33Z</time>
      </trkpt>
      <trkpt lat="44.04387" lon="6.94169">
        <ele>1661.78</ele>
        <time>2019-07-31T14:21:34Z</time>
      </trkpt>
      <trkpt lat="44.04375" lon="6.94183">
        <ele>1661.3</ele>
        <time>2019-07-31T14:21:36Z</time>
      </trkpt>
      <trkpt lat="44.0437" lon="6.94192">
        <ele>1660.81</ele>
        <time>2019-07-31T14:21:37Z</time>
      </trkpt>
      <trkpt lat="44.04366" lon="6.942">
        <ele>1659.37</ele>
        <time>2019-07-31T14:21:38Z</time>
      </trkpt>
      <trkpt lat="44.04363" lon="6.94209">
        <ele>1659.37</ele>
        <time>2019-07-31T14:21:39Z</time>
      </trkpt>
      <trkpt lat="44.04361" lon="6.94218">
        <ele>1657.93</ele>
        <time>2019-07-31T14:21:40Z</time>
      </trkpt>
      <trkpt lat="44.0436" lon="6.94225">
        <ele>1657.45</ele>
        <time>2019-07-31T14:21:41Z</time>
      </trkpt>
      <trkpt lat="44.0436" lon="6.94232">
        <ele>1656.97</ele>
        <time>2019-07-31T14:21:42Z</time>
      </trkpt>
      <trkpt lat="44.04359" lon="6.94269">
        <ele>1654.09</ele>
        <time>2019-07-31T14:21:52Z</time>
      </trkpt>
      <trkpt lat="44.04362" lon="6.94268">
        <ele>1653.6</ele>
        <time>2019-07-31T14:22:05Z</time>
      </trkpt>
      <trkpt lat="44.0436" lon="6.94264">
        <ele>1653.6</ele>
        <time>2019-07-31T14:22:39Z</time>
      </trkpt>
      <trkpt lat="44.0436" lon="6.94261">
        <ele>1654.09</ele>
        <time>2019-07-31T14:23:13Z</time>
      </trkpt>
      <trkpt lat="44.0436" lon="6.94262">
        <ele>1654.09</ele>
        <time>2019-07-31T14:23:50Z</time>
      </trkpt>
      <trkpt lat="44.04359" lon="6.94264">
        <ele>1652.16</ele>
        <time>2019-07-31T14:24:14Z</time>
      </trkpt>
      <trkpt lat="44.04359" lon="6.94264">
        <ele>1653.6</ele>
        <time>2019-07-31T14:24:36Z</time>
      </trkpt>
      <trkpt lat="44.04358" lon="6.94264">
        <ele>1653.6</ele>
        <time>2019-07-31T14:24:52Z</time>
      </trkpt>
      <trkpt lat="44.04358" lon="6.94264">
        <ele>1653.6</ele>
        <time>2019-07-31T14:25:12Z</time>
      </trkpt>
      <trkpt lat="44.04359" lon="6.94264">
        <ele>1653.6</ele>
        <time>2019-07-31T14:25:38Z</time>
      </trkpt>
      <trkpt lat="44.0436" lon="6.94265">
        <ele>1654.09</ele>
        <time>2019-07-31T14:26:05Z</time>
      </trkpt>
      <trkpt lat="44.0436" lon="6.94266">
        <ele>1654.09</ele>
        <time>2019-07-31T14:26:09Z</time>
      </trkpt>
      <trkpt lat="44.0436" lon="6.94268">
        <ele>1654.57</ele>
        <time>2019-07-31T14:26:11Z</time>
      </trkpt>
      <trkpt lat="44.0436" lon="6.9427">
        <ele>1655.05</ele>
        <time>2019-07-31T14:26:12Z</time>
      </trkpt>
      <trkpt lat="44.04359" lon="6.94323">
        <ele>1653.6</ele>
        <time>2019-07-31T14:26:26Z</time>
      </trkpt>
      <trkpt lat="44.0436" lon="6.94401">
        <ele>1652.16</ele>
        <time>2019-07-31T14:26:40Z</time>
      </trkpt>
      <trkpt lat="44.0436" lon="6.94427">
        <ele>1651.68</ele>
        <time>2019-07-31T14:26:45Z</time>
      </trkpt>
      <trkpt lat="44.04363" lon="6.94445">
        <ele>1651.2</ele>
        <time>2019-07-31T14:26:48Z</time>
      </trkpt>
      <trkpt lat="44.04366" lon="6.94459">
        <ele>1650.24</ele>
        <time>2019-07-31T14:26:50Z</time>
      </trkpt>
      <trkpt lat="44.04369" lon="6.94465">
        <ele>1649.76</ele>
        <time>2019-07-31T14:26:51Z</time>
      </trkpt>
      <trkpt lat="44.04377" lon="6.94484">
        <ele>1646.88</ele>
        <time>2019-07-31T14:26:54Z</time>
      </trkpt>
      <trkpt lat="44.04385" lon="6.94509">
        <ele>1643.99</ele>
        <time>2019-07-31T14:26:57Z</time>
      </trkpt>
      <trkpt lat="44.04391" lon="6.9453">
        <ele>1640.15</ele>
        <time>2019-07-31T14:27:00Z</time>
      </trkpt>
      <trkpt lat="44.04394" lon="6.94534">
        <ele>1639.19</ele>
        <time>2019-07-31T14:27:01Z</time>
      </trkpt>
      <trkpt lat="44.04397" lon="6.94537">
        <ele>1638.22</ele>
        <time>2019-07-31T14:27:02Z</time>
      </trkpt>
      <trkpt lat="44.04404" lon="6.94544">
        <ele>1637.26</ele>
        <time>2019-07-31T14:27:04Z</time>
      </trkpt>
      <trkpt lat="44.04407" lon="6.94549">
        <ele>1636.78</ele>
        <time>2019-07-31T14:27:05Z</time>
      </trkpt>
      <trkpt lat="44.04409" lon="6.94553">
        <ele>1635.34</ele>
        <time>2019-07-31T14:27:06Z</time>
      </trkpt>
      <trkpt lat="44.0441" lon="6.94558">
        <ele>1635.34</ele>
        <time>2019-07-31T14:27:07Z</time>
      </trkpt>
      <trkpt lat="44.0441" lon="6.94564">
        <ele>1635.34</ele>
        <time>2019-07-31T14:27:08Z</time>
      </trkpt>
      <trkpt lat="44.04408" lon="6.9457">
        <ele>1635.34</ele>
        <time>2019-07-31T14:27:09Z</time>
      </trkpt>
      <trkpt lat="44.04405" lon="6.94575">
        <ele>1634.86</ele>
        <time>2019-07-31T14:27:10Z</time>
      </trkpt>
      <trkpt lat="44.04402" lon="6.94581">
        <ele>1634.86</ele>
        <time>2019-07-31T14:27:11Z</time>
      </trkpt>
      <trkpt lat="44.04399" lon="6.94588">
        <ele>1634.86</ele>
        <time>2019-07-31T14:27:12Z</time>
      </trkpt>
      <trkpt lat="44.04397" lon="6.94595">
        <ele>1633.9</ele>
        <time>2019-07-31T14:27:13Z</time>
      </trkpt>
      <trkpt lat="44.04395" lon="6.94601">
        <ele>1632.94</ele>
        <time>2019-07-31T14:27:14Z</time>
      </trkpt>
      <trkpt lat="44.04393" lon="6.94606">
        <ele>1631.01</ele>
        <time>2019-07-31T14:27:15Z</time>
      </trkpt>
      <trkpt lat="44.04392" lon="6.94609">
        <ele>1630.05</ele>
        <time>2019-07-31T14:27:16Z</time>
      </trkpt>
      <trkpt lat="44.04391" lon="6.9461">
        <ele>1630.05</ele>
        <time>2019-07-31T14:27:17Z</time>
      </trkpt>
      <trkpt lat="44.04389" lon="6.94611">
        <ele>1630.05</ele>
        <time>2019-07-31T14:27:18Z</time>
      </trkpt>
      <trkpt lat="44.04388" lon="6.94611">
        <ele>1630.05</ele>
        <time>2019-07-31T14:27:19Z</time>
      </trkpt>
      <trkpt lat="44.04386" lon="6.94612">
        <ele>1629.09</ele>
        <time>2019-07-31T14:27:20Z</time>
      </trkpt>
      <trkpt lat="44.04383" lon="6.94612">
        <ele>1629.09</ele>
        <time>2019-07-31T14:27:21Z</time>
      </trkpt>
      <trkpt lat="44.04376" lon="6.94616">
        <ele>1629.57</ele>
        <time>2019-07-31T14:27:23Z</time>
      </trkpt>
      <trkpt lat="44.04373" lon="6.9462">
        <ele>1629.57</ele>
        <time>2019-07-31T14:27:24Z</time>
      </trkpt>
      <trkpt lat="44.0437" lon="6.94625">
        <ele>1629.57</ele>
        <time>2019-07-31T14:27:25Z</time>
      </trkpt>
      <trkpt lat="44.04364" lon="6.94636">
        <ele>1629.57</ele>
        <time>2019-07-31T14:27:27Z</time>
      </trkpt>
      <trkpt lat="44.04362" lon="6.94642">
        <ele>1629.09</ele>
        <time>2019-07-31T14:27:28Z</time>
      </trkpt>
      <trkpt lat="44.0436" lon="6.94649">
        <ele>1629.09</ele>
        <time>2019-07-31T14:27:29Z</time>
      </trkpt>
      <trkpt lat="44.04359" lon="6.94656">
        <ele>1629.09</ele>
        <time>2019-07-31T14:27:30Z</time>
      </trkpt>
      <trkpt lat="44.04357" lon="6.94662">
        <ele>1629.09</ele>
        <time>2019-07-31T14:27:31Z</time>
      </trkpt>
      <trkpt lat="44.04355" lon="6.94668">
        <ele>1629.09</ele>
        <time>2019-07-31T14:27:32Z</time>
      </trkpt>
      <trkpt lat="44.04353" lon="6.94673">
        <ele>1629.09</ele>
        <time>2019-07-31T14:27:33Z</time>
      </trkpt>
      <trkpt lat="44.04326" lon="6.94741">
        <ele>1628.13</ele>
        <time>2019-07-31T14:27:44Z</time>
      </trkpt>
      <trkpt lat="44.04309" lon="6.94769">
        <ele>1627.65</ele>
        <time>2019-07-31T14:27:48Z</time>
      </trkpt>
      <trkpt lat="44.04304" lon="6.94774">
        <ele>1627.65</ele>
        <time>2019-07-31T14:27:49Z</time>
      </trkpt>
      <trkpt lat="44.043" lon="6.9478">
        <ele>1627.65</ele>
        <time>2019-07-31T14:27:50Z</time>
      </trkpt>
      <trkpt lat="44.04296" lon="6.94787">
        <ele>1627.65</ele>
        <time>2019-07-31T14:27:51Z</time>
      </trkpt>
      <trkpt lat="44.04293" lon="6.94794">
        <ele>1626.69</ele>
        <time>2019-07-31T14:27:52Z</time>
      </trkpt>
      <trkpt lat="44.04289" lon="6.94803">
        <ele>1626.69</ele>
        <time>2019-07-31T14:27:53Z</time>
      </trkpt>
      <trkpt lat="44.04287" lon="6.94811">
        <ele>1625.73</ele>
        <time>2019-07-31T14:27:54Z</time>
      </trkpt>
      <trkpt lat="44.04285" lon="6.94821">
        <ele>1625.73</ele>
        <time>2019-07-31T14:27:55Z</time>
      </trkpt>
      <trkpt lat="44.04285" lon="6.94832">
        <ele>1624.77</ele>
        <time>2019-07-31T14:27:56Z</time>
      </trkpt>
      <trkpt lat="44.04286" lon="6.94842">
        <ele>1624.28</ele>
        <time>2019-07-31T14:27:57Z</time>
      </trkpt>
      <trkpt lat="44.04291" lon="6.94852">
        <ele>1624.28</ele>
        <time>2019-07-31T14:27:58Z</time>
      </trkpt>
      <trkpt lat="44.04295" lon="6.94859">
        <ele>1623.32</ele>
        <time>2019-07-31T14:27:59Z</time>
      </trkpt>
      <trkpt lat="44.04298" lon="6.94863">
        <ele>1621.88</ele>
        <time>2019-07-31T14:28:00Z</time>
      </trkpt>
      <trkpt lat="44.043" lon="6.94868">
        <ele>1620.44</ele>
        <time>2019-07-31T14:28:08Z</time>
      </trkpt>
      <trkpt lat="44.04301" lon="6.94866">
        <ele>1619.96</ele>
        <time>2019-07-31T14:28:29Z</time>
      </trkpt>
      <trkpt lat="44.043" lon="6.94866">
        <ele>1619.48</ele>
        <time>2019-07-31T14:29:02Z</time>
      </trkpt>
      <trkpt lat="44.043" lon="6.94867">
        <ele>1619.48</ele>
        <time>2019-07-31T14:29:41Z</time>
      </trkpt>
      <trkpt lat="44.04299" lon="6.94867">
        <ele>1619.48</ele>
        <time>2019-07-31T14:30:26Z</time>
      </trkpt>
      <trkpt lat="44.043" lon="6.94867">
        <ele>1622.36</ele>
        <time>2019-07-31T14:31:05Z</time>
      </trkpt>
      <trkpt lat="44.043" lon="6.94867">
        <ele>1621.4</ele>
        <time>2019-07-31T14:31:06Z</time>
      </trkpt>
      <trkpt lat="44.043" lon="6.94868">
        <ele>1620.44</ele>
        <time>2019-07-31T14:31:08Z</time>
      </trkpt>
      <trkpt lat="44.043" lon="6.94867">
        <ele>1619.48</ele>
        <time>2019-07-31T14:31:14Z</time>
      </trkpt>
      <trkpt lat="44.04301" lon="6.94867">
        <ele>1620.44</ele>
        <time>2019-07-31T14:31:27Z</time>
      </trkpt>
      <trkpt lat="44.04302" lon="6.94867">
        <ele>1620.92</ele>
        <time>2019-07-31T14:31:43Z</time>
      </trkpt>
      <trkpt lat="44.04302" lon="6.94868">
        <ele>1620.92</ele>
        <time>2019-07-31T14:31:44Z</time>
      </trkpt>
      <trkpt lat="44.04314" lon="6.94885">
        <ele>1619.48</ele>
        <time>2019-07-31T14:31:49Z</time>
      </trkpt>
      <trkpt lat="44.0432" lon="6.94896">
        <ele>1618.52</ele>
        <time>2019-07-31T14:31:51Z</time>
      </trkpt>
      <trkpt lat="44.0434" lon="6.94916">
        <ele>1615.15</ele>
        <time>2019-07-31T14:31:56Z</time>
      </trkpt>
      <trkpt lat="44.04344" lon="6.94916">
        <ele>1615.15</ele>
        <time>2019-07-31T14:31:57Z</time>
      </trkpt>
      <trkpt lat="44.04363" lon="6.94911">
        <ele>1613.23</ele>
        <time>2019-07-31T14:32:01Z</time>
      </trkpt>
      <trkpt lat="44.04368" lon="6.94912">
        <ele>1612.27</ele>
        <time>2019-07-31T14:32:02Z</time>
      </trkpt>
      <trkpt lat="44.04371" lon="6.94916">
        <ele>1611.79</ele>
        <time>2019-07-31T14:32:03Z</time>
      </trkpt>
      <trkpt lat="44.04372" lon="6.94921">
        <ele>1611.31</ele>
        <time>2019-07-31T14:32:04Z</time>
      </trkpt>
      <trkpt lat="44.04373" lon="6.94925">
        <ele>1610.83</ele>
        <time>2019-07-31T14:32:05Z</time>
      </trkpt>
      <trkpt lat="44.04374" lon="6.94928">
        <ele>1610.83</ele>
        <time>2019-07-31T14:32:06Z</time>
      </trkpt>
      <trkpt lat="44.04374" lon="6.94927">
        <ele>1610.35</ele>
        <time>2019-07-31T14:32:21Z</time>
      </trkpt>
      <trkpt lat="44.04372" lon="6.94928">
        <ele>1610.35</ele>
        <time>2019-07-31T14:32:47Z</time>
      </trkpt>
      <trkpt lat="44.04382" lon="6.94944">
        <ele>1610.35</ele>
        <time>2019-07-31T14:33:10Z</time>
      </trkpt>
      <trkpt lat="44.04406" lon="6.94989">
        <ele>1609.38</ele>
        <time>2019-07-31T14:33:20Z</time>
      </trkpt>
      <trkpt lat="44.04446" lon="6.95049">
        <ele>1606.98</ele>
        <time>2019-07-31T14:33:29Z</time>
      </trkpt>
      <trkpt lat="44.0445" lon="6.95052">
        <ele>1606.5</ele>
        <time>2019-07-31T14:33:30Z</time>
      </trkpt>
      <trkpt lat="44.04454" lon="6.95056">
        <ele>1605.54</ele>
        <time>2019-07-31T14:33:31Z</time>
      </trkpt>
      <trkpt lat="44.04456" lon="6.9506">
        <ele>1605.06</ele>
        <time>2019-07-31T14:33:32Z</time>
      </trkpt>
      <trkpt lat="44.04458" lon="6.95065">
        <ele>1605.06</ele>
        <time>2019-07-31T14:33:33Z</time>
      </trkpt>
      <trkpt lat="44.04459" lon="6.95071">
        <ele>1605.06</ele>
        <time>2019-07-31T14:33:34Z</time>
      </trkpt>
      <trkpt lat="44.04459" lon="6.95077">
        <ele>1605.06</ele>
        <time>2019-07-31T14:33:35Z</time>
      </trkpt>
      <trkpt lat="44.04471" lon="6.95123">
        <ele>1604.58</ele>
        <time>2019-07-31T14:33:42Z</time>
      </trkpt>
      <trkpt lat="44.04475" lon="6.95129">
        <ele>1604.58</ele>
        <time>2019-07-31T14:33:43Z</time>
      </trkpt>
      <trkpt lat="44.04479" lon="6.95135">
        <ele>1604.58</ele>
        <time>2019-07-31T14:33:44Z</time>
      </trkpt>
      <trkpt lat="44.04483" lon="6.9514">
        <ele>1603.62</ele>
        <time>2019-07-31T14:33:45Z</time>
      </trkpt>
      <trkpt lat="44.04487" lon="6.95146">
        <ele>1603.62</ele>
        <time>2019-07-31T14:33:46Z</time>
      </trkpt>
      <trkpt lat="44.04492" lon="6.95151">
        <ele>1603.62</ele>
        <time>2019-07-31T14:33:47Z</time>
      </trkpt>
      <trkpt lat="44.04495" lon="6.95157">
        <ele>1602.66</ele>
        <time>2019-07-31T14:33:48Z</time>
      </trkpt>
      <trkpt lat="44.04498" lon="6.95164">
        <ele>1602.66</ele>
        <time>2019-07-31T14:33:49Z</time>
      </trkpt>
      <trkpt lat="44.04501" lon="6.95171">
        <ele>1602.66</ele>
        <time>2019-07-31T14:33:50Z</time>
      </trkpt>
      <trkpt lat="44.04505" lon="6.95177">
        <ele>1602.66</ele>
        <time>2019-07-31T14:33:51Z</time>
      </trkpt>
      <trkpt lat="44.04508" lon="6.95184">
        <ele>1602.66</ele>
        <time>2019-07-31T14:33:52Z</time>
      </trkpt>
      <trkpt lat="44.0451" lon="6.95192">
        <ele>1602.66</ele>
        <time>2019-07-31T14:33:53Z</time>
      </trkpt>
      <trkpt lat="44.04512" lon="6.95199">
        <ele>1601.69</ele>
        <time>2019-07-31T14:33:54Z</time>
      </trkpt>
      <trkpt lat="44.04514" lon="6.95207">
        <ele>1601.69</ele>
        <time>2019-07-31T14:33:55Z</time>
      </trkpt>
      <trkpt lat="44.04514" lon="6.95215">
        <ele>1601.69</ele>
        <time>2019-07-31T14:33:56Z</time>
      </trkpt>
      <trkpt lat="44.04515" lon="6.95223">
        <ele>1602.17</ele>
        <time>2019-07-31T14:33:57Z</time>
      </trkpt>
      <trkpt lat="44.04516" lon="6.95232">
        <ele>1602.17</ele>
        <time>2019-07-31T14:33:58Z</time>
      </trkpt>
      <trkpt lat="44.04515" lon="6.9524">
        <ele>1602.17</ele>
        <time>2019-07-31T14:33:59Z</time>
      </trkpt>
      <trkpt lat="44.04514" lon="6.95248">
        <ele>1602.17</ele>
        <time>2019-07-31T14:34:00Z</time>
      </trkpt>
      <trkpt lat="44.04513" lon="6.95257">
        <ele>1602.17</ele>
        <time>2019-07-31T14:34:01Z</time>
      </trkpt>
      <trkpt lat="44.04512" lon="6.95265">
        <ele>1601.21</ele>
        <time>2019-07-31T14:34:02Z</time>
      </trkpt>
      <trkpt lat="44.04511" lon="6.95274">
        <ele>1601.21</ele>
        <time>2019-07-31T14:34:03Z</time>
      </trkpt>
      <trkpt lat="44.04512" lon="6.95283">
        <ele>1600.73</ele>
        <time>2019-07-31T14:34:04Z</time>
      </trkpt>
      <trkpt lat="44.04514" lon="6.95292">
        <ele>1600.73</ele>
        <time>2019-07-31T14:34:05Z</time>
      </trkpt>
      <trkpt lat="44.04517" lon="6.953">
        <ele>1600.73</ele>
        <time>2019-07-31T14:34:06Z</time>
      </trkpt>
      <trkpt lat="44.0452" lon="6.95309">
        <ele>1599.77</ele>
        <time>2019-07-31T14:34:07Z</time>
      </trkpt>
      <trkpt lat="44.04524" lon="6.95316">
        <ele>1599.77</ele>
        <time>2019-07-31T14:34:08Z</time>
      </trkpt>
      <trkpt lat="44.0453" lon="6.95321">
        <ele>1599.29</ele>
        <time>2019-07-31T14:34:09Z</time>
      </trkpt>
      <trkpt lat="44.04535" lon="6.95322">
        <ele>1598.33</ele>
        <time>2019-07-31T14:34:10Z</time>
      </trkpt>
      <trkpt lat="44.04542" lon="6.95321">
        <ele>1598.33</ele>
        <time>2019-07-31T14:34:11Z</time>
      </trkpt>
      <trkpt lat="44.04547" lon="6.95318">
        <ele>1597.85</ele>
        <time>2019-07-31T14:34:12Z</time>
      </trkpt>
      <trkpt lat="44.04552" lon="6.95314">
        <ele>1597.37</ele>
        <time>2019-07-31T14:34:13Z</time>
      </trkpt>
      <trkpt lat="44.04556" lon="6.95311">
        <ele>1597.37</ele>
        <time>2019-07-31T14:34:14Z</time>
      </trkpt>
      <trkpt lat="44.0456" lon="6.95307">
        <ele>1596.89</ele>
        <time>2019-07-31T14:34:15Z</time>
      </trkpt>
      <trkpt lat="44.04569" lon="6.95301">
        <ele>1596.41</ele>
        <time>2019-07-31T14:34:17Z</time>
      </trkpt>
      <trkpt lat="44.04573" lon="6.95299">
        <ele>1596.41</ele>
        <time>2019-07-31T14:34:18Z</time>
      </trkpt>
      <trkpt lat="44.04578" lon="6.95298">
        <ele>1596.41</ele>
        <time>2019-07-31T14:34:19Z</time>
      </trkpt>
      <trkpt lat="44.04584" lon="6.95298">
        <ele>1596.41</ele>
        <time>2019-07-31T14:34:20Z</time>
      </trkpt>
      <trkpt lat="44.04589" lon="6.953">
        <ele>1596.41</ele>
        <time>2019-07-31T14:34:21Z</time>
      </trkpt>
      <trkpt lat="44.04593" lon="6.95303">
        <ele>1596.41</ele>
        <time>2019-07-31T14:34:22Z</time>
      </trkpt>
      <trkpt lat="44.04598" lon="6.95307">
        <ele>1596.41</ele>
        <time>2019-07-31T14:34:23Z</time>
      </trkpt>
      <trkpt lat="44.04608" lon="6.95315">
        <ele>1595.93</ele>
        <time>2019-07-31T14:34:25Z</time>
      </trkpt>
      <trkpt lat="44.04612" lon="6.95321">
        <ele>1595.93</ele>
        <time>2019-07-31T14:34:26Z</time>
      </trkpt>
      <trkpt lat="44.04614" lon="6.95329">
        <ele>1595.93</ele>
        <time>2019-07-31T14:34:27Z</time>
      </trkpt>
      <trkpt lat="44.04616" lon="6.95338">
        <ele>1595.45</ele>
        <time>2019-07-31T14:34:28Z</time>
      </trkpt>
      <trkpt lat="44.04618" lon="6.95347">
        <ele>1594</ele>
        <time>2019-07-31T14:34:29Z</time>
      </trkpt>
      <trkpt lat="44.04619" lon="6.95366">
        <ele>1592.56</ele>
        <time>2019-07-31T14:34:31Z</time>
      </trkpt>
      <trkpt lat="44.04617" lon="6.95374">
        <ele>1592.08</ele>
        <time>2019-07-31T14:34:32Z</time>
      </trkpt>
      <trkpt lat="44.04614" lon="6.95382">
        <ele>1592.08</ele>
        <time>2019-07-31T14:34:33Z</time>
      </trkpt>
      <trkpt lat="44.04611" lon="6.95389">
        <ele>1591.6</ele>
        <time>2019-07-31T14:34:34Z</time>
      </trkpt>
      <trkpt lat="44.04609" lon="6.95398">
        <ele>1591.6</ele>
        <time>2019-07-31T14:34:35Z</time>
      </trkpt>
      <trkpt lat="44.04608" lon="6.95408">
        <ele>1591.6</ele>
        <time>2019-07-31T14:34:36Z</time>
      </trkpt>
      <trkpt lat="44.04609" lon="6.95417">
        <ele>1590.64</ele>
        <time>2019-07-31T14:34:37Z</time>
      </trkpt>
      <trkpt lat="44.04611" lon="6.95426">
        <ele>1590.16</ele>
        <time>2019-07-31T14:34:38Z</time>
      </trkpt>
      <trkpt lat="44.04614" lon="6.95436">
        <ele>1589.68</ele>
        <time>2019-07-31T14:34:39Z</time>
      </trkpt>
      <trkpt lat="44.04616" lon="6.95446">
        <ele>1588.72</ele>
        <time>2019-07-31T14:34:40Z</time>
      </trkpt>
      <trkpt lat="44.04618" lon="6.95455">
        <ele>1587.75</ele>
        <time>2019-07-31T14:34:41Z</time>
      </trkpt>
      <trkpt lat="44.04621" lon="6.95462">
        <ele>1586.79</ele>
        <time>2019-07-31T14:34:42Z</time>
      </trkpt>
      <trkpt lat="44.04626" lon="6.95465">
        <ele>1585.83</ele>
        <time>2019-07-31T14:34:43Z</time>
      </trkpt>
      <trkpt lat="44.04631" lon="6.95465">
        <ele>1585.35</ele>
        <time>2019-07-31T14:34:44Z</time>
      </trkpt>
      <trkpt lat="44.04636" lon="6.95466">
        <ele>1585.35</ele>
        <time>2019-07-31T14:34:45Z</time>
      </trkpt>
      <trkpt lat="44.0464" lon="6.95468">
        <ele>1583.91</ele>
        <time>2019-07-31T14:34:46Z</time>
      </trkpt>
      <trkpt lat="44.04643" lon="6.95473">
        <ele>1583.43</ele>
        <time>2019-07-31T14:34:47Z</time>
      </trkpt>
      <trkpt lat="44.04644" lon="6.9548">
        <ele>1582.95</ele>
        <time>2019-07-31T14:34:48Z</time>
      </trkpt>
      <trkpt lat="44.04644" lon="6.95488">
        <ele>1581.99</ele>
        <time>2019-07-31T14:34:49Z</time>
      </trkpt>
      <trkpt lat="44.04644" lon="6.95497">
        <ele>1581.51</ele>
        <time>2019-07-31T14:34:50Z</time>
      </trkpt>
      <trkpt lat="44.04643" lon="6.95507">
        <ele>1581.51</ele>
        <time>2019-07-31T14:34:51Z</time>
      </trkpt>
      <trkpt lat="44.04642" lon="6.95518">
        <ele>1581.03</ele>
        <time>2019-07-31T14:34:52Z</time>
      </trkpt>
      <trkpt lat="44.04642" lon="6.9553">
        <ele>1579.58</ele>
        <time>2019-07-31T14:34:53Z</time>
      </trkpt>
      <trkpt lat="44.04643" lon="6.95543">
        <ele>1579.58</ele>
        <time>2019-07-31T14:34:54Z</time>
      </trkpt>
      <trkpt lat="44.04647" lon="6.95554">
        <ele>1578.62</ele>
        <time>2019-07-31T14:34:55Z</time>
      </trkpt>
      <trkpt lat="44.04652" lon="6.95565">
        <ele>1577.66</ele>
        <time>2019-07-31T14:34:56Z</time>
      </trkpt>
      <trkpt lat="44.04658" lon="6.95573">
        <ele>1576.22</ele>
        <time>2019-07-31T14:34:57Z</time>
      </trkpt>
      <trkpt lat="44.04665" lon="6.95579">
        <ele>1574.3</ele>
        <time>2019-07-31T14:34:58Z</time>
      </trkpt>
      <trkpt lat="44.04673" lon="6.95583">
        <ele>1572.85</ele>
        <time>2019-07-31T14:34:59Z</time>
      </trkpt>
      <trkpt lat="44.04681" lon="6.95586">
        <ele>1572.37</ele>
        <time>2019-07-31T14:35:00Z</time>
      </trkpt>
      <trkpt lat="44.04695" lon="6.95594">
        <ele>1569.97</ele>
        <time>2019-07-31T14:35:02Z</time>
      </trkpt>
      <trkpt lat="44.04699" lon="6.95598">
        <ele>1567.57</ele>
        <time>2019-07-31T14:35:03Z</time>
      </trkpt>
      <trkpt lat="44.04701" lon="6.95603">
        <ele>1567.57</ele>
        <time>2019-07-31T14:35:04Z</time>
      </trkpt>
      <trkpt lat="44.04704" lon="6.95612">
        <ele>1567.09</ele>
        <time>2019-07-31T14:35:06Z</time>
      </trkpt>
      <trkpt lat="44.04713" lon="6.95626">
        <ele>1566.12</ele>
        <time>2019-07-31T14:35:09Z</time>
      </trkpt>
      <trkpt lat="44.04722" lon="6.95638">
        <ele>1565.16</ele>
        <time>2019-07-31T14:35:11Z</time>
      </trkpt>
      <trkpt lat="44.04725" lon="6.95645">
        <ele>1564.68</ele>
        <time>2019-07-31T14:35:12Z</time>
      </trkpt>
      <trkpt lat="44.04728" lon="6.95653">
        <ele>1564.68</ele>
        <time>2019-07-31T14:35:13Z</time>
      </trkpt>
      <trkpt lat="44.04728" lon="6.95661">
        <ele>1564.68</ele>
        <time>2019-07-31T14:35:14Z</time>
      </trkpt>
      <trkpt lat="44.04728" lon="6.95669">
        <ele>1564.68</ele>
        <time>2019-07-31T14:35:15Z</time>
      </trkpt>
      <trkpt lat="44.04734" lon="6.95723">
        <ele>1564.68</ele>
        <time>2019-07-31T14:35:26Z</time>
      </trkpt>
      <trkpt lat="44.04734" lon="6.95754">
        <ele>1566.12</ele>
        <time>2019-07-31T14:35:34Z</time>
      </trkpt>
      <trkpt lat="44.04734" lon="6.95803">
        <ele>1569.01</ele>
        <time>2019-07-31T14:35:45Z</time>
      </trkpt>
      <trkpt lat="44.04727" lon="6.95858">
        <ele>1570.93</ele>
        <time>2019-07-31T14:35:56Z</time>
      </trkpt>
      <trkpt lat="44.04734" lon="6.95919">
        <ele>1574.3</ele>
        <time>2019-07-31T14:36:10Z</time>
      </trkpt>
      <trkpt lat="44.04749" lon="6.9593">
        <ele>1574.78</ele>
        <time>2019-07-31T14:36:16Z</time>
      </trkpt>
      <trkpt lat="44.04751" lon="6.95929">
        <ele>1574.78</ele>
        <time>2019-07-31T14:36:17Z</time>
      </trkpt>
      <trkpt lat="44.04753" lon="6.95926">
        <ele>1574.78</ele>
        <time>2019-07-31T14:36:18Z</time>
      </trkpt>
      <trkpt lat="44.04754" lon="6.95924">
        <ele>1575.74</ele>
        <time>2019-07-31T14:36:19Z</time>
      </trkpt>
      <trkpt lat="44.04756" lon="6.95923">
        <ele>1575.74</ele>
        <time>2019-07-31T14:36:20Z</time>
      </trkpt>
      <trkpt lat="44.04756" lon="6.95924">
        <ele>1575.74</ele>
        <time>2019-07-31T14:36:21Z</time>
      </trkpt>
      <trkpt lat="44.04757" lon="6.95927">
        <ele>1575.74</ele>
        <time>2019-07-31T14:36:22Z</time>
      </trkpt>
      <trkpt lat="44.04756" lon="6.95929">
        <ele>1575.74</ele>
        <time>2019-07-31T14:36:23Z</time>
      </trkpt>
      <trkpt lat="44.04757" lon="6.95932">
        <ele>1575.74</ele>
        <time>2019-07-31T14:36:24Z</time>
      </trkpt>
      <trkpt lat="44.04759" lon="6.95934">
        <ele>1573.82</ele>
        <time>2019-07-31T14:36:25Z</time>
      </trkpt>
      <trkpt lat="44.04763" lon="6.95935">
        <ele>1575.26</ele>
        <time>2019-07-31T14:36:26Z</time>
      </trkpt>
      <trkpt lat="44.04766" lon="6.95938">
        <ele>1575.26</ele>
        <time>2019-07-31T14:36:27Z</time>
      </trkpt>
      <trkpt lat="44.0477" lon="6.95941">
        <ele>1575.26</ele>
        <time>2019-07-31T14:36:28Z</time>
      </trkpt>
      <trkpt lat="44.04773" lon="6.95943">
        <ele>1575.26</ele>
        <time>2019-07-31T14:36:29Z</time>
      </trkpt>
      <trkpt lat="44.04776" lon="6.95945">
        <ele>1575.26</ele>
        <time>2019-07-31T14:36:30Z</time>
      </trkpt>
      <trkpt lat="44.0478" lon="6.95946">
        <ele>1575.26</ele>
        <time>2019-07-31T14:36:31Z</time>
      </trkpt>
      <trkpt lat="44.04785" lon="6.95948">
        <ele>1575.26</ele>
        <time>2019-07-31T14:36:32Z</time>
      </trkpt>
      <trkpt lat="44.04795" lon="6.95951">
        <ele>1575.26</ele>
        <time>2019-07-31T14:36:34Z</time>
      </trkpt>
      <trkpt lat="44.04799" lon="6.95955">
        <ele>1575.26</ele>
        <time>2019-07-31T14:36:35Z</time>
      </trkpt>
      <trkpt lat="44.04802" lon="6.9596">
        <ele>1575.26</ele>
        <time>2019-07-31T14:36:36Z</time>
      </trkpt>
      <trkpt lat="44.04803" lon="6.95965">
        <ele>1575.26</ele>
        <time>2019-07-31T14:36:37Z</time>
      </trkpt>
      <trkpt lat="44.04803" lon="6.95971">
        <ele>1575.26</ele>
        <time>2019-07-31T14:36:38Z</time>
      </trkpt>
      <trkpt lat="44.04803" lon="6.95976">
        <ele>1575.26</ele>
        <time>2019-07-31T14:36:39Z</time>
      </trkpt>
      <trkpt lat="44.04802" lon="6.95981">
        <ele>1575.26</ele>
        <time>2019-07-31T14:36:40Z</time>
      </trkpt>
      <trkpt lat="44.04802" lon="6.9601">
        <ele>1577.18</ele>
        <time>2019-07-31T14:36:46Z</time>
      </trkpt>
      <trkpt lat="44.04803" lon="6.96016">
        <ele>1577.18</ele>
        <time>2019-07-31T14:36:47Z</time>
      </trkpt>
      <trkpt lat="44.04804" lon="6.96022">
        <ele>1577.18</ele>
        <time>2019-07-31T14:36:48Z</time>
      </trkpt>
      <trkpt lat="44.04805" lon="6.96028">
        <ele>1577.66</ele>
        <time>2019-07-31T14:36:49Z</time>
      </trkpt>
      <trkpt lat="44.04806" lon="6.96034">
        <ele>1577.66</ele>
        <time>2019-07-31T14:36:50Z</time>
      </trkpt>
      <trkpt lat="44.04807" lon="6.96039">
        <ele>1577.66</ele>
        <time>2019-07-31T14:36:51Z</time>
      </trkpt>
      <trkpt lat="44.0481" lon="6.96042">
        <ele>1578.14</ele>
        <time>2019-07-31T14:36:52Z</time>
      </trkpt>
      <trkpt lat="44.04812" lon="6.96046">
        <ele>1578.14</ele>
        <time>2019-07-31T14:36:53Z</time>
      </trkpt>
      <trkpt lat="44.04818" lon="6.96051">
        <ele>1578.62</ele>
        <time>2019-07-31T14:36:55Z</time>
      </trkpt>
      <trkpt lat="44.04821" lon="6.9605">
        <ele>1578.62</ele>
        <time>2019-07-31T14:36:56Z</time>
      </trkpt>
      <trkpt lat="44.04824" lon="6.96047">
        <ele>1578.62</ele>
        <time>2019-07-31T14:36:57Z</time>
      </trkpt>
      <trkpt lat="44.04842" lon="6.96039">
        <ele>1579.1</ele>
        <time>2019-07-31T14:37:02Z</time>
      </trkpt>
      <trkpt lat="44.04846" lon="6.96041">
        <ele>1579.58</ele>
        <time>2019-07-31T14:37:03Z</time>
      </trkpt>
      <trkpt lat="44.0485" lon="6.96042">
        <ele>1579.58</ele>
        <time>2019-07-31T14:37:04Z</time>
      </trkpt>
      <trkpt lat="44.04873" lon="6.9607">
        <ele>1581.51</ele>
        <time>2019-07-31T14:37:13Z</time>
      </trkpt>
      <trkpt lat="44.04889" lon="6.96107">
        <ele>1584.87</ele>
        <time>2019-07-31T14:37:23Z</time>
      </trkpt>
      <trkpt lat="44.04893" lon="6.96123">
        <ele>1586.31</ele>
        <time>2019-07-31T14:37:27Z</time>
      </trkpt>
      <trkpt lat="44.04915" lon="6.9618">
        <ele>1588.72</ele>
        <time>2019-07-31T14:37:41Z</time>
      </trkpt>
      <trkpt lat="44.04928" lon="6.96218">
        <ele>1589.2</ele>
        <time>2019-07-31T14:37:52Z</time>
      </trkpt>
      <trkpt lat="44.04933" lon="6.96275">
        <ele>1591.6</ele>
        <time>2019-07-31T14:38:06Z</time>
      </trkpt>
      <trkpt lat="44.04934" lon="6.96306">
        <ele>1594.48</ele>
        <time>2019-07-31T14:38:13Z</time>
      </trkpt>
      <trkpt lat="44.04934" lon="6.9631">
        <ele>1594.48</ele>
        <time>2019-07-31T14:38:14Z</time>
      </trkpt>
      <trkpt lat="44.04935" lon="6.96314">
        <ele>1594.48</ele>
        <time>2019-07-31T14:38:15Z</time>
      </trkpt>
      <trkpt lat="44.04937" lon="6.96318">
        <ele>1594.48</ele>
        <time>2019-07-31T14:38:16Z</time>
      </trkpt>
      <trkpt lat="44.04939" lon="6.96323">
        <ele>1595.45</ele>
        <time>2019-07-31T14:38:17Z</time>
      </trkpt>
      <trkpt lat="44.0494" lon="6.96328">
        <ele>1595.45</ele>
        <time>2019-07-31T14:38:18Z</time>
      </trkpt>
      <trkpt lat="44.04941" lon="6.96333">
        <ele>1596.41</ele>
        <time>2019-07-31T14:38:19Z</time>
      </trkpt>
      <trkpt lat="44.04942" lon="6.96338">
        <ele>1596.89</ele>
        <time>2019-07-31T14:38:20Z</time>
      </trkpt>
      <trkpt lat="44.04942" lon="6.96343">
        <ele>1596.89</ele>
        <time>2019-07-31T14:38:21Z</time>
      </trkpt>
      <trkpt lat="44.04943" lon="6.96348">
        <ele>1596.89</ele>
        <time>2019-07-31T14:38:22Z</time>
      </trkpt>
      <trkpt lat="44.04944" lon="6.96353">
        <ele>1597.85</ele>
        <time>2019-07-31T14:38:23Z</time>
      </trkpt>
      <trkpt lat="44.04946" lon="6.96357">
        <ele>1597.85</ele>
        <time>2019-07-31T14:38:24Z</time>
      </trkpt>
      <trkpt lat="44.04957" lon="6.96397">
        <ele>1600.73</ele>
        <time>2019-07-31T14:38:35Z</time>
      </trkpt>
      <trkpt lat="44.04962" lon="6.96409">
        <ele>1603.14</ele>
        <time>2019-07-31T14:38:49Z</time>
      </trkpt>
      <trkpt lat="44.04963" lon="6.96409">
        <ele>1601.69</ele>
        <time>2019-07-31T14:39:06Z</time>
      </trkpt>
      <trkpt lat="44.04961" lon="6.96407">
        <ele>1601.69</ele>
        <time>2019-07-31T14:39:30Z</time>
      </trkpt>
      <trkpt lat="44.04963" lon="6.96415">
        <ele>1603.14</ele>
        <time>2019-07-31T14:39:40Z</time>
      </trkpt>
      <trkpt lat="44.04982" lon="6.96459">
        <ele>1606.5</ele>
        <time>2019-07-31T14:39:50Z</time>
      </trkpt>
      <trkpt lat="44.04984" lon="6.96464">
        <ele>1606.98</ele>
        <time>2019-07-31T14:39:51Z</time>
      </trkpt>
      <trkpt lat="44.04984" lon="6.96469">
        <ele>1607.46</ele>
        <time>2019-07-31T14:39:52Z</time>
      </trkpt>
      <trkpt lat="44.04986" lon="6.96504">
        <ele>1609.38</ele>
        <time>2019-07-31T14:39:57Z</time>
      </trkpt>
      <trkpt lat="44.04989" lon="6.96527">
        <ele>1611.31</ele>
        <time>2019-07-31T14:40:00Z</time>
      </trkpt>
      <trkpt lat="44.04992" lon="6.96544">
        <ele>1611.79</ele>
        <time>2019-07-31T14:40:02Z</time>
      </trkpt>
      <trkpt lat="44.04995" lon="6.96569">
        <ele>1614.19</ele>
        <time>2019-07-31T14:40:05Z</time>
      </trkpt>
      <trkpt lat="44.04995" lon="6.96585">
        <ele>1615.63</ele>
        <time>2019-07-31T14:40:07Z</time>
      </trkpt>
      <trkpt lat="44.04996" lon="6.96592">
        <ele>1616.59</ele>
        <time>2019-07-31T14:40:08Z</time>
      </trkpt>
      <trkpt lat="44.04998" lon="6.96599">
        <ele>1617.07</ele>
        <time>2019-07-31T14:40:09Z</time>
      </trkpt>
      <trkpt lat="44.05001" lon="6.96604">
        <ele>1617.07</ele>
        <time>2019-07-31T14:40:10Z</time>
      </trkpt>
      <trkpt lat="44.05004" lon="6.96608">
        <ele>1618.04</ele>
        <time>2019-07-31T14:40:11Z</time>
      </trkpt>
      <trkpt lat="44.05007" lon="6.96611">
        <ele>1618.04</ele>
        <time>2019-07-31T14:40:12Z</time>
      </trkpt>
      <trkpt lat="44.05011" lon="6.96613">
        <ele>1618.52</ele>
        <time>2019-07-31T14:40:13Z</time>
      </trkpt>
      <trkpt lat="44.05015" lon="6.96614">
        <ele>1619</ele>
        <time>2019-07-31T14:40:14Z</time>
      </trkpt>
      <trkpt lat="44.05018" lon="6.96614">
        <ele>1618.52</ele>
        <time>2019-07-31T14:40:15Z</time>
      </trkpt>
      <trkpt lat="44.05021" lon="6.96614">
        <ele>1619.48</ele>
        <time>2019-07-31T14:40:16Z</time>
      </trkpt>
      <trkpt lat="44.05023" lon="6.96614">
        <ele>1619.48</ele>
        <time>2019-07-31T14:40:17Z</time>
      </trkpt>
      <trkpt lat="44.05026" lon="6.96616">
        <ele>1620.92</ele>
        <time>2019-07-31T14:40:27Z</time>
      </trkpt>
      <trkpt lat="44.05027" lon="6.96615">
        <ele>1619</ele>
        <time>2019-07-31T14:40:42Z</time>
      </trkpt>
      <trkpt lat="44.05027" lon="6.96614">
        <ele>1620.44</ele>
        <time>2019-07-31T14:40:51Z</time>
      </trkpt>
      <trkpt lat="44.05027" lon="6.96615">
        <ele>1619</ele>
        <time>2019-07-31T14:40:53Z</time>
      </trkpt>
      <trkpt lat="44.05028" lon="6.96613">
        <ele>1619.96</ele>
        <time>2019-07-31T14:41:02Z</time>
      </trkpt>
      <trkpt lat="44.05028" lon="6.96613">
        <ele>1619.96</ele>
        <time>2019-07-31T14:41:10Z</time>
      </trkpt>
      <trkpt lat="44.0503" lon="6.96613">
        <ele>1619.96</ele>
        <time>2019-07-31T14:41:11Z</time>
      </trkpt>
      <trkpt lat="44.05031" lon="6.96613">
        <ele>1619.96</ele>
        <time>2019-07-31T14:41:12Z</time>
      </trkpt>
      <trkpt lat="44.05068" lon="6.96611">
        <ele>1622.84</ele>
        <time>2019-07-31T14:41:22Z</time>
      </trkpt>
      <trkpt lat="44.05089" lon="6.96607">
        <ele>1626.21</ele>
        <time>2019-07-31T14:41:27Z</time>
      </trkpt>
      <trkpt lat="44.05094" lon="6.96606">
        <ele>1626.21</ele>
        <time>2019-07-31T14:41:28Z</time>
      </trkpt>
      <trkpt lat="44.05107" lon="6.96602">
        <ele>1627.65</ele>
        <time>2019-07-31T14:41:31Z</time>
      </trkpt>
      <trkpt lat="44.05115" lon="6.96599">
        <ele>1628.61</ele>
        <time>2019-07-31T14:41:33Z</time>
      </trkpt>
      <trkpt lat="44.05128" lon="6.96593">
        <ele>1630.53</ele>
        <time>2019-07-31T14:41:36Z</time>
      </trkpt>
      <trkpt lat="44.05132" lon="6.96592">
        <ele>1630.53</ele>
        <time>2019-07-31T14:41:37Z</time>
      </trkpt>
      <trkpt lat="44.05167" lon="6.96589">
        <ele>1633.42</ele>
        <time>2019-07-31T14:41:46Z</time>
      </trkpt>
      <trkpt lat="44.05185" lon="6.96577">
        <ele>1635.34</ele>
        <time>2019-07-31T14:41:51Z</time>
      </trkpt>
      <trkpt lat="44.05189" lon="6.96575">
        <ele>1635.82</ele>
        <time>2019-07-31T14:41:52Z</time>
      </trkpt>
      <trkpt lat="44.05193" lon="6.96573">
        <ele>1635.82</ele>
        <time>2019-07-31T14:41:53Z</time>
      </trkpt>
      <trkpt lat="44.05198" lon="6.96572">
        <ele>1635.82</ele>
        <time>2019-07-31T14:41:54Z</time>
      </trkpt>
      <trkpt lat="44.05202" lon="6.96571">
        <ele>1636.78</ele>
        <time>2019-07-31T14:41:55Z</time>
      </trkpt>
      <trkpt lat="44.05207" lon="6.96571">
        <ele>1636.78</ele>
        <time>2019-07-31T14:41:56Z</time>
      </trkpt>
      <trkpt lat="44.05211" lon="6.96571">
        <ele>1636.78</ele>
        <time>2019-07-31T14:41:57Z</time>
      </trkpt>
      <trkpt lat="44.05215" lon="6.96572">
        <ele>1636.78</ele>
        <time>2019-07-31T14:41:58Z</time>
      </trkpt>
      <trkpt lat="44.0522" lon="6.96573">
        <ele>1636.78</ele>
        <time>2019-07-31T14:41:59Z</time>
      </trkpt>
      <trkpt lat="44.05224" lon="6.96575">
        <ele>1637.74</ele>
        <time>2019-07-31T14:42:00Z</time>
      </trkpt>
      <trkpt lat="44.05228" lon="6.96578">
        <ele>1637.74</ele>
        <time>2019-07-31T14:42:01Z</time>
      </trkpt>
      <trkpt lat="44.05232" lon="6.96582">
        <ele>1637.74</ele>
        <time>2019-07-31T14:42:02Z</time>
      </trkpt>
      <trkpt lat="44.05235" lon="6.96585">
        <ele>1637.74</ele>
        <time>2019-07-31T14:42:03Z</time>
      </trkpt>
      <trkpt lat="44.05245" lon="6.96598">
        <ele>1638.7</ele>
        <time>2019-07-31T14:42:06Z</time>
      </trkpt>
      <trkpt lat="44.05247" lon="6.96602">
        <ele>1638.7</ele>
        <time>2019-07-31T14:42:07Z</time>
      </trkpt>
      <trkpt lat="44.0525" lon="6.96607">
        <ele>1639.67</ele>
        <time>2019-07-31T14:42:08Z</time>
      </trkpt>
      <trkpt lat="44.05258" lon="6.96623">
        <ele>1640.15</ele>
        <time>2019-07-31T14:42:12Z</time>
      </trkpt>
      <trkpt lat="44.05261" lon="6.96627">
        <ele>1640.63</ele>
        <time>2019-07-31T14:42:13Z</time>
      </trkpt>
      <trkpt lat="44.05274" lon="6.9664">
        <ele>1638.7</ele>
        <time>2019-07-31T14:42:16Z</time>
      </trkpt>
      <trkpt lat="44.05303" lon="6.9666">
        <ele>1637.26</ele>
        <time>2019-07-31T14:42:21Z</time>
      </trkpt>
      <trkpt lat="44.0531" lon="6.96661">
        <ele>1637.26</ele>
        <time>2019-07-31T14:42:22Z</time>
      </trkpt>
      <trkpt lat="44.05317" lon="6.96661">
        <ele>1636.3</ele>
        <time>2019-07-31T14:42:23Z</time>
      </trkpt>
      <trkpt lat="44.05323" lon="6.96661">
        <ele>1635.34</ele>
        <time>2019-07-31T14:42:24Z</time>
      </trkpt>
      <trkpt lat="44.05329" lon="6.96659">
        <ele>1635.34</ele>
        <time>2019-07-31T14:42:25Z</time>
      </trkpt>
      <trkpt lat="44.05334" lon="6.96657">
        <ele>1634.86</ele>
        <time>2019-07-31T14:42:26Z</time>
      </trkpt>
      <trkpt lat="44.05368" lon="6.96634">
        <ele>1633.9</ele>
        <time>2019-07-31T14:42:34Z</time>
      </trkpt>
      <trkpt lat="44.05389" lon="6.96615">
        <ele>1631.98</ele>
        <time>2019-07-31T14:42:39Z</time>
      </trkpt>
      <trkpt lat="44.05393" lon="6.96613">
        <ele>1631.49</ele>
        <time>2019-07-31T14:42:40Z</time>
      </trkpt>
      <trkpt lat="44.05402" lon="6.96609">
        <ele>1630.05</ele>
        <time>2019-07-31T14:42:42Z</time>
      </trkpt>
      <trkpt lat="44.05414" lon="6.96606">
        <ele>1628.61</ele>
        <time>2019-07-31T14:42:44Z</time>
      </trkpt>
      <trkpt lat="44.05421" lon="6.96607">
        <ele>1628.13</ele>
        <time>2019-07-31T14:42:45Z</time>
      </trkpt>
      <trkpt lat="44.05427" lon="6.96609">
        <ele>1628.13</ele>
        <time>2019-07-31T14:42:46Z</time>
      </trkpt>
      <trkpt lat="44.05432" lon="6.96612">
        <ele>1628.13</ele>
        <time>2019-07-31T14:42:47Z</time>
      </trkpt>
      <trkpt lat="44.05437" lon="6.96616">
        <ele>1628.13</ele>
        <time>2019-07-31T14:42:48Z</time>
      </trkpt>
      <trkpt lat="44.05441" lon="6.96618">
        <ele>1628.13</ele>
        <time>2019-07-31T14:42:49Z</time>
      </trkpt>
      <trkpt lat="44.05445" lon="6.9662">
        <ele>1628.13</ele>
        <time>2019-07-31T14:42:50Z</time>
      </trkpt>
      <trkpt lat="44.05462" lon="6.9663">
        <ele>1630.53</ele>
        <time>2019-07-31T14:42:55Z</time>
      </trkpt>
      <trkpt lat="44.05492" lon="6.96667">
        <ele>1633.42</ele>
        <time>2019-07-31T14:43:06Z</time>
      </trkpt>
      <trkpt lat="44.05519" lon="6.96699">
        <ele>1633.42</ele>
        <time>2019-07-31T14:43:13Z</time>
      </trkpt>
      <trkpt lat="44.05524" lon="6.967">
        <ele>1633.42</ele>
        <time>2019-07-31T14:43:14Z</time>
      </trkpt>
      <trkpt lat="44.05529" lon="6.96699">
        <ele>1631.98</ele>
        <time>2019-07-31T14:43:15Z</time>
      </trkpt>
      <trkpt lat="44.05534" lon="6.96697">
        <ele>1631.01</ele>
        <time>2019-07-31T14:43:16Z</time>
      </trkpt>
      <trkpt lat="44.0554" lon="6.96694">
        <ele>1630.05</ele>
        <time>2019-07-31T14:43:17Z</time>
      </trkpt>
      <trkpt lat="44.05546" lon="6.9669">
        <ele>1629.57</ele>
        <time>2019-07-31T14:43:18Z</time>
      </trkpt>
      <trkpt lat="44.05553" lon="6.96686">
        <ele>1628.61</ele>
        <time>2019-07-31T14:43:19Z</time>
      </trkpt>
      <trkpt lat="44.05561" lon="6.96683">
        <ele>1627.65</ele>
        <time>2019-07-31T14:43:20Z</time>
      </trkpt>
      <trkpt lat="44.05569" lon="6.96683">
        <ele>1627.65</ele>
        <time>2019-07-31T14:43:21Z</time>
      </trkpt>
      <trkpt lat="44.05576" lon="6.96687">
        <ele>1626.21</ele>
        <time>2019-07-31T14:43:22Z</time>
      </trkpt>
      <trkpt lat="44.05583" lon="6.96692">
        <ele>1626.21</ele>
        <time>2019-07-31T14:43:23Z</time>
      </trkpt>
      <trkpt lat="44.05591" lon="6.96696">
        <ele>1625.25</ele>
        <time>2019-07-31T14:43:24Z</time>
      </trkpt>
      <trkpt lat="44.05599" lon="6.96697">
        <ele>1623.8</ele>
        <time>2019-07-31T14:43:25Z</time>
      </trkpt>
      <trkpt lat="44.05606" lon="6.96698">
        <ele>1623.8</ele>
        <time>2019-07-31T14:43:26Z</time>
      </trkpt>
      <trkpt lat="44.0563" lon="6.96695">
        <ele>1622.36</ele>
        <time>2019-07-31T14:43:29Z</time>
      </trkpt>
      <trkpt lat="44.05665" lon="6.96696">
        <ele>1619.96</ele>
        <time>2019-07-31T14:43:33Z</time>
      </trkpt>
      <trkpt lat="44.05674" lon="6.96699">
        <ele>1619.96</ele>
        <time>2019-07-31T14:43:34Z</time>
      </trkpt>
      <trkpt lat="44.057" lon="6.9671">
        <ele>1618.04</ele>
        <time>2019-07-31T14:43:37Z</time>
      </trkpt>
      <trkpt lat="44.0571" lon="6.96712">
        <ele>1617.56</ele>
        <time>2019-07-31T14:43:38Z</time>
      </trkpt>
      <trkpt lat="44.05719" lon="6.96713">
        <ele>1616.59</ele>
        <time>2019-07-31T14:43:39Z</time>
      </trkpt>
      <trkpt lat="44.05728" lon="6.96712">
        <ele>1615.63</ele>
        <time>2019-07-31T14:43:40Z</time>
      </trkpt>
      <trkpt lat="44.05737" lon="6.9671">
        <ele>1614.67</ele>
        <time>2019-07-31T14:43:41Z</time>
      </trkpt>
      <trkpt lat="44.05746" lon="6.96706">
        <ele>1614.19</ele>
        <time>2019-07-31T14:43:42Z</time>
      </trkpt>
      <trkpt lat="44.05755" lon="6.96701">
        <ele>1614.19</ele>
        <time>2019-07-31T14:43:43Z</time>
      </trkpt>
      <trkpt lat="44.05763" lon="6.96694">
        <ele>1613.71</ele>
        <time>2019-07-31T14:43:44Z</time>
      </trkpt>
      <trkpt lat="44.05768" lon="6.96684">
        <ele>1613.71</ele>
        <time>2019-07-31T14:43:45Z</time>
      </trkpt>
      <trkpt lat="44.05773" lon="6.96671">
        <ele>1613.23</ele>
        <time>2019-07-31T14:43:46Z</time>
      </trkpt>
      <trkpt lat="44.05777" lon="6.96659">
        <ele>1613.23</ele>
        <time>2019-07-31T14:43:47Z</time>
      </trkpt>
      <trkpt lat="44.05796" lon="6.96587">
        <ele>1610.83</ele>
        <time>2019-07-31T14:43:53Z</time>
      </trkpt>
      <trkpt lat="44.05799" lon="6.96575">
        <ele>1609.38</ele>
        <time>2019-07-31T14:43:54Z</time>
      </trkpt>
      <trkpt lat="44.05804" lon="6.96566">
        <ele>1608.9</ele>
        <time>2019-07-31T14:43:55Z</time>
      </trkpt>
      <trkpt lat="44.05811" lon="6.96559">
        <ele>1608.42</ele>
        <time>2019-07-31T14:43:56Z</time>
      </trkpt>
      <trkpt lat="44.05818" lon="6.96552">
        <ele>1608.42</ele>
        <time>2019-07-31T14:43:57Z</time>
      </trkpt>
      <trkpt lat="44.05826" lon="6.96547">
        <ele>1607.46</ele>
        <time>2019-07-31T14:43:58Z</time>
      </trkpt>
      <trkpt lat="44.05842" lon="6.96534">
        <ele>1606.98</ele>
        <time>2019-07-31T14:44:00Z</time>
      </trkpt>
      <trkpt lat="44.05848" lon="6.96525">
        <ele>1606.02</ele>
        <time>2019-07-31T14:44:01Z</time>
      </trkpt>
      <trkpt lat="44.05853" lon="6.96516">
        <ele>1605.06</ele>
        <time>2019-07-31T14:44:02Z</time>
      </trkpt>
      <trkpt lat="44.05858" lon="6.96505">
        <ele>1605.06</ele>
        <time>2019-07-31T14:44:03Z</time>
      </trkpt>
      <trkpt lat="44.05862" lon="6.96493">
        <ele>1604.1</ele>
        <time>2019-07-31T14:44:04Z</time>
      </trkpt>
      <trkpt lat="44.05866" lon="6.96482">
        <ele>1603.62</ele>
        <time>2019-07-31T14:44:05Z</time>
      </trkpt>
      <trkpt lat="44.05872" lon="6.96471">
        <ele>1602.66</ele>
        <time>2019-07-31T14:44:06Z</time>
      </trkpt>
      <trkpt lat="44.05878" lon="6.96461">
        <ele>1602.66</ele>
        <time>2019-07-31T14:44:07Z</time>
      </trkpt>
      <trkpt lat="44.0589" lon="6.96443">
        <ele>1602.17</ele>
        <time>2019-07-31T14:44:09Z</time>
      </trkpt>
      <trkpt lat="44.05933" lon="6.96405">
        <ele>1600.25</ele>
        <time>2019-07-31T14:44:15Z</time>
      </trkpt>
      <trkpt lat="44.0594" lon="6.96402">
        <ele>1599.29</ele>
        <time>2019-07-31T14:44:16Z</time>
      </trkpt>
      <trkpt lat="44.05948" lon="6.96403">
        <ele>1598.81</ele>
        <time>2019-07-31T14:44:17Z</time>
      </trkpt>
      <trkpt lat="44.05955" lon="6.96406">
        <ele>1598.81</ele>
        <time>2019-07-31T14:44:18Z</time>
      </trkpt>
      <trkpt lat="44.05963" lon="6.96412">
        <ele>1597.85</ele>
        <time>2019-07-31T14:44:19Z</time>
      </trkpt>
      <trkpt lat="44.0597" lon="6.96419">
        <ele>1596.41</ele>
        <time>2019-07-31T14:44:20Z</time>
      </trkpt>
      <trkpt lat="44.05976" lon="6.96427">
        <ele>1594.48</ele>
        <time>2019-07-31T14:44:21Z</time>
      </trkpt>
      <trkpt lat="44.05986" lon="6.9644">
        <ele>1591.12</ele>
        <time>2019-07-31T14:44:23Z</time>
      </trkpt>
      <trkpt lat="44.0599" lon="6.96445">
        <ele>1589.68</ele>
        <time>2019-07-31T14:44:24Z</time>
      </trkpt>
      <trkpt lat="44.05995" lon="6.96447">
        <ele>1588.24</ele>
        <time>2019-07-31T14:44:25Z</time>
      </trkpt>
      <trkpt lat="44.05999" lon="6.96447">
        <ele>1587.27</ele>
        <time>2019-07-31T14:44:26Z</time>
      </trkpt>
      <trkpt lat="44.06003" lon="6.96444">
        <ele>1586.79</ele>
        <time>2019-07-31T14:44:27Z</time>
      </trkpt>
      <trkpt lat="44.06007" lon="6.96439">
        <ele>1587.27</ele>
        <time>2019-07-31T14:44:28Z</time>
      </trkpt>
      <trkpt lat="44.06011" lon="6.96433">
        <ele>1586.31</ele>
        <time>2019-07-31T14:44:29Z</time>
      </trkpt>
      <trkpt lat="44.06015" lon="6.96426">
        <ele>1586.31</ele>
        <time>2019-07-31T14:44:30Z</time>
      </trkpt>
      <trkpt lat="44.06022" lon="6.96416">
        <ele>1582.95</ele>
        <time>2019-07-31T14:44:33Z</time>
      </trkpt>
      <trkpt lat="44.06028" lon="6.96417">
        <ele>1582.47</ele>
        <time>2019-07-31T14:44:50Z</time>
      </trkpt>
      <trkpt lat="44.06034" lon="6.96413">
        <ele>1583.43</ele>
        <time>2019-07-31T14:45:20Z</time>
      </trkpt>
      <trkpt lat="44.06031" lon="6.9642">
        <ele>1583.43</ele>
        <time>2019-07-31T14:45:50Z</time>
      </trkpt>
      <trkpt lat="44.06034" lon="6.96419">
        <ele>1583.43</ele>
        <time>2019-07-31T14:46:26Z</time>
      </trkpt>
      <trkpt lat="44.0603" lon="6.96421">
        <ele>1583.43</ele>
        <time>2019-07-31T14:46:35Z</time>
      </trkpt>
      <trkpt lat="44.06031" lon="6.96418">
        <ele>1583.43</ele>
        <time>2019-07-31T14:46:36Z</time>
      </trkpt>
      <trkpt lat="44.06036" lon="6.96405">
        <ele>1583.91</ele>
        <time>2019-07-31T14:46:39Z</time>
      </trkpt>
      <trkpt lat="44.06039" lon="6.96399">
        <ele>1583.91</ele>
        <time>2019-07-31T14:46:40Z</time>
      </trkpt>
      <trkpt lat="44.06042" lon="6.96391">
        <ele>1582.47</ele>
        <time>2019-07-31T14:46:41Z</time>
      </trkpt>
      <trkpt lat="44.06044" lon="6.96383">
        <ele>1581.51</ele>
        <time>2019-07-31T14:46:42Z</time>
      </trkpt>
      <trkpt lat="44.06046" lon="6.96374">
        <ele>1581.03</ele>
        <time>2019-07-31T14:46:43Z</time>
      </trkpt>
      <trkpt lat="44.06048" lon="6.96363">
        <ele>1581.03</ele>
        <time>2019-07-31T14:46:44Z</time>
      </trkpt>
      <trkpt lat="44.06048" lon="6.96353">
        <ele>1580.06</ele>
        <time>2019-07-31T14:46:45Z</time>
      </trkpt>
      <trkpt lat="44.06048" lon="6.96344">
        <ele>1579.58</ele>
        <time>2019-07-31T14:46:46Z</time>
      </trkpt>
      <trkpt lat="44.06047" lon="6.96336">
        <ele>1578.62</ele>
        <time>2019-07-31T14:46:47Z</time>
      </trkpt>
      <trkpt lat="44.06046" lon="6.96329">
        <ele>1577.66</ele>
        <time>2019-07-31T14:46:48Z</time>
      </trkpt>
      <trkpt lat="44.06045" lon="6.96323">
        <ele>1577.18</ele>
        <time>2019-07-31T14:46:49Z</time>
      </trkpt>
      <trkpt lat="44.06036" lon="6.96297">
        <ele>1574.78</ele>
        <time>2019-07-31T14:46:58Z</time>
      </trkpt>
      <trkpt lat="44.06022" lon="6.96269">
        <ele>1572.85</ele>
        <time>2019-07-31T14:47:09Z</time>
      </trkpt>
      <trkpt lat="44.0602" lon="6.96262">
        <ele>1572.37</ele>
        <time>2019-07-31T14:47:10Z</time>
      </trkpt>
      <trkpt lat="44.06019" lon="6.96255">
        <ele>1571.89</ele>
        <time>2019-07-31T14:47:11Z</time>
      </trkpt>
      <trkpt lat="44.06019" lon="6.96249">
        <ele>1571.41</ele>
        <time>2019-07-31T14:47:12Z</time>
      </trkpt>
      <trkpt lat="44.06019" lon="6.96246">
        <ele>1570.93</ele>
        <time>2019-07-31T14:47:13Z</time>
      </trkpt>
      <trkpt lat="44.06019" lon="6.96241">
        <ele>1570.45</ele>
        <time>2019-07-31T14:47:15Z</time>
      </trkpt>
      <trkpt lat="44.06024" lon="6.96232">
        <ele>1569.01</ele>
        <time>2019-07-31T14:47:26Z</time>
      </trkpt>
      <trkpt lat="44.06022" lon="6.96234">
        <ele>1569.01</ele>
        <time>2019-07-31T14:47:44Z</time>
      </trkpt>
      <trkpt lat="44.06024" lon="6.96233">
        <ele>1568.53</ele>
        <time>2019-07-31T14:47:59Z</time>
      </trkpt>
      <trkpt lat="44.06024" lon="6.96235">
        <ele>1570.45</ele>
        <time>2019-07-31T14:48:03Z</time>
      </trkpt>
      <trkpt lat="44.06025" lon="6.96235">
        <ele>1569.01</ele>
        <time>2019-07-31T14:48:05Z</time>
      </trkpt>
      <trkpt lat="44.06027" lon="6.96233">
        <ele>1570.45</ele>
        <time>2019-07-31T14:48:22Z</time>
      </trkpt>
      <trkpt lat="44.06027" lon="6.96233">
        <ele>1570.45</ele>
        <time>2019-07-31T14:48:23Z</time>
      </trkpt>
      <trkpt lat="44.06026" lon="6.96229">
        <ele>1569.97</ele>
        <time>2019-07-31T14:48:39Z</time>
      </trkpt>
      <trkpt lat="44.06027" lon="6.96228">
        <ele>1571.41</ele>
        <time>2019-07-31T14:48:41Z</time>
      </trkpt>
      <trkpt lat="44.06028" lon="6.96226">
        <ele>1570.45</ele>
        <time>2019-07-31T14:49:02Z</time>
      </trkpt>
      <trkpt lat="44.0603" lon="6.96229">
        <ele>1571.89</ele>
        <time>2019-07-31T14:49:17Z</time>
      </trkpt>
      <trkpt lat="44.06026" lon="6.96227">
        <ele>1570.93</ele>
        <time>2019-07-31T14:49:30Z</time>
      </trkpt>
      <trkpt lat="44.06025" lon="6.96227">
        <ele>1572.37</ele>
        <time>2019-07-31T14:49:38Z</time>
      </trkpt>
      <trkpt lat="44.06025" lon="6.96227">
        <ele>1570.45</ele>
        <time>2019-07-31T14:49:40Z</time>
      </trkpt>
      <trkpt lat="44.06024" lon="6.96226">
        <ele>1571.41</ele>
        <time>2019-07-31T14:49:42Z</time>
      </trkpt>
      <trkpt lat="44.06024" lon="6.96226">
        <ele>1570.45</ele>
        <time>2019-07-31T14:49:44Z</time>
      </trkpt>
      <trkpt lat="44.06022" lon="6.96226">
        <ele>1571.89</ele>
        <time>2019-07-31T14:49:49Z</time>
      </trkpt>
      <trkpt lat="44.06018" lon="6.96222">
        <ele>1572.85</ele>
        <time>2019-07-31T14:50:21Z</time>
      </trkpt>
      <trkpt lat="44.06018" lon="6.96222">
        <ele>1571.41</ele>
        <time>2019-07-31T14:50:23Z</time>
      </trkpt>
      <trkpt lat="44.06015" lon="6.96221">
        <ele>1572.37</ele>
        <time>2019-07-31T14:50:55Z</time>
      </trkpt>
      <trkpt lat="44.06021" lon="6.96224">
        <ele>1571.89</ele>
        <time>2019-07-31T14:51:10Z</time>
      </trkpt>
      <trkpt lat="44.06024" lon="6.96224">
        <ele>1572.37</ele>
        <time>2019-07-31T14:51:31Z</time>
      </trkpt>
      <trkpt lat="44.06027" lon="6.96227">
        <ele>1569.97</ele>
        <time>2019-07-31T14:51:52Z</time>
      </trkpt>
      <trkpt lat="44.06027" lon="6.96227">
        <ele>1571.89</ele>
        <time>2019-07-31T14:51:54Z</time>
      </trkpt>
      <trkpt lat="44.06028" lon="6.96229">
        <ele>1571.89</ele>
        <time>2019-07-31T14:52:16Z</time>
      </trkpt>
      <trkpt lat="44.06032" lon="6.96229">
        <ele>1571.89</ele>
        <time>2019-07-31T14:52:42Z</time>
      </trkpt>
      <trkpt lat="44.06022" lon="6.96222">
        <ele>1571.41</ele>
        <time>2019-07-31T14:53:04Z</time>
      </trkpt>
      <trkpt lat="44.06026" lon="6.96232">
        <ele>1571.89</ele>
        <time>2019-07-31T14:53:15Z</time>
      </trkpt>
      <trkpt lat="44.06043" lon="6.96204">
        <ele>1570.45</ele>
        <time>2019-07-31T14:53:24Z</time>
      </trkpt>
      <trkpt lat="44.06047" lon="6.96193">
        <ele>1568.53</ele>
        <time>2019-07-31T14:53:27Z</time>
      </trkpt>
      <trkpt lat="44.06047" lon="6.96188">
        <ele>1568.05</ele>
        <time>2019-07-31T14:53:30Z</time>
      </trkpt>
      <trkpt lat="44.06046" lon="6.96186">
        <ele>1567.57</ele>
        <time>2019-07-31T14:53:31Z</time>
      </trkpt>
      <trkpt lat="44.06045" lon="6.96183">
        <ele>1568.05</ele>
        <time>2019-07-31T14:53:32Z</time>
      </trkpt>
      <trkpt lat="44.06043" lon="6.9618">
        <ele>1568.05</ele>
        <time>2019-07-31T14:53:33Z</time>
      </trkpt>
      <trkpt lat="44.06042" lon="6.96175">
        <ele>1567.09</ele>
        <time>2019-07-31T14:53:34Z</time>
      </trkpt>
      <trkpt lat="44.06041" lon="6.96169">
        <ele>1567.09</ele>
        <time>2019-07-31T14:53:35Z</time>
      </trkpt>
      <trkpt lat="44.0604" lon="6.96163">
        <ele>1566.61</ele>
        <time>2019-07-31T14:53:36Z</time>
      </trkpt>
      <trkpt lat="44.0604" lon="6.96156">
        <ele>1566.61</ele>
        <time>2019-07-31T14:53:37Z</time>
      </trkpt>
      <trkpt lat="44.0604" lon="6.96148">
        <ele>1566.61</ele>
        <time>2019-07-31T14:53:38Z</time>
      </trkpt>
      <trkpt lat="44.06039" lon="6.96105">
        <ele>1563.24</ele>
        <time>2019-07-31T14:53:43Z</time>
      </trkpt>
      <trkpt lat="44.06037" lon="6.96092">
        <ele>1562.28</ele>
        <time>2019-07-31T14:53:45Z</time>
      </trkpt>
      <trkpt lat="44.06036" lon="6.96086">
        <ele>1561.8</ele>
        <time>2019-07-31T14:53:46Z</time>
      </trkpt>
      <trkpt lat="44.06036" lon="6.9608">
        <ele>1561.32</ele>
        <time>2019-07-31T14:53:47Z</time>
      </trkpt>
      <trkpt lat="44.06037" lon="6.96074">
        <ele>1560.84</ele>
        <time>2019-07-31T14:53:48Z</time>
      </trkpt>
      <trkpt lat="44.06037" lon="6.96069">
        <ele>1559.88</ele>
        <time>2019-07-31T14:53:49Z</time>
      </trkpt>
      <trkpt lat="44.06038" lon="6.96063">
        <ele>1559.88</ele>
        <time>2019-07-31T14:53:50Z</time>
      </trkpt>
      <trkpt lat="44.06048" lon="6.96027">
        <ele>1556.51</ele>
        <time>2019-07-31T14:54:00Z</time>
      </trkpt>
      <trkpt lat="44.06049" lon="6.96015">
        <ele>1556.51</ele>
        <time>2019-07-31T14:54:02Z</time>
      </trkpt>
      <trkpt lat="44.06049" lon="6.96009">
        <ele>1556.03</ele>
        <time>2019-07-31T14:54:03Z</time>
      </trkpt>
      <trkpt lat="44.06048" lon="6.96001">
        <ele>1556.03</ele>
        <time>2019-07-31T14:54:04Z</time>
      </trkpt>
      <trkpt lat="44.06046" lon="6.95985">
        <ele>1555.07</ele>
        <time>2019-07-31T14:54:06Z</time>
      </trkpt>
      <trkpt lat="44.06043" lon="6.95961">
        <ele>1555.07</ele>
        <time>2019-07-31T14:54:09Z</time>
      </trkpt>
      <trkpt lat="44.06045" lon="6.95946">
        <ele>1554.11</ele>
        <time>2019-07-31T14:54:11Z</time>
      </trkpt>
      <trkpt lat="44.06048" lon="6.95923">
        <ele>1554.11</ele>
        <time>2019-07-31T14:54:14Z</time>
      </trkpt>
      <trkpt lat="44.06049" lon="6.95915">
        <ele>1553.63</ele>
        <time>2019-07-31T14:54:15Z</time>
      </trkpt>
      <trkpt lat="44.06049" lon="6.95908">
        <ele>1553.63</ele>
        <time>2019-07-31T14:54:16Z</time>
      </trkpt>
      <trkpt lat="44.06048" lon="6.95901">
        <ele>1553.63</ele>
        <time>2019-07-31T14:54:17Z</time>
      </trkpt>
      <trkpt lat="44.06049" lon="6.95894">
        <ele>1553.63</ele>
        <time>2019-07-31T14:54:18Z</time>
      </trkpt>
      <trkpt lat="44.06051" lon="6.95888">
        <ele>1553.15</ele>
        <time>2019-07-31T14:54:19Z</time>
      </trkpt>
      <trkpt lat="44.06053" lon="6.95883">
        <ele>1553.15</ele>
        <time>2019-07-31T14:54:20Z</time>
      </trkpt>
      <trkpt lat="44.06056" lon="6.95879">
        <ele>1553.15</ele>
        <time>2019-07-31T14:54:21Z</time>
      </trkpt>
      <trkpt lat="44.06058" lon="6.95877">
        <ele>1553.15</ele>
        <time>2019-07-31T14:54:22Z</time>
      </trkpt>
      <trkpt lat="44.06061" lon="6.95878">
        <ele>1553.15</ele>
        <time>2019-07-31T14:54:23Z</time>
      </trkpt>
      <trkpt lat="44.06064" lon="6.9588">
        <ele>1553.15</ele>
        <time>2019-07-31T14:54:24Z</time>
      </trkpt>
      <trkpt lat="44.06066" lon="6.95882">
        <ele>1553.15</ele>
        <time>2019-07-31T14:54:25Z</time>
      </trkpt>
      <trkpt lat="44.06068" lon="6.95885">
        <ele>1553.15</ele>
        <time>2019-07-31T14:54:26Z</time>
      </trkpt>
      <trkpt lat="44.06069" lon="6.95887">
        <ele>1554.59</ele>
        <time>2019-07-31T14:54:27Z</time>
      </trkpt>
      <trkpt lat="44.0607" lon="6.9589">
        <ele>1554.59</ele>
        <time>2019-07-31T14:54:28Z</time>
      </trkpt>
      <trkpt lat="44.06071" lon="6.95892">
        <ele>1554.59</ele>
        <time>2019-07-31T14:54:29Z</time>
      </trkpt>
      <trkpt lat="44.06072" lon="6.95894">
        <ele>1555.07</ele>
        <time>2019-07-31T14:54:30Z</time>
      </trkpt>
      <trkpt lat="44.06073" lon="6.95897">
        <ele>1555.07</ele>
        <time>2019-07-31T14:54:31Z</time>
      </trkpt>
      <trkpt lat="44.06073" lon="6.95898">
        <ele>1555.55</ele>
        <time>2019-07-31T14:54:32Z</time>
      </trkpt>
      <trkpt lat="44.06074" lon="6.95901">
        <ele>1555.55</ele>
        <time>2019-07-31T14:54:33Z</time>
      </trkpt>
      <trkpt lat="44.06075" lon="6.95903">
        <ele>1555.55</ele>
        <time>2019-07-31T14:54:34Z</time>
      </trkpt>
      <trkpt lat="44.06075" lon="6.95905">
        <ele>1556.03</ele>
        <time>2019-07-31T14:54:35Z</time>
      </trkpt>
      <trkpt lat="44.06085" lon="6.95929">
        <ele>1558.92</ele>
        <time>2019-07-31T14:54:49Z</time>
      </trkpt>
      <trkpt lat="44.06091" lon="6.95943">
        <ele>1560.36</ele>
        <time>2019-07-31T14:54:57Z</time>
      </trkpt>
      <trkpt lat="44.06091" lon="6.95944">
        <ele>1560.36</ele>
        <time>2019-07-31T14:54:58Z</time>
      </trkpt>
      <trkpt lat="44.06091" lon="6.95946">
        <ele>1560.84</ele>
        <time>2019-07-31T14:54:59Z</time>
      </trkpt>
      <trkpt lat="44.06092" lon="6.95947">
        <ele>1560.84</ele>
        <time>2019-07-31T14:55:00Z</time>
      </trkpt>
      <trkpt lat="44.06092" lon="6.95949">
        <ele>1560.84</ele>
        <time>2019-07-31T14:55:01Z</time>
      </trkpt>
      <trkpt lat="44.06099" lon="6.95968">
        <ele>1563.72</ele>
        <time>2019-07-31T14:55:12Z</time>
      </trkpt>
      <trkpt lat="44.06114" lon="6.96009">
        <ele>1566.12</ele>
        <time>2019-07-31T14:55:27Z</time>
      </trkpt>
      <trkpt lat="44.06143" lon="6.96055">
        <ele>1568.05</ele>
        <time>2019-07-31T14:55:39Z</time>
      </trkpt>
      <trkpt lat="44.06165" lon="6.96087">
        <ele>1568.53</ele>
        <time>2019-07-31T14:55:48Z</time>
      </trkpt>
      <trkpt lat="44.06166" lon="6.96093">
        <ele>1569.01</ele>
        <time>2019-07-31T14:55:49Z</time>
      </trkpt>
      <trkpt lat="44.06166" lon="6.96099">
        <ele>1569.01</ele>
        <time>2019-07-31T14:55:50Z</time>
      </trkpt>
      <trkpt lat="44.06166" lon="6.96106">
        <ele>1569.01</ele>
        <time>2019-07-31T14:55:51Z</time>
      </trkpt>
      <trkpt lat="44.06168" lon="6.96118">
        <ele>1569.01</ele>
        <time>2019-07-31T14:55:53Z</time>
      </trkpt>
      <trkpt lat="44.0617" lon="6.96124">
        <ele>1569.01</ele>
        <time>2019-07-31T14:55:54Z</time>
      </trkpt>
      <trkpt lat="44.06172" lon="6.96129">
        <ele>1569.97</ele>
        <time>2019-07-31T14:55:55Z</time>
      </trkpt>
      <trkpt lat="44.06178" lon="6.96138">
        <ele>1569.97</ele>
        <time>2019-07-31T14:55:57Z</time>
      </trkpt>
      <trkpt lat="44.06182" lon="6.96142">
        <ele>1569.97</ele>
        <time>2019-07-31T14:55:58Z</time>
      </trkpt>
      <trkpt lat="44.06231" lon="6.96202">
        <ele>1570.93</ele>
        <time>2019-07-31T14:56:11Z</time>
      </trkpt>
      <trkpt lat="44.06235" lon="6.96206">
        <ele>1571.89</ele>
        <time>2019-07-31T14:56:12Z</time>
      </trkpt>
      <trkpt lat="44.0624" lon="6.9621">
        <ele>1571.89</ele>
        <time>2019-07-31T14:56:13Z</time>
      </trkpt>
      <trkpt lat="44.06244" lon="6.96212">
        <ele>1571.89</ele>
        <time>2019-07-31T14:56:14Z</time>
      </trkpt>
      <trkpt lat="44.06249" lon="6.96214">
        <ele>1571.89</ele>
        <time>2019-07-31T14:56:15Z</time>
      </trkpt>
      <trkpt lat="44.06253" lon="6.96215">
        <ele>1571.89</ele>
        <time>2019-07-31T14:56:16Z</time>
      </trkpt>
      <trkpt lat="44.0629" lon="6.96245">
        <ele>1574.78</ele>
        <time>2019-07-31T14:56:28Z</time>
      </trkpt>
      <trkpt lat="44.06319" lon="6.96279">
        <ele>1576.7</ele>
        <time>2019-07-31T14:56:41Z</time>
      </trkpt>
      <trkpt lat="44.06324" lon="6.96301">
        <ele>1578.14</ele>
        <time>2019-07-31T14:56:46Z</time>
      </trkpt>
      <trkpt lat="44.06342" lon="6.96348">
        <ele>1580.54</ele>
        <time>2019-07-31T14:56:58Z</time>
      </trkpt>
      <trkpt lat="44.06378" lon="6.96369">
        <ele>1582.47</ele>
        <time>2019-07-31T14:57:12Z</time>
      </trkpt>
      <trkpt lat="44.06412" lon="6.9635">
        <ele>1584.87</ele>
        <time>2019-07-31T14:57:24Z</time>
      </trkpt>
      <trkpt lat="44.06449" lon="6.9634">
        <ele>1588.24</ele>
        <time>2019-07-31T14:57:37Z</time>
      </trkpt>
      <trkpt lat="44.06476" lon="6.96352">
        <ele>1588.24</ele>
        <time>2019-07-31T14:57:48Z</time>
      </trkpt>
      <trkpt lat="44.0648" lon="6.96355">
        <ele>1586.31</ele>
        <time>2019-07-31T14:57:50Z</time>
      </trkpt>
      <trkpt lat="44.06506" lon="6.96361">
        <ele>1583.43</ele>
        <time>2019-07-31T14:58:01Z</time>
      </trkpt>
      <trkpt lat="44.06531" lon="6.96346">
        <ele>1581.51</ele>
        <time>2019-07-31T14:58:14Z</time>
      </trkpt>
      <trkpt lat="44.06557" lon="6.9632">
        <ele>1579.1</ele>
        <time>2019-07-31T14:58:26Z</time>
      </trkpt>
      <trkpt lat="44.06591" lon="6.96293">
        <ele>1576.22</ele>
        <time>2019-07-31T14:58:37Z</time>
      </trkpt>
      <trkpt lat="44.06629" lon="6.96268">
        <ele>1573.33</ele>
        <time>2019-07-31T14:58:48Z</time>
      </trkpt>
      <trkpt lat="44.06656" lon="6.96246">
        <ele>1570.45</ele>
        <time>2019-07-31T14:58:59Z</time>
      </trkpt>
      <trkpt lat="44.06663" lon="6.96242">
        <ele>1570.93</ele>
        <time>2019-07-31T14:59:11Z</time>
      </trkpt>
      <trkpt lat="44.0666" lon="6.96242">
        <ele>1571.41</ele>
        <time>2019-07-31T14:59:40Z</time>
      </trkpt>
      <trkpt lat="44.06661" lon="6.96241">
        <ele>1569.97</ele>
        <time>2019-07-31T14:59:45Z</time>
      </trkpt>
      <trkpt lat="44.06662" lon="6.96239">
        <ele>1569.97</ele>
        <time>2019-07-31T14:59:46Z</time>
      </trkpt>
      <trkpt lat="44.06663" lon="6.96237">
        <ele>1569.97</ele>
        <time>2019-07-31T14:59:47Z</time>
      </trkpt>
      <trkpt lat="44.06666" lon="6.96234">
        <ele>1569.97</ele>
        <time>2019-07-31T14:59:48Z</time>
      </trkpt>
      <trkpt lat="44.06669" lon="6.96229">
        <ele>1571.41</ele>
        <time>2019-07-31T14:59:49Z</time>
      </trkpt>
      <trkpt lat="44.06673" lon="6.96225">
        <ele>1571.41</ele>
        <time>2019-07-31T14:59:50Z</time>
      </trkpt>
      <trkpt lat="44.06676" lon="6.96221">
        <ele>1571.41</ele>
        <time>2019-07-31T14:59:51Z</time>
      </trkpt>
      <trkpt lat="44.06679" lon="6.96217">
        <ele>1571.41</ele>
        <time>2019-07-31T14:59:52Z</time>
      </trkpt>
      <trkpt lat="44.06702" lon="6.96189">
        <ele>1567.57</ele>
        <time>2019-07-31T14:59:58Z</time>
      </trkpt>
      <trkpt lat="44.06706" lon="6.96184">
        <ele>1567.57</ele>
        <time>2019-07-31T14:59:59Z</time>
      </trkpt>
      <trkpt lat="44.06724" lon="6.96163">
        <ele>1566.12</ele>
        <time>2019-07-31T15:00:03Z</time>
      </trkpt>
      <trkpt lat="44.06736" lon="6.96153">
        <ele>1566.12</ele>
        <time>2019-07-31T15:00:05Z</time>
      </trkpt>
      <trkpt lat="44.06752" lon="6.96142">
        <ele>1564.2</ele>
        <time>2019-07-31T15:00:08Z</time>
      </trkpt>
      <trkpt lat="44.06756" lon="6.96139">
        <ele>1562.76</ele>
        <time>2019-07-31T15:00:09Z</time>
      </trkpt>
      <trkpt lat="44.0676" lon="6.96136">
        <ele>1562.28</ele>
        <time>2019-07-31T15:00:10Z</time>
      </trkpt>
      <trkpt lat="44.06762" lon="6.96134">
        <ele>1562.28</ele>
        <time>2019-07-31T15:00:11Z</time>
      </trkpt>
      <trkpt lat="44.0679" lon="6.96103">
        <ele>1558.43</ele>
        <time>2019-07-31T15:00:21Z</time>
      </trkpt>
      <trkpt lat="44.06807" lon="6.96088">
        <ele>1556.99</ele>
        <time>2019-07-31T15:00:34Z</time>
      </trkpt>
      <trkpt lat="44.06815" lon="6.9608">
        <ele>1555.07</ele>
        <time>2019-07-31T15:00:46Z</time>
      </trkpt>
      <trkpt lat="44.06814" lon="6.96081">
        <ele>1556.51</ele>
        <time>2019-07-31T15:01:04Z</time>
      </trkpt>
      <trkpt lat="44.06814" lon="6.9608">
        <ele>1556.99</ele>
        <time>2019-07-31T15:01:14Z</time>
      </trkpt>
      <trkpt lat="44.06816" lon="6.96078">
        <ele>1557.47</ele>
        <time>2019-07-31T15:01:15Z</time>
      </trkpt>
      <trkpt lat="44.06819" lon="6.96076">
        <ele>1557.47</ele>
        <time>2019-07-31T15:01:16Z</time>
      </trkpt>
      <trkpt lat="44.06823" lon="6.96073">
        <ele>1557.47</ele>
        <time>2019-07-31T15:01:17Z</time>
      </trkpt>
      <trkpt lat="44.06829" lon="6.96069">
        <ele>1557.47</ele>
        <time>2019-07-31T15:01:18Z</time>
      </trkpt>
      <trkpt lat="44.06835" lon="6.96063">
        <ele>1557.47</ele>
        <time>2019-07-31T15:01:19Z</time>
      </trkpt>
      <trkpt lat="44.06843" lon="6.96058">
        <ele>1557.47</ele>
        <time>2019-07-31T15:01:20Z</time>
      </trkpt>
      <trkpt lat="44.06851" lon="6.96054">
        <ele>1556.03</ele>
        <time>2019-07-31T15:01:21Z</time>
      </trkpt>
      <trkpt lat="44.06858" lon="6.96051">
        <ele>1555.07</ele>
        <time>2019-07-31T15:01:22Z</time>
      </trkpt>
      <trkpt lat="44.06865" lon="6.96049">
        <ele>1555.07</ele>
        <time>2019-07-31T15:01:23Z</time>
      </trkpt>
      <trkpt lat="44.06878" lon="6.96046">
        <ele>1552.19</ele>
        <time>2019-07-31T15:01:26Z</time>
      </trkpt>
      <trkpt lat="44.06895" lon="6.96042">
        <ele>1550.26</ele>
        <time>2019-07-31T15:01:38Z</time>
      </trkpt>
      <trkpt lat="44.06914" lon="6.9603">
        <ele>1549.78</ele>
        <time>2019-07-31T15:01:52Z</time>
      </trkpt>
      <trkpt lat="44.06933" lon="6.96023">
        <ele>1547.86</ele>
        <time>2019-07-31T15:02:05Z</time>
      </trkpt>
      <trkpt lat="44.06952" lon="6.96014">
        <ele>1546.9</ele>
        <time>2019-07-31T15:02:19Z</time>
      </trkpt>
      <trkpt lat="44.06969" lon="6.96006">
        <ele>1545.94</ele>
        <time>2019-07-31T15:02:31Z</time>
      </trkpt>
      <trkpt lat="44.06975" lon="6.96001">
        <ele>1545.46</ele>
        <time>2019-07-31T15:02:37Z</time>
      </trkpt>
      <trkpt lat="44.06977" lon="6.96">
        <ele>1545.46</ele>
        <time>2019-07-31T15:02:38Z</time>
      </trkpt>
      <trkpt lat="44.06978" lon="6.95998">
        <ele>1545.46</ele>
        <time>2019-07-31T15:02:39Z</time>
      </trkpt>
      <trkpt lat="44.0698" lon="6.95997">
        <ele>1544.5</ele>
        <time>2019-07-31T15:02:40Z</time>
      </trkpt>
      <trkpt lat="44.06982" lon="6.95996">
        <ele>1544.5</ele>
        <time>2019-07-31T15:02:41Z</time>
      </trkpt>
      <trkpt lat="44.06984" lon="6.95995">
        <ele>1544.98</ele>
        <time>2019-07-31T15:02:42Z</time>
      </trkpt>
      <trkpt lat="44.06985" lon="6.95995">
        <ele>1544.98</ele>
        <time>2019-07-31T15:02:43Z</time>
      </trkpt>
      <trkpt lat="44.06987" lon="6.95994">
        <ele>1544.98</ele>
        <time>2019-07-31T15:02:44Z</time>
      </trkpt>
      <trkpt lat="44.06988" lon="6.95993">
        <ele>1544.5</ele>
        <time>2019-07-31T15:02:45Z</time>
      </trkpt>
      <trkpt lat="44.06989" lon="6.95992">
        <ele>1544.5</ele>
        <time>2019-07-31T15:02:46Z</time>
      </trkpt>
      <trkpt lat="44.0699" lon="6.95991">
        <ele>1544.5</ele>
        <time>2019-07-31T15:02:47Z</time>
      </trkpt>
      <trkpt lat="44.06991" lon="6.9599">
        <ele>1544.5</ele>
        <time>2019-07-31T15:02:48Z</time>
      </trkpt>
      <trkpt lat="44.07007" lon="6.95973">
        <ele>1542.57</ele>
        <time>2019-07-31T15:03:02Z</time>
      </trkpt>
      <trkpt lat="44.07033" lon="6.95946">
        <ele>1541.13</ele>
        <time>2019-07-31T15:03:14Z</time>
      </trkpt>
      <trkpt lat="44.07063" lon="6.95908">
        <ele>1538.25</ele>
        <time>2019-07-31T15:03:29Z</time>
      </trkpt>
      <trkpt lat="44.07081" lon="6.95873">
        <ele>1536.32</ele>
        <time>2019-07-31T15:03:40Z</time>
      </trkpt>
      <trkpt lat="44.07109" lon="6.95854">
        <ele>1532.96</ele>
        <time>2019-07-31T15:03:50Z</time>
      </trkpt>
      <trkpt lat="44.07127" lon="6.95839">
        <ele>1531.04</ele>
        <time>2019-07-31T15:03:59Z</time>
      </trkpt>
      <trkpt lat="44.07126" lon="6.95839">
        <ele>1531.04</ele>
        <time>2019-07-31T15:04:00Z</time>
      </trkpt>
      <trkpt lat="44.07126" lon="6.9584">
        <ele>1531.04</ele>
        <time>2019-07-31T15:04:01Z</time>
      </trkpt>
      <trkpt lat="44.07125" lon="6.95841">
        <ele>1531.04</ele>
        <time>2019-07-31T15:04:02Z</time>
      </trkpt>
      <trkpt lat="44.07136" lon="6.95891">
        <ele>1528.63</ele>
        <time>2019-07-31T15:04:11Z</time>
      </trkpt>
      <trkpt lat="44.07137" lon="6.95897">
        <ele>1528.63</ele>
        <time>2019-07-31T15:04:12Z</time>
      </trkpt>
      <trkpt lat="44.07138" lon="6.95903">
        <ele>1527.67</ele>
        <time>2019-07-31T15:04:13Z</time>
      </trkpt>
      <trkpt lat="44.0714" lon="6.95908">
        <ele>1527.67</ele>
        <time>2019-07-31T15:04:14Z</time>
      </trkpt>
      <trkpt lat="44.07141" lon="6.95913">
        <ele>1527.67</ele>
        <time>2019-07-31T15:04:15Z</time>
      </trkpt>
      <trkpt lat="44.07143" lon="6.95917">
        <ele>1526.71</ele>
        <time>2019-07-31T15:04:16Z</time>
      </trkpt>
      <trkpt lat="44.07145" lon="6.9592">
        <ele>1526.23</ele>
        <time>2019-07-31T15:04:17Z</time>
      </trkpt>
      <trkpt lat="44.07148" lon="6.95923">
        <ele>1526.23</ele>
        <time>2019-07-31T15:04:18Z</time>
      </trkpt>
      <trkpt lat="44.0715" lon="6.95925">
        <ele>1526.23</ele>
        <time>2019-07-31T15:04:19Z</time>
      </trkpt>
      <trkpt lat="44.07184" lon="6.95932">
        <ele>1524.31</ele>
        <time>2019-07-31T15:04:30Z</time>
      </trkpt>
      <trkpt lat="44.07217" lon="6.95916">
        <ele>1520.94</ele>
        <time>2019-07-31T15:04:40Z</time>
      </trkpt>
      <trkpt lat="44.07262" lon="6.959">
        <ele>1519.02</ele>
        <time>2019-07-31T15:04:52Z</time>
      </trkpt>
      <trkpt lat="44.07288" lon="6.95891">
        <ele>1516.14</ele>
        <time>2019-07-31T15:05:02Z</time>
      </trkpt>
      <trkpt lat="44.07319" lon="6.95883">
        <ele>1514.21</ele>
        <time>2019-07-31T15:05:15Z</time>
      </trkpt>
      <trkpt lat="44.07368" lon="6.95871">
        <ele>1510.85</ele>
        <time>2019-07-31T15:05:27Z</time>
      </trkpt>
      <trkpt lat="44.07392" lon="6.95867">
        <ele>1509.41</ele>
        <time>2019-07-31T15:05:37Z</time>
      </trkpt>
      <trkpt lat="44.07392" lon="6.95866">
        <ele>1509.41</ele>
        <time>2019-07-31T15:05:49Z</time>
      </trkpt>
      <trkpt lat="44.07388" lon="6.95869">
        <ele>1509.41</ele>
        <time>2019-07-31T15:06:06Z</time>
      </trkpt>
      <trkpt lat="44.07389" lon="6.95871">
        <ele>1507.97</ele>
        <time>2019-07-31T15:06:17Z</time>
      </trkpt>
      <trkpt lat="44.0739" lon="6.95869">
        <ele>1507.97</ele>
        <time>2019-07-31T15:06:20Z</time>
      </trkpt>
      <trkpt lat="44.07392" lon="6.95866">
        <ele>1507.97</ele>
        <time>2019-07-31T15:06:22Z</time>
      </trkpt>
      <trkpt lat="44.07394" lon="6.95864">
        <ele>1507.97</ele>
        <time>2019-07-31T15:06:23Z</time>
      </trkpt>
      <trkpt lat="44.07397" lon="6.95861">
        <ele>1507.97</ele>
        <time>2019-07-31T15:06:24Z</time>
      </trkpt>
      <trkpt lat="44.07401" lon="6.95859">
        <ele>1507.97</ele>
        <time>2019-07-31T15:06:25Z</time>
      </trkpt>
      <trkpt lat="44.07405" lon="6.95856">
        <ele>1507.97</ele>
        <time>2019-07-31T15:06:26Z</time>
      </trkpt>
      <trkpt lat="44.0741" lon="6.95853">
        <ele>1507.97</ele>
        <time>2019-07-31T15:06:27Z</time>
      </trkpt>
      <trkpt lat="44.07415" lon="6.9585">
        <ele>1507.97</ele>
        <time>2019-07-31T15:06:28Z</time>
      </trkpt>
      <trkpt lat="44.07421" lon="6.95847">
        <ele>1507.97</ele>
        <time>2019-07-31T15:06:29Z</time>
      </trkpt>
      <trkpt lat="44.07454" lon="6.95831">
        <ele>1506.04</ele>
        <time>2019-07-31T15:06:34Z</time>
      </trkpt>
      <trkpt lat="44.07471" lon="6.95827">
        <ele>1504.6</ele>
        <time>2019-07-31T15:06:37Z</time>
      </trkpt>
      <trkpt lat="44.07518" lon="6.95827">
        <ele>1503.16</ele>
        <time>2019-07-31T15:06:46Z</time>
      </trkpt>
      <trkpt lat="44.07579" lon="6.95809">
        <ele>1501.72</ele>
        <time>2019-07-31T15:06:57Z</time>
      </trkpt>
      <trkpt lat="44.07596" lon="6.95802">
        <ele>1501.72</ele>
        <time>2019-07-31T15:07:00Z</time>
      </trkpt>
      <trkpt lat="44.07602" lon="6.958">
        <ele>1501.72</ele>
        <time>2019-07-31T15:07:01Z</time>
      </trkpt>
      <trkpt lat="44.07608" lon="6.958">
        <ele>1501.72</ele>
        <time>2019-07-31T15:07:02Z</time>
      </trkpt>
      <trkpt lat="44.07613" lon="6.958">
        <ele>1501.24</ele>
        <time>2019-07-31T15:07:03Z</time>
      </trkpt>
      <trkpt lat="44.07618" lon="6.958">
        <ele>1501.24</ele>
        <time>2019-07-31T15:07:04Z</time>
      </trkpt>
      <trkpt lat="44.07647" lon="6.95803">
        <ele>1501.24</ele>
        <time>2019-07-31T15:07:10Z</time>
      </trkpt>
      <trkpt lat="44.0771" lon="6.95809">
        <ele>1504.12</ele>
        <time>2019-07-31T15:07:26Z</time>
      </trkpt>
      <trkpt lat="44.07751" lon="6.95802">
        <ele>1505.56</ele>
        <time>2019-07-31T15:07:36Z</time>
      </trkpt>
      <trkpt lat="44.07808" lon="6.95815">
        <ele>1507.48</ele>
        <time>2019-07-31T15:07:50Z</time>
      </trkpt>
      <trkpt lat="44.07812" lon="6.95814">
        <ele>1507.97</ele>
        <time>2019-07-31T15:07:51Z</time>
      </trkpt>
      <trkpt lat="44.07816" lon="6.95811">
        <ele>1507.97</ele>
        <time>2019-07-31T15:07:52Z</time>
      </trkpt>
      <trkpt lat="44.07821" lon="6.95808">
        <ele>1508.93</ele>
        <time>2019-07-31T15:07:53Z</time>
      </trkpt>
      <trkpt lat="44.07866" lon="6.95781">
        <ele>1510.37</ele>
        <time>2019-07-31T15:08:05Z</time>
      </trkpt>
      <trkpt lat="44.0791" lon="6.95771">
        <ele>1511.81</ele>
        <time>2019-07-31T15:08:18Z</time>
      </trkpt>
      <trkpt lat="44.07949" lon="6.95732">
        <ele>1513.73</ele>
        <time>2019-07-31T15:08:30Z</time>
      </trkpt>
      <trkpt lat="44.07991" lon="6.95693">
        <ele>1515.66</ele>
        <time>2019-07-31T15:08:43Z</time>
      </trkpt>
      <trkpt lat="44.08022" lon="6.95675">
        <ele>1516.62</ele>
        <time>2019-07-31T15:08:51Z</time>
      </trkpt>
      <trkpt lat="44.08042" lon="6.95662">
        <ele>1517.1</ele>
        <time>2019-07-31T15:08:56Z</time>
      </trkpt>
      <trkpt lat="44.08059" lon="6.95651">
        <ele>1518.54</ele>
        <time>2019-07-31T15:09:00Z</time>
      </trkpt>
      <trkpt lat="44.0807" lon="6.95645">
        <ele>1518.54</ele>
        <time>2019-07-31T15:09:02Z</time>
      </trkpt>
      <trkpt lat="44.08122" lon="6.95623">
        <ele>1521.42</ele>
        <time>2019-07-31T15:09:11Z</time>
      </trkpt>
      <trkpt lat="44.08167" lon="6.95618">
        <ele>1522.87</ele>
        <time>2019-07-31T15:09:18Z</time>
      </trkpt>
      <trkpt lat="44.08173" lon="6.95619">
        <ele>1523.83</ele>
        <time>2019-07-31T15:09:19Z</time>
      </trkpt>
      <trkpt lat="44.08179" lon="6.95621">
        <ele>1523.83</ele>
        <time>2019-07-31T15:09:20Z</time>
      </trkpt>
      <trkpt lat="44.08191" lon="6.95624">
        <ele>1524.31</ele>
        <time>2019-07-31T15:09:22Z</time>
      </trkpt>
      <trkpt lat="44.08197" lon="6.95624">
        <ele>1525.27</ele>
        <time>2019-07-31T15:09:23Z</time>
      </trkpt>
      <trkpt lat="44.08202" lon="6.9562">
        <ele>1525.27</ele>
        <time>2019-07-31T15:09:24Z</time>
      </trkpt>
      <trkpt lat="44.08205" lon="6.95615">
        <ele>1525.75</ele>
        <time>2019-07-31T15:09:25Z</time>
      </trkpt>
      <trkpt lat="44.08204" lon="6.95605">
        <ele>1526.71</ele>
        <time>2019-07-31T15:09:27Z</time>
      </trkpt>
      <trkpt lat="44.082" lon="6.95607">
        <ele>1526.71</ele>
        <time>2019-07-31T15:09:28Z</time>
      </trkpt>
      <trkpt lat="44.08198" lon="6.95611">
        <ele>1524.79</ele>
        <time>2019-07-31T15:09:29Z</time>
      </trkpt>
      <trkpt lat="44.08198" lon="6.95616">
        <ele>1524.79</ele>
        <time>2019-07-31T15:09:30Z</time>
      </trkpt>
      <trkpt lat="44.082" lon="6.95618">
        <ele>1524.31</ele>
        <time>2019-07-31T15:09:31Z</time>
      </trkpt>
      <trkpt lat="44.08203" lon="6.95617">
        <ele>1524.31</ele>
        <time>2019-07-31T15:09:32Z</time>
      </trkpt>
      <trkpt lat="44.08204" lon="6.95613">
        <ele>1524.31</ele>
        <time>2019-07-31T15:09:33Z</time>
      </trkpt>
      <trkpt lat="44.08204" lon="6.95609">
        <ele>1524.31</ele>
        <time>2019-07-31T15:09:34Z</time>
      </trkpt>
      <trkpt lat="44.08203" lon="6.95606">
        <ele>1525.75</ele>
        <time>2019-07-31T15:09:35Z</time>
      </trkpt>
      <trkpt lat="44.08202" lon="6.95604">
        <ele>1525.75</ele>
        <time>2019-07-31T15:09:36Z</time>
      </trkpt>
      <trkpt lat="44.082" lon="6.95603">
        <ele>1525.75</ele>
        <time>2019-07-31T15:09:37Z</time>
      </trkpt>
      <trkpt lat="44.08197" lon="6.95602">
        <ele>1525.75</ele>
        <time>2019-07-31T15:09:38Z</time>
      </trkpt>
      <trkpt lat="44.08195" lon="6.95601">
        <ele>1525.75</ele>
        <time>2019-07-31T15:09:39Z</time>
      </trkpt>
      <trkpt lat="44.08193" lon="6.95601">
        <ele>1525.75</ele>
        <time>2019-07-31T15:09:40Z</time>
      </trkpt>
      <trkpt lat="44.0818" lon="6.95603">
        <ele>1524.31</ele>
        <time>2019-07-31T15:09:45Z</time>
      </trkpt>
      <trkpt lat="44.08157" lon="6.95604">
        <ele>1522.87</ele>
        <time>2019-07-31T15:09:53Z</time>
      </trkpt>
      <trkpt lat="44.08155" lon="6.95608">
        <ele>1522.87</ele>
        <time>2019-07-31T15:09:54Z</time>
      </trkpt>
      <trkpt lat="44.08155" lon="6.95616">
        <ele>1522.39</ele>
        <time>2019-07-31T15:09:56Z</time>
      </trkpt>
      <trkpt lat="44.08157" lon="6.95618">
        <ele>1522.39</ele>
        <time>2019-07-31T15:09:57Z</time>
      </trkpt>
      <trkpt lat="44.0816" lon="6.95619">
        <ele>1521.9</ele>
        <time>2019-07-31T15:09:58Z</time>
      </trkpt>
      <trkpt lat="44.08163" lon="6.95619">
        <ele>1521.9</ele>
        <time>2019-07-31T15:09:59Z</time>
      </trkpt>
      <trkpt lat="44.08166" lon="6.95619">
        <ele>1521.9</ele>
        <time>2019-07-31T15:10:00Z</time>
      </trkpt>
      <trkpt lat="44.08169" lon="6.95619">
        <ele>1523.35</ele>
        <time>2019-07-31T15:10:01Z</time>
      </trkpt>
      <trkpt lat="44.08172" lon="6.9562">
        <ele>1523.35</ele>
        <time>2019-07-31T15:10:02Z</time>
      </trkpt>
      <trkpt lat="44.08176" lon="6.95621">
        <ele>1523.83</ele>
        <time>2019-07-31T15:10:03Z</time>
      </trkpt>
      <trkpt lat="44.08212" lon="6.95625">
        <ele>1524.79</ele>
        <time>2019-07-31T15:10:15Z</time>
      </trkpt>
      <trkpt lat="44.08249" lon="6.9563">
        <ele>1526.71</ele>
        <time>2019-07-31T15:10:26Z</time>
      </trkpt>
      <trkpt lat="44.08252" lon="6.95626">
        <ele>1526.71</ele>
        <time>2019-07-31T15:10:27Z</time>
      </trkpt>
      <trkpt lat="44.08254" lon="6.95621">
        <ele>1527.67</ele>
        <time>2019-07-31T15:10:28Z</time>
      </trkpt>
      <trkpt lat="44.08256" lon="6.95615">
        <ele>1527.19</ele>
        <time>2019-07-31T15:10:29Z</time>
      </trkpt>
      <trkpt lat="44.08259" lon="6.9561">
        <ele>1527.19</ele>
        <time>2019-07-31T15:10:30Z</time>
      </trkpt>
      <trkpt lat="44.08265" lon="6.95607">
        <ele>1527.19</ele>
        <time>2019-07-31T15:10:31Z</time>
      </trkpt>
      <trkpt lat="44.08271" lon="6.95606">
        <ele>1527.19</ele>
        <time>2019-07-31T15:10:32Z</time>
      </trkpt>
      <trkpt lat="44.08277" lon="6.95606">
        <ele>1528.15</ele>
        <time>2019-07-31T15:10:33Z</time>
      </trkpt>
      <trkpt lat="44.08283" lon="6.95607">
        <ele>1528.15</ele>
        <time>2019-07-31T15:10:34Z</time>
      </trkpt>
      <trkpt lat="44.08315" lon="6.95617">
        <ele>1530.56</ele>
        <time>2019-07-31T15:10:39Z</time>
      </trkpt>
      <trkpt lat="44.0834" lon="6.95626">
        <ele>1533.44</ele>
        <time>2019-07-31T15:10:47Z</time>
      </trkpt>
      <trkpt lat="44.08369" lon="6.95626">
        <ele>1537.29</ele>
        <time>2019-07-31T15:10:58Z</time>
      </trkpt>
      <trkpt lat="44.08399" lon="6.95614">
        <ele>1540.65</ele>
        <time>2019-07-31T15:11:08Z</time>
      </trkpt>
      <trkpt lat="44.08437" lon="6.95605">
        <ele>1543.53</ele>
        <time>2019-07-31T15:11:22Z</time>
      </trkpt>
      <trkpt lat="44.0847" lon="6.95585">
        <ele>1545.46</ele>
        <time>2019-07-31T15:11:36Z</time>
      </trkpt>
      <trkpt lat="44.08495" lon="6.95561">
        <ele>1548.82</ele>
        <time>2019-07-31T15:11:45Z</time>
      </trkpt>
      <trkpt lat="44.08511" lon="6.95553">
        <ele>1549.3</ele>
        <time>2019-07-31T15:11:49Z</time>
      </trkpt>
      <trkpt lat="44.08528" lon="6.95541">
        <ele>1550.26</ele>
        <time>2019-07-31T15:11:53Z</time>
      </trkpt>
      <trkpt lat="44.08568" lon="6.95488">
        <ele>1551.22</ele>
        <time>2019-07-31T15:12:06Z</time>
      </trkpt>
      <trkpt lat="44.08604" lon="6.95441">
        <ele>1554.59</ele>
        <time>2019-07-31T15:12:18Z</time>
      </trkpt>
      <trkpt lat="44.08629" lon="6.95417">
        <ele>1557.95</ele>
        <time>2019-07-31T15:12:26Z</time>
      </trkpt>
      <trkpt lat="44.08654" lon="6.95389">
        <ele>1560.36</ele>
        <time>2019-07-31T15:12:34Z</time>
      </trkpt>
      <trkpt lat="44.08657" lon="6.95387">
        <ele>1560.84</ele>
        <time>2019-07-31T15:12:35Z</time>
      </trkpt>
      <trkpt lat="44.08681" lon="6.95353">
        <ele>1563.72</ele>
        <time>2019-07-31T15:12:45Z</time>
      </trkpt>
      <trkpt lat="44.08707" lon="6.95315">
        <ele>1567.09</ele>
        <time>2019-07-31T15:12:57Z</time>
      </trkpt>
      <trkpt lat="44.0873" lon="6.95275">
        <ele>1569.49</ele>
        <time>2019-07-31T15:13:08Z</time>
      </trkpt>
      <trkpt lat="44.08757" lon="6.95231">
        <ele>1573.33</ele>
        <time>2019-07-31T15:13:21Z</time>
      </trkpt>
      <trkpt lat="44.08771" lon="6.95201">
        <ele>1574.78</ele>
        <time>2019-07-31T15:13:29Z</time>
      </trkpt>
      <trkpt lat="44.08771" lon="6.95197">
        <ele>1575.26</ele>
        <time>2019-07-31T15:13:30Z</time>
      </trkpt>
      <trkpt lat="44.08772" lon="6.95194">
        <ele>1575.26</ele>
        <time>2019-07-31T15:13:31Z</time>
      </trkpt>
      <trkpt lat="44.08773" lon="6.9519">
        <ele>1575.74</ele>
        <time>2019-07-31T15:13:32Z</time>
      </trkpt>
      <trkpt lat="44.08774" lon="6.95186">
        <ele>1575.74</ele>
        <time>2019-07-31T15:13:33Z</time>
      </trkpt>
      <trkpt lat="44.08775" lon="6.95182">
        <ele>1576.22</ele>
        <time>2019-07-31T15:13:34Z</time>
      </trkpt>
      <trkpt lat="44.08775" lon="6.95179">
        <ele>1576.22</ele>
        <time>2019-07-31T15:13:35Z</time>
      </trkpt>
      <trkpt lat="44.08783" lon="6.95129">
        <ele>1579.58</ele>
        <time>2019-07-31T15:13:49Z</time>
      </trkpt>
      <trkpt lat="44.08795" lon="6.95075">
        <ele>1582.95</ele>
        <time>2019-07-31T15:14:01Z</time>
      </trkpt>
      <trkpt lat="44.08805" lon="6.95015">
        <ele>1585.83</ele>
        <time>2019-07-31T15:14:14Z</time>
      </trkpt>
      <trkpt lat="44.08812" lon="6.94967">
        <ele>1589.2</ele>
        <time>2019-07-31T15:14:25Z</time>
      </trkpt>
      <trkpt lat="44.08812" lon="6.94923">
        <ele>1592.56</ele>
        <time>2019-07-31T15:14:35Z</time>
      </trkpt>
      <trkpt lat="44.08808" lon="6.94892">
        <ele>1594.48</ele>
        <time>2019-07-31T15:14:41Z</time>
      </trkpt>
      <trkpt lat="44.08791" lon="6.94843">
        <ele>1597.37</ele>
        <time>2019-07-31T15:14:52Z</time>
      </trkpt>
      <trkpt lat="44.08779" lon="6.94788">
        <ele>1600.73</ele>
        <time>2019-07-31T15:15:03Z</time>
      </trkpt>
      <trkpt lat="44.08761" lon="6.94732">
        <ele>1602.66</ele>
        <time>2019-07-31T15:15:16Z</time>
      </trkpt>
      <trkpt lat="44.08745" lon="6.94697">
        <ele>1605.06</ele>
        <time>2019-07-31T15:15:28Z</time>
      </trkpt>
      <trkpt lat="44.08729" lon="6.94648">
        <ele>1608.42</ele>
        <time>2019-07-31T15:15:42Z</time>
      </trkpt>
      <trkpt lat="44.08711" lon="6.94596">
        <ele>1611.79</ele>
        <time>2019-07-31T15:15:55Z</time>
      </trkpt>
      <trkpt lat="44.08688" lon="6.94529">
        <ele>1615.15</ele>
        <time>2019-07-31T15:16:11Z</time>
      </trkpt>
      <trkpt lat="44.08682" lon="6.94489">
        <ele>1618.04</ele>
        <time>2019-07-31T15:16:20Z</time>
      </trkpt>
      <trkpt lat="44.08674" lon="6.94437">
        <ele>1620.92</ele>
        <time>2019-07-31T15:16:33Z</time>
      </trkpt>
      <trkpt lat="44.08665" lon="6.94374">
        <ele>1623.8</ele>
        <time>2019-07-31T15:16:49Z</time>
      </trkpt>
      <trkpt lat="44.08671" lon="6.94323">
        <ele>1626.69</ele>
        <time>2019-07-31T15:17:03Z</time>
      </trkpt>
      <trkpt lat="44.0867" lon="6.9432">
        <ele>1626.69</ele>
        <time>2019-07-31T15:17:12Z</time>
      </trkpt>
      <trkpt lat="44.0867" lon="6.94319">
        <ele>1625.73</ele>
        <time>2019-07-31T15:17:26Z</time>
      </trkpt>
      <trkpt lat="44.08678" lon="6.94287">
        <ele>1628.61</ele>
        <time>2019-07-31T15:17:36Z</time>
      </trkpt>
      <trkpt lat="44.08681" lon="6.94274">
        <ele>1628.61</ele>
        <time>2019-07-31T15:17:38Z</time>
      </trkpt>
      <trkpt lat="44.08691" lon="6.94248">
        <ele>1630.53</ele>
        <time>2019-07-31T15:17:42Z</time>
      </trkpt>
      <trkpt lat="44.08736" lon="6.94173">
        <ele>1632.46</ele>
        <time>2019-07-31T15:17:55Z</time>
      </trkpt>
      <trkpt lat="44.08767" lon="6.94108">
        <ele>1634.86</ele>
        <time>2019-07-31T15:18:06Z</time>
      </trkpt>
      <trkpt lat="44.0877" lon="6.94104">
        <ele>1634.86</ele>
        <time>2019-07-31T15:18:07Z</time>
      </trkpt>
      <trkpt lat="44.08773" lon="6.941">
        <ele>1634.86</ele>
        <time>2019-07-31T15:18:08Z</time>
      </trkpt>
      <trkpt lat="44.08777" lon="6.94096">
        <ele>1634.86</ele>
        <time>2019-07-31T15:18:09Z</time>
      </trkpt>
      <trkpt lat="44.08781" lon="6.94093">
        <ele>1634.86</ele>
        <time>2019-07-31T15:18:10Z</time>
      </trkpt>
      <trkpt lat="44.08786" lon="6.94091">
        <ele>1634.86</ele>
        <time>2019-07-31T15:18:11Z</time>
      </trkpt>
      <trkpt lat="44.08791" lon="6.9409">
        <ele>1634.86</ele>
        <time>2019-07-31T15:18:12Z</time>
      </trkpt>
      <trkpt lat="44.08796" lon="6.94088">
        <ele>1634.86</ele>
        <time>2019-07-31T15:18:13Z</time>
      </trkpt>
      <trkpt lat="44.088" lon="6.94086">
        <ele>1634.86</ele>
        <time>2019-07-31T15:18:14Z</time>
      </trkpt>
      <trkpt lat="44.08805" lon="6.94084">
        <ele>1634.86</ele>
        <time>2019-07-31T15:18:15Z</time>
      </trkpt>
      <trkpt lat="44.08807" lon="6.94082">
        <ele>1634.86</ele>
        <time>2019-07-31T15:18:16Z</time>
      </trkpt>
      <trkpt lat="44.08808" lon="6.94081">
        <ele>1634.86</ele>
        <time>2019-07-31T15:18:17Z</time>
      </trkpt>
      <trkpt lat="44.08806" lon="6.94084">
        <ele>1634.86</ele>
        <time>2019-07-31T15:18:26Z</time>
      </trkpt>
      <trkpt lat="44.08806" lon="6.94085">
        <ele>1633.42</ele>
        <time>2019-07-31T15:18:29Z</time>
      </trkpt>
      <trkpt lat="44.08803" lon="6.94085">
        <ele>1632.94</ele>
        <time>2019-07-31T15:18:57Z</time>
      </trkpt>
      <trkpt lat="44.08803" lon="6.94084">
        <ele>1632.94</ele>
        <time>2019-07-31T15:19:18Z</time>
      </trkpt>
      <trkpt lat="44.08804" lon="6.94085">
        <ele>1632.94</ele>
        <time>2019-07-31T15:19:46Z</time>
      </trkpt>
      <trkpt lat="44.08806" lon="6.94085">
        <ele>1633.9</ele>
        <time>2019-07-31T15:19:49Z</time>
      </trkpt>
      <trkpt lat="44.08808" lon="6.94084">
        <ele>1633.9</ele>
        <time>2019-07-31T15:19:50Z</time>
      </trkpt>
      <trkpt lat="44.08841" lon="6.94061">
        <ele>1635.34</ele>
        <time>2019-07-31T15:20:02Z</time>
      </trkpt>
      <trkpt lat="44.08869" lon="6.94012">
        <ele>1637.26</ele>
        <time>2019-07-31T15:20:14Z</time>
      </trkpt>
      <trkpt lat="44.08903" lon="6.93955">
        <ele>1639.67</ele>
        <time>2019-07-31T15:20:28Z</time>
      </trkpt>
      <trkpt lat="44.08929" lon="6.93897">
        <ele>1643.03</ele>
        <time>2019-07-31T15:20:41Z</time>
      </trkpt>
      <trkpt lat="44.08959" lon="6.93826">
        <ele>1645.43</ele>
        <time>2019-07-31T15:20:57Z</time>
      </trkpt>
      <trkpt lat="44.08964" lon="6.93804">
        <ele>1646.4</ele>
        <time>2019-07-31T15:21:02Z</time>
      </trkpt>
      <trkpt lat="44.08966" lon="6.93798">
        <ele>1646.4</ele>
        <time>2019-07-31T15:21:03Z</time>
      </trkpt>
      <trkpt lat="44.08969" lon="6.93793">
        <ele>1646.4</ele>
        <time>2019-07-31T15:21:04Z</time>
      </trkpt>
      <trkpt lat="44.08986" lon="6.9376">
        <ele>1649.28</ele>
        <time>2019-07-31T15:21:11Z</time>
      </trkpt>
      <trkpt lat="44.0899" lon="6.93752">
        <ele>1649.28</ele>
        <time>2019-07-31T15:21:13Z</time>
      </trkpt>
      <trkpt lat="44.08987" lon="6.93734">
        <ele>1649.76</ele>
        <time>2019-07-31T15:21:17Z</time>
      </trkpt>
      <trkpt lat="44.0899" lon="6.93715">
        <ele>1650.24</ele>
        <time>2019-07-31T15:21:25Z</time>
      </trkpt>
      <trkpt lat="44.0899" lon="6.93714">
        <ele>1648.8</ele>
        <time>2019-07-31T15:21:30Z</time>
      </trkpt>
      <trkpt lat="44.08989" lon="6.93714">
        <ele>1651.68</ele>
        <time>2019-07-31T15:21:31Z</time>
      </trkpt>
      <trkpt lat="44.08989" lon="6.93715">
        <ele>1651.68</ele>
        <time>2019-07-31T15:21:32Z</time>
      </trkpt>
      <trkpt lat="44.08989" lon="6.93716">
        <ele>1649.28</ele>
        <time>2019-07-31T15:21:48Z</time>
      </trkpt>
      <trkpt lat="44.08989" lon="6.93715">
        <ele>1649.76</ele>
        <time>2019-07-31T15:22:01Z</time>
      </trkpt>
      <trkpt lat="44.08994" lon="6.93711">
        <ele>1650.72</ele>
        <time>2019-07-31T15:22:05Z</time>
      </trkpt>
      <trkpt lat="44.09031" lon="6.93648">
        <ele>1653.12</ele>
        <time>2019-07-31T15:22:17Z</time>
      </trkpt>
      <trkpt lat="44.09039" lon="6.93626">
        <ele>1653.6</ele>
        <time>2019-07-31T15:22:20Z</time>
      </trkpt>
      <trkpt lat="44.09049" lon="6.93608">
        <ele>1654.57</ele>
        <time>2019-07-31T15:22:23Z</time>
      </trkpt>
      <trkpt lat="44.09058" lon="6.93593">
        <ele>1655.53</ele>
        <time>2019-07-31T15:22:26Z</time>
      </trkpt>
      <trkpt lat="44.09069" lon="6.93582">
        <ele>1656.97</ele>
        <time>2019-07-31T15:22:29Z</time>
      </trkpt>
      <trkpt lat="44.09109" lon="6.93551">
        <ele>1657.45</ele>
        <time>2019-07-31T15:22:42Z</time>
      </trkpt>
      <trkpt lat="44.09116" lon="6.93547">
        <ele>1657.45</ele>
        <time>2019-07-31T15:22:47Z</time>
      </trkpt>
      <trkpt lat="44.09122" lon="6.93552">
        <ele>1657.45</ele>
        <time>2019-07-31T15:22:52Z</time>
      </trkpt>
      <trkpt lat="44.09141" lon="6.93551">
        <ele>1658.89</ele>
        <time>2019-07-31T15:23:06Z</time>
      </trkpt>
      <trkpt lat="44.0915" lon="6.93548">
        <ele>1659.85</ele>
        <time>2019-07-31T15:23:14Z</time>
      </trkpt>
      <trkpt lat="44.09155" lon="6.93542">
        <ele>1659.85</ele>
        <time>2019-07-31T15:23:18Z</time>
      </trkpt>
      <trkpt lat="44.09156" lon="6.9354">
        <ele>1659.85</ele>
        <time>2019-07-31T15:23:19Z</time>
      </trkpt>
      <trkpt lat="44.09158" lon="6.93537">
        <ele>1660.33</ele>
        <time>2019-07-31T15:23:20Z</time>
      </trkpt>
      <trkpt lat="44.09165" lon="6.9353">
        <ele>1658.89</ele>
        <time>2019-07-31T15:23:23Z</time>
      </trkpt>
      <trkpt lat="44.09188" lon="6.93499">
        <ele>1660.33</ele>
        <time>2019-07-31T15:23:33Z</time>
      </trkpt>
      <trkpt lat="44.09198" lon="6.93492">
        <ele>1660.33</ele>
        <time>2019-07-31T15:23:36Z</time>
      </trkpt>
      <trkpt lat="44.09197" lon="6.93473">
        <ele>1661.3</ele>
        <time>2019-07-31T15:23:40Z</time>
      </trkpt>
      <trkpt lat="44.09192" lon="6.93441">
        <ele>1661.3</ele>
        <time>2019-07-31T15:23:45Z</time>
      </trkpt>
      <trkpt lat="44.09207" lon="6.93394">
        <ele>1663.7</ele>
        <time>2019-07-31T15:23:53Z</time>
      </trkpt>
    </trkseg>
  </trk>
</gpx>